[[{"header":{"parameterUnit":"m.s-1","parameterCategory":1,"la1":30.6,"la2":28.766,"lo1":-90.7593,"lo2":-88.6598,"dy":0.0162,"dx":0.0183,"nx":116,"ny":114,"refTime":"2024-03-25T06:00:00:Z","depth":0,"parameterNumber":2,"parameterNumberName":"U-component_of_WINDS"},"data":[0.0,0.0,0.0,0.0,0.0,0.0,0.0,0.0,0.0,0.0,0.0,0.0,0.0,0.0,0.0,0.0,0.0,0.0,0.0,0.0,0.0,0.0,0.0,0.0,0.0,0.0,0.0,0.0,0.0,0.0,0.0,0.0,0.0,0.0,0.0,0.0,0.0,0.0,0.0,0.0,0.0,0.0,0.0,0.0,0.0,0.0,0.0,0.0,0.0,0.0,0.0,0.0,0.0,0.0,0.0,0.0,0.0,0.0,0.0,0.0,0.0,0.0,0.0,0.0,0.0,0.0,0.0,0.0,0.0,0.0,0.0,0.0,0.0,0.0,0.0,0.0,0.0,0.0,0.0,0.0,0.0,0.0,0.0,0.0,0.0,0.0,0.0,0.0,0.0,0.0,0.0,0.0,0.0,0.0,0.0,0.0,0.0,0.0,0.0,0.0,0.0,0.0,0.0,0.0,0.0,0.0,0.0,0.0,0.0,0.0,0.0,0.0,0.0,0.0,0.0,0.0,0.0,0.0,0.0,0.0,0.0,0.0,0.0,0.0,0.0,0.0,0.0,0.0,0.0,0.0,0.0,0.0,0.0,0.0,0.0,0.0,0.0,0.0,0.0,0.0,0.0,0.0,0.0,0.0,0.0,0.0,0.0,0.0,0.0,0.0,0.0,0.0,0.0,0.0,0.0,0.0,0.0,0.0,0.0,0.0,0.0,0.0,0.0,0.0,0.0,0.0,0.0,0.0,0.0,0.0,0.0,0.0,0.0,0.0,0.0,0.0,0.0,0.0,0.0,0.0,0.0,0.0,0.0,0.0,0.0,0.0,0.0,0.0,0.0,0.0,0.0,0.0,0.0,0.0,0.0,0.0,0.0,0.0,0.0,0.0,0.0,0.0,0.0,0.0,0.0,0.0,0.0,0.0,0.0,0.0,0.0,0.0,0.0,0.0,0.0,0.0,0.0,0.0,0.0,0.0,0.0,0.0,0.0,0.0,0.0,0.0,0.0,0.0,0.0,0.0,0.0,0.0,0.0,0.0,0.0,0.0,0.0,0.0,0.0,0.0,0.0,0.0,0.0,0.0,0.0,0.0,0.0,0.0,0.0,0.0,0.0,0.0,0.0,0.0,0.0,0.0,0.0,0.0,0.0,0.0,0.0,0.0,0.0,0.0,0.0,0.0,0.0,0.0,0.0,0.0,0.0,0.0,0.0,0.0,0.0,0.0,0.0,0.0,0.0,0.0,0.0,0.0,0.0,0.0,0.0,0.0,0.0,0.0,0.0,0.0,0.0,0.0,0.0,0.0,0.0,0.0,0.0,0.0,0.0,0.0,0.0,0.0,0.0,0.0,0.0,0.0,0.0,0.0,0.0,0.0,0.0,0.0,0.0,0.0,0.0,0.0,0.0,0.0,0.0,0.0,0.0,0.0,0.0,0.0,0.0,0.0,0.0,0.0,0.0,0.0,0.0,0.0,0.0,0.0,0.0,0.0,0.0,0.0,0.0,0.0,0.0,0.0,0.0,0.0,0.0,0.0,0.0,0.0,0.0,0.0,0.0,0.0,0.0,0.0,0.0,0.0,0.0,0.0,0.0,0.0,0.0,0.0,0.0,0.0,0.0,0.0,0.0,0.0,0.0,0.0,0.0,0.0,0.0,0.0,0.0,0.0,0.0,0.0,0.0,0.0,0.0,0.0,0.0,0.0,0.0,0.0,0.0,0.0,0.0,0.0,0.0,0.0,0.0,0.0,0.0,0.0,0.0,0.0,0.0,0.0,0.0,0.0,0.0,0.0,0.0,0.0,0.0,0.0,0.0,0.0,0.0,0.0,0.0,0.0,0.0,0.0,0.0,0.0,0.0,0.0,0.0,0.0,0.0,0.0,0.0,0.0,0.0,0.0,0.0,0.0,0.0,0.0,0.0,0.0,0.0,0.0,0.0,0.0,0.0,0.0,0.0,0.0,0.0,0.0,0.0,0.0,0.0,0.0,0.0,0.0,0.0,0.0,0.0,0.0,0.0,0.0,0.0,0.0,0.0,0.0,0.0,0.0,0.0,0.0,0.0,0.0,0.0,0.0,0.0,0.0,0.0,0.0,0.0,0.0,0.0,0.0,0.0,0.0,0.0,0.0,0.0,0.0,0.0,0.0,0.0,0.0,0.0,0.0,0.0,0.0,0.0,0.0,0.0,0.0,0.0,0.0,0.0,0.0,0.0,0.0,0.0,0.0,0.0,0.0,0.0,0.0,0.0,0.0,0.0,0.0,0.0,0.0,0.0,0.0,0.0,0.0,0.0,0.0,0.0,0.0,0.0,0.0,0.0,0.0,0.0,0.0,0.0,0.0,0.0,0.0,0.0,0.0,0.0,0.0,0.0,0.0,0.0,0.0,0.0,0.0,0.0,0.0,0.0,0.0,0.0,0.0,0.0,0.0,0.0,0.0,0.0,0.0,0.0,0.0,0.0,0.0,0.0,0.0,0.0,0.0,0.0,0.0,0.0,0.0,0.0,0.0,0.0,0.0,0.0,0.0,0.0,0.0,0.0,0.0,0.0,0.0,0.0,0.0,0.0,0.0,0.0,0.0,0.0,0.0,0.0,0.0,0.0,0.0,0.0,0.0,0.0,0.0,0.0,0.0,0.0,0.0,0.0,0.0,0.0,0.0,0.0,0.0,0.0,0.0,0.0,0.0,0.0,0.0,0.0,0.0,0.0,0.0,0.0,0.0,0.0,0.0,0.0,0.0,0.0,0.0,0.0,0.0,0.0,0.0,0.0,0.0,0.0,0.0,0.0,0.0,0.0,0.0,0.0,0.0,0.0,0.0,0.0,0.0,0.0,0.0,0.0,0.0,0.0,0.0,0.0,0.0,0.0,0.0,0.0,0.0,0.0,0.0,0.0,0.0,0.0,0.0,0.0,0.0,0.0,0.0,0.0,0.0,0.0,0.0,0.0,0.0,0.0,0.0,0.0,0.0,0.0,0.0,0.0,0.0,0.0,0.0,0.0,0.0,0.0,0.0,0.0,0.0,0.0,0.0,0.0,0.0,0.0,0.0,0.0,0.0,0.0,0.0,0.0,0.0,0.0,0.0,0.0,0.0,0.0,0.0,0.0,0.0,0.0,0.0,0.0,0.0,0.0,0.0,0.0,0.0,0.0,0.0,0.0,0.0,0.0,0.0,0.0,0.0,0.0,0.0,0.0,0.0,0.0,0.0,0.0,0.0,0.0,0.0,0.0,0.0,0.0,0.0,0.0,0.0,0.0,0.0,0.0,0.0,0.0,0.0,0.0,0.0,0.0,0.0,0.0,0.0,0.0,0.0,0.0,0.0,0.0,0.0,0.0,0.0,0.0,0.0,0.0,0.0,0.0,0.0,0.0,0.0,0.0,0.0,0.0,0.0,0.0,0.0,0.0,0.0,0.0,0.0,0.0,0.0,0.0,0.0,0.0,0.0,0.0,0.0,0.0,0.0,0.0,0.0,0.0,0.0,0.0,0.0,0.0,0.0,0.0,0.0,0.0,0.0,0.0,0.0,0.0,0.0,0.0,0.0,0.0,0.0,0.0,0.0,0.0,0.0,0.0,0.0,0.0,0.0,0.0,0.0,0.0,0.0,0.0,0.0,0.0,0.0,0.0,0.0,0.0,0.0,0.0,0.0,0.0,0.0,0.0,0.0,0.0,0.0,0.0,0.0,0.0,0.0,0.0,0.0,0.0,0.0,0.0,0.0,0.0,0.0,0.0,0.0,0.0,0.0,0.0,0.0,0.0,0.0,0.0,0.0,0.0,0.0,0.0,0.0,0.0,0.0,0.0,0.0,0.0,0.0,0.0,0.0,0.0,0.0,0.0,0.0,0.0,0.0,0.0,0.0,0.0,0.0,0.0,0.0,0.0,0.0,0.0,0.0,0.0,0.0,0.0,0.0,0.0,0.0,0.0,0.0,0.0,0.0,0.0,0.0,0.0,0.0,0.0,0.0,0.0,0.0,0.0,0.0,0.0,0.0,0.0,0.0,0.0,0.0,0.0,0.0,0.0,0.0,0.0,0.0,0.0,0.0,0.0,0.0,0.0,0.0,0.0,0.0,0.0,0.0,0.0,0.0,0.0,0.0,0.0,0.0,0.0,0.0,0.0,0.0,0.0,0.0,0.0,0.0,0.0,0.0,0.0,0.0,0.0,0.0,0.0,0.0,0.0,0.0,0.0,0.0,0.0,0.0,0.0,0.0,0.0,0.0,0.0,0.0,0.0,0.0,0.0,0.0,0.0,0.0,0.0,0.0,0.0,0.0,0.0,0.0,0.0,0.0,0.0,0.0,0.0,0.0,0.0,0.0,0.0,0.0,0.0,0.0,0.0,0.0,0.0,0.0,0.0,0.0,0.0,0.0,0.0,0.0,0.0,0.0,0.0,0.0,0.0,0.0,0.0,0.0,0.0,0.0,0.0,0.0,0.0,0.0,0.0,0.0,0.0,0.0,0.0,0.0,0.0,0.0,0.0,0.0,0.0,0.0,0.0,0.0,0.0,0.0,0.0,0.0,0.0,0.0,0.0,0.0,0.0,0.0,0.0,0.0,0.0,0.0,0.0,0.0,0.0,0.0,0.0,0.0,0.0,0.0,0.0,0.0,0.0,0.0,0.0,0.0,0.0,0.0,0.0,0.0,0.0,0.0,0.0,0.0,0.0,0.0,0.0,0.0,0.0,0.0,0.0,0.0,0.0,0.0,0.0,0.0,0.0,0.0,0.0,0.0,0.0,0.0,0.0,0.0,0.0,0.0,0.0,0.0,0.0,0.0,0.0,0.0,0.0,0.0,0.0,0.0,0.0,0.0,0.0,0.0,0.0,0.0,0.0,0.0,0.0,0.0,0.0,0.0,0.0,0.0,0.0,0.0,0.0,0.0,0.0,0.0,0.0,0.0,0.0,0.0,0.0,0.0,0.0,0.0,0.0,0.0,0.0,0.0,0.0,0.0,0.0,0.0,0.0,0.0,0.0,0.0,0.0,0.0,0.0,0.0,0.0,0.0,0.0,0.0,0.0,0.0,0.0,0.0,0.0,0.0,0.0,0.0,0.0,0.0,0.0,0.0,0.0,0.0,0.0,0.0,0.0,0.0,0.0,0.0,0.0,0.0,0.0,0.0,0.0,0.0,0.0,0.0,0.0,0.0,0.0,0.0,0.0,0.0,0.0,0.0,0.0,0.0,0.0,0.0,0.0,0.0,0.0,0.0,0.0,0.0,0.0,0.0,0.0,0.0,0.0,0.0,0.0,0.0,0.0,0.0,0.0,0.0,0.0,0.0,0.0,0.0,0.0,0.0,0.0,0.0,0.0,0.0,0.0,0.0,0.0,0.0,0.0,0.0,0.0,0.0,0.0,0.0,0.0,0.0,0.0,0.0,0.0,0.0,0.0,0.0,0.0,0.0,0.0,0.0,0.0,0.0,0.0,0.0,0.0,0.0,0.0,0.0,0.0,0.0,0.0,0.0,0.0,0.0,0.0,0.0,0.0,0.0,0.0,0.0,0.0,0.0,0.0,0.0,0.0,0.0,0.0,0.0,0.0,0.0,0.0,0.0,0.0,0.0,0.0,0.0,0.0,0.0,0.0,0.0,0.0,0.0,0.0,0.0,0.0,0.0,0.0,0.0,0.0,0.0,0.0,0.0,0.0,0.0,0.0,0.0,0.0,0.0,0.0,0.0,0.0,0.0,0.0,0.0,0.0,0.0,0.0,0.0,0.0,0.0,0.0,0.0,0.0,0.0,0.0,0.0,0.0,0.0,0.0,0.0,0.0,0.0,0.0,0.0,0.0,0.0,0.0,0.0,0.0,0.0,0.0,0.0,0.0,0.0,0.0,0.0,0.0,0.0,0.0,0.0,0.0,0.0,0.0,0.0,0.0,0.0,0.0,0.0,0.0,0.0,0.0,0.0,0.0,0.0,0.0,0.0,0.0,0.0,0.0,0.0,0.0,0.0,0.0,0.0,0.0,0.0,0.0,0.0,0.0,0.0,0.0,0.0,0.0,0.0,0.0,0.0,0.0,0.0,0.0,0.0,0.0,0.0,0.0,0.0,0.0,0.0,0.0,0.0,0.0,0.0,0.0,0.0,0.0,0.0,0.0,0.0,-8.2182,-8.2339,0.0,0.0,0.0,0.0,0.0,0.0,0.0,0.0,0.0,0.0,0.0,0.0,0.0,0.0,0.0,0.0,0.0,0.0,0.0,0.0,0.0,0.0,0.0,-2.3692,-2.3391,-2.3558,-2.2915,-2.2587,-2.2872,-2.2538,-2.1974,-2.1156,-2.0841,-2.0965,-2.1665,-2.2698,-2.4847,-2.8094,-2.9763,-3.2552,-3.629,-3.7785,-3.8255,-3.7754,0.0,0.0,0.0,0.0,0.0,0.0,0.0,0.0,0.0,0.0,0.0,0.0,0.0,0.0,0.0,0.0,0.0,0.0,0.0,0.0,0.0,0.0,0.0,0.0,0.0,0.0,0.0,0.0,0.0,0.0,0.0,0.0,0.0,0.0,0.0,0.0,0.0,0.0,0.0,0.0,0.0,0.0,0.0,0.0,0.0,0.0,0.0,0.0,0.0,0.0,0.0,0.0,0.0,0.0,0.0,0.0,0.0,0.0,0.0,0.0,0.0,0.0,0.0,0.0,0.0,0.0,0.0,0.0,0.0,0.0,-8.5893,-8.5137,0.0,0.0,0.0,0.0,0.0,0.0,0.0,0.0,0.0,0.0,0.0,0.0,0.0,0.0,0.0,0.0,0.0,0.0,0.0,0.0,0.0,-2.4176,-2.5302,-2.409,-2.3677,-2.4958,-2.3583,-2.2687,-2.2751,-2.248,-2.1705,-2.0294,-2.0471,-2.0836,-2.1443,-2.3124,-2.5866,-2.9631,-3.2273,-3.6318,-4.1739,-4.4123,-4.4154,-4.2151,-4.1455,0.0,0.0,0.0,0.0,0.0,0.0,0.0,0.0,0.0,0.0,0.0,0.0,0.0,0.0,0.0,0.0,0.0,0.0,0.0,0.0,0.0,0.0,0.0,0.0,0.0,0.0,0.0,0.0,0.0,0.0,0.0,0.0,0.0,0.0,0.0,0.0,0.0,0.0,0.0,0.0,0.0,0.0,0.0,0.0,0.0,0.0,0.0,0.0,0.0,0.0,0.0,0.0,0.0,0.0,0.0,0.0,0.0,0.0,0.0,0.0,0.0,0.0,0.0,-8.5858,-8.78,-9.1132,-9.1129,-9.2438,-9.4562,-9.1211,-8.9685,-8.9469,-8.927,0.0,0.0,0.0,0.0,0.0,0.0,0.0,0.0,0.0,0.0,0.0,0.0,0.0,0.0,0.0,0.0,0.0,0.0,0.0,-2.5029,-2.5205,-2.5837,-2.5982,-2.5485,-2.487,-2.4249,-2.3766,-2.2414,-2.1374,-2.0723,-2.0118,-2.0444,-2.1856,-2.4014,-2.6543,-2.9331,-3.6208,-4.1897,-4.6453,-4.8889,-5.0364,-5.0745,-4.6112,-4.5304,-4.7034,0.0,0.0,0.0,0.0,0.0,0.0,0.0,0.0,0.0,0.0,0.0,0.0,0.0,0.0,0.0,0.0,0.0,0.0,0.0,0.0,0.0,0.0,0.0,0.0,0.0,0.0,0.0,0.0,0.0,0.0,0.0,0.0,0.0,0.0,0.0,0.0,0.0,0.0,0.0,0.0,0.0,-6.6173,-6.7289,0.0,0.0,0.0,0.0,0.0,0.0,0.0,0.0,0.0,0.0,0.0,0.0,0.0,-8.2207,-8.536,-8.6417,-8.7341,-8.8219,-9.0239,-9.2376,-9.4578,-9.4676,-9.6682,-10.0086,-9.9754,0.0,-9.3068,-9.2237,0.0,0.0,0.0,0.0,0.0,0.0,0.0,0.0,0.0,0.0,0.0,0.0,0.0,0.0,0.0,0.0,0.0,0.0,0.0,0.0,0.0,-2.6216,-2.6154,-2.6597,-2.7085,-2.6372,-2.3957,-2.4312,-2.35,-2.0991,-2.1169,-2.185,-2.2986,-2.56,-2.9675,-3.531,-4.2544,-4.7288,-4.9791,-5.2467,-5.4284,-5.5265,-5.2807,-5.1055,-4.9673,-4.4599,0.0,0.0,0.0,0.0,0.0,0.0,0.0,0.0,0.0,0.0,0.0,0.0,0.0,0.0,0.0,0.0,0.0,0.0,0.0,0.0,0.0,0.0,0.0,0.0,0.0,0.0,0.0,0.0,0.0,0.0,0.0,0.0,0.0,0.0,0.0,0.0,0.0,0.0,0.0,-6.6555,-6.9595,-6.891,-7.1201,-7.2287,0.0,0.0,0.0,0.0,0.0,0.0,0.0,0.0,0.0,-8.4503,-8.582,-8.7209,-8.8683,-9.0317,-9.1573,-9.2315,-9.4668,-9.7117,-9.9509,-10.0497,-10.2624,-10.5295,-10.5084,-10.3593,-10.0791,-9.744,-9.4168,-9.1184,0.0,0.0,0.0,0.0,-9.0247,-9.0525,0.0,0.0,0.0,0.0,0.0,0.0,0.0,0.0,0.0,0.0,0.0,0.0,-2.7995,-2.7428,-2.7458,-2.8892,-2.9542,-2.8712,-2.5983,-2.647,-2.5576,-2.2536,-2.3053,-2.3798,-2.475,-2.8777,-3.4659,-4.2408,-4.795,-5.1458,-5.3048,-5.5648,-5.7346,-5.8166,-5.8148,-5.6463,-5.3316,-4.8699,-4.6339,-4.5353,0.0,0.0,0.0,0.0,0.0,0.0,0.0,0.0,0.0,0.0,0.0,0.0,0.0,0.0,0.0,0.0,0.0,0.0,0.0,0.0,0.0,0.0,0.0,0.0,0.0,0.0,0.0,0.0,0.0,0.0,0.0,0.0,0.0,0.0,0.0,0.0,0.0,-6.9347,-7.1881,-7.0246,-7.2983,-7.4088,0.0,0.0,0.0,0.0,0.0,0.0,-8.1244,-8.3384,-8.5933,-8.8841,-9.0348,-9.1268,-9.1779,-9.3034,-9.4143,-9.5199,-9.7449,-10.0209,-10.3438,-10.5102,-10.6986,-10.901,-10.8718,-10.8104,-10.6988,-10.2202,-9.7962,-9.4363,-9.3504,-9.2645,-9.2027,-9.338,-9.3856,-9.421,0.0,0.0,0.0,0.0,0.0,0.0,0.0,0.0,0.0,0.0,0.0,-2.7708,-2.9583,-3.0596,-3.1683,-3.2916,-3.1931,-3.1278,-3.1418,-2.8283,-2.6429,-2.6442,-2.5721,-2.5977,-2.7273,-3.4569,-4.1818,-4.8932,-5.0939,-5.3572,-5.6786,-5.8824,-5.9817,-5.9916,-6.0459,-6.0623,-6.0127,-5.4375,-5.202,-5.1637,-4.591,0.0,0.0,0.0,0.0,0.0,0.0,0.0,0.0,0.0,0.0,0.0,0.0,0.0,0.0,0.0,0.0,0.0,0.0,0.0,0.0,0.0,0.0,0.0,0.0,0.0,0.0,0.0,0.0,0.0,0.0,0.0,0.0,0.0,0.0,0.0,0.0,0.0,0.0,-7.0805,-7.5091,0.0,0.0,0.0,0.0,-7.7509,-7.9922,-8.2414,-8.482,-8.6691,-8.9551,-9.3594,-9.2801,-9.3097,-9.4648,-9.3749,-9.4008,-9.5574,-9.7282,-10.0392,-10.4905,-10.6429,-10.8287,-11.0517,-11.0379,-10.9916,-10.8893,-10.531,-10.2202,-9.9712,-9.8853,-9.7994,-9.722,-9.7403,-9.7449,-9.7449,0.0,0.0,0.0,0.0,0.0,0.0,0.0,0.0,-2.4139,-2.5255,-2.6792,-2.8699,-3.1055,-3.2729,-3.4285,-3.5765,-3.7029,-3.6842,-3.4622,-3.2821,-3.1546,-3.0911,-2.9325,-3.0578,-3.5068,-4.0721,-4.5684,-4.9897,-5.3634,-5.6519,-5.8603,-6.0047,-6.1212,-6.2201,-6.2258,-6.2335,-6.2033,-5.6819,-5.4283,-5.3376,-4.8846,-4.5355,0.0,0.0,0.0,0.0,0.0,0.0,0.0,0.0,0.0,0.0,0.0,0.0,0.0,0.0,0.0,0.0,0.0,0.0,0.0,0.0,0.0,0.0,0.0,0.0,0.0,0.0,0.0,0.0,0.0,0.0,0.0,0.0,0.0,0.0,0.0,0.0,0.0,-7.6858,-7.9891,0.0,-7.9129,-7.941,-8.0737,-8.3015,-8.4689,-8.7108,-9.0548,-9.2413,-9.4591,-9.7317,-9.7318,-9.7043,-9.6632,-9.6447,-9.646,-9.6542,-9.8521,-10.156,-10.5274,-10.696,-10.9103,-11.1419,-11.1121,-11.0993,-11.0697,-10.8411,-10.5892,-10.3398,-10.1988,-10.1207,-10.0898,-10.0311,-10.0507,-10.1014,0.0,0.0,0.0,0.0,0.0,0.0,0.0,-2.3955,-2.4466,-2.5909,-2.7911,-3.0215,-3.2899,-3.5195,-3.7244,-3.9025,-4.0381,-4.0318,-3.8271,-3.6247,-3.4873,-3.4321,-3.3315,-3.5418,-4.1199,-4.528,-4.9038,-5.234,-5.6154,-5.8615,-5.985,-6.1198,-6.2329,-6.3276,-6.3424,-6.3496,-6.327,-5.9845,-5.754,-5.5856,-5.2295,-4.9728,-4.7617,0.0,0.0,0.0,0.0,0.0,0.0,0.0,0.0,0.0,0.0,0.0,0.0,0.0,0.0,0.0,0.0,0.0,0.0,0.0,0.0,0.0,0.0,0.0,0.0,0.0,0.0,0.0,0.0,0.0,0.0,0.0,0.0,0.0,0.0,-7.4857,-7.8866,-8.0389,-8.3378,-8.4749,-8.3342,-8.3576,-8.4899,-8.741,-8.8914,-9.1057,-9.4157,-9.5906,-9.7569,-9.9018,-9.9012,-9.8335,-9.6988,-9.6569,-9.6582,-9.6954,-9.8859,-10.1811,-10.5505,-10.7623,-10.9697,-11.1692,-11.171,-11.1713,-11.1701,-11.0178,-10.8402,-10.6513,-10.478,-10.3701,-10.3095,-10.2597,-10.2605,-10.2803,0.0,0.0,0.0,0.0,0.0,0.0,-2.3954,-2.4257,-2.497,-2.6822,-2.9627,-3.2459,-3.5114,-3.8091,-4.0736,-4.2807,-4.1724,-4.1373,-4.2401,-3.8229,-3.602,-3.6538,-3.7571,-4.0334,-4.5146,-4.8291,-5.2102,-5.6654,-5.8415,-5.9778,-6.0792,-6.2448,-6.3199,-6.3195,-6.3984,-6.4359,-6.4362,-6.3728,-6.21,-5.9534,-5.6421,-5.4988,-5.417,0.0,0.0,0.0,0.0,0.0,0.0,0.0,0.0,0.0,0.0,0.0,0.0,0.0,0.0,0.0,0.0,0.0,0.0,0.0,0.0,0.0,0.0,0.0,0.0,0.0,0.0,0.0,0.0,0.0,0.0,0.0,0.0,0.0,-6.9588,-7.6496,-8.1279,-8.112,-8.5421,-8.7547,-8.5245,-8.7242,-8.9248,-9.0509,-9.2428,-9.403,-9.5335,-9.6953,-9.8101,-9.8795,-9.7481,-9.6406,-9.5699,-9.3861,-9.4157,-9.6632,-9.8189,-10.1362,-10.5836,-10.822,-11.0016,-11.1423,-11.222,-11.2187,-11.1604,-11.0707,-10.9888,-10.8913,-10.729,-10.5591,-10.4116,-10.411,-10.3597,-10.282,0.0,0.0,0.0,0.0,0.0,0.0,-2.4453,-2.4535,-2.5404,-2.8081,-3.1,-3.4018,-3.7133,-4.0787,-4.3649,-4.531,-4.4423,-4.384,-4.4071,-3.9586,-3.7343,-3.8169,-4.1533,-4.498,-4.848,-5.2128,-5.5209,-5.7707,-5.9996,-6.1582,-6.2446,-6.3088,-6.3879,-6.4847,-6.5073,-6.5523,-6.6087,-6.5946,-6.5457,-6.448,-6.0297,-5.7315,-5.5149,0.0,0.0,0.0,0.0,0.0,0.0,0.0,0.0,0.0,0.0,0.0,0.0,0.0,0.0,0.0,0.0,0.0,0.0,0.0,0.0,0.0,0.0,0.0,0.0,0.0,0.0,0.0,0.0,0.0,0.0,0.0,-6.8352,-7.2843,-7.4939,-7.9349,-8.3439,-8.6402,-8.9587,-9.1582,-9.1857,-9.2838,-9.4094,-9.5632,-9.5976,-9.669,-9.8023,-9.7844,-9.8042,-9.8801,-9.721,-9.6096,-9.566,-9.4782,-9.4781,-9.593,-9.819,-10.1081,-10.4618,-10.7032,-10.9006,-11.0509,-11.1085,-11.139,-11.1296,-11.0005,-10.9296,-10.8985,-10.7884,-10.6794,-10.5815,-10.5212,-10.3992,-10.2811,0.0,0.0,0.0,0.0,0.0,0.0,-2.4735,-2.4641,-2.5642,-2.91,-3.2097,-3.5103,-3.8399,-4.1972,-4.4489,-4.5405,-4.4904,-4.4187,-4.3362,-4.0642,-3.9577,-4.0672,-4.4562,-4.8377,-5.2005,-5.495,-5.7444,-5.9504,-6.1424,-6.2784,-6.3608,-6.4066,-6.4894,-6.6049,-6.6174,-6.6478,-6.697,-6.7241,-6.7241,-6.6938,-6.44,-6.2151,-6.0041,-5.7824,-5.6367,-5.5361,-5.387,-5.3646,-5.3717,-5.1714,0.0,0.0,0.0,0.0,0.0,0.0,0.0,0.0,0.0,0.0,0.0,0.0,0.0,0.0,0.0,0.0,0.0,0.0,0.0,0.0,0.0,0.0,0.0,0.0,-7.1886,-7.6644,-8.0411,-8.3246,-8.5994,-8.8783,-9.1605,-9.3662,-9.4541,-9.5229,-9.6206,-9.7727,-9.7469,-9.7644,-9.8613,-9.8042,-9.7587,-9.7148,-9.6119,-9.5075,-9.4219,-9.4208,-9.458,-9.5594,-9.8495,-10.1223,-10.3727,-10.6437,-10.8259,-10.9333,-10.9986,-11.0302,-11.0216,-10.9407,-10.868,-10.7978,0.0,0.0,0.0,0.0,-10.3505,-10.2788,0.0,0.0,0.0,0.0,0.0,0.0,-2.4821,-2.4679,-2.5914,-2.989,-3.2784,-3.5679,-3.8944,-4.2005,-4.3928,-4.4191,-4.3932,-4.3092,-4.1614,-4.1552,-4.2282,-4.3837,-4.7112,-5.0946,-5.5249,-5.7198,-5.9316,-6.164,-6.2816,-6.3721,-6.4434,-6.5261,-6.6124,-6.6954,-6.7239,-6.7392,-6.7506,-6.7997,-6.8095,-6.7897,-6.8126,-6.7642,-6.6278,-6.232,-6.1599,-6.2263,-5.9064,-5.7534,-5.664,-5.4306,0.0,0.0,0.0,0.0,0.0,0.0,0.0,0.0,0.0,0.0,0.0,0.0,0.0,0.0,0.0,0.0,0.0,0.0,0.0,0.0,0.0,0.0,0.0,0.0,-7.5474,-7.9106,-8.4982,-8.707,-8.8349,-8.9432,-9.2356,-9.445,-9.4884,-9.5698,-9.6584,-9.7672,-9.7429,-9.7351,-9.7752,-9.7645,0.0,0.0,0.0,-9.3663,-9.2102,-9.2885,-9.4017,-9.5661,-9.8997,-10.1476,-10.3217,-10.623,-10.7796,-10.8124,-10.9016,-10.9099,-10.8716,-10.8804,-10.7783,-10.6381,-10.7082,-10.6381,-10.49,-10.3302,-10.2685,-10.2686,0.0,0.0,0.0,0.0,0.0,0.0,-2.5162,-2.533,-2.6757,-3.064,-3.2908,-3.5538,-3.8983,-4.1045,-4.27,-4.4154,-4.2616,-4.1671,-4.1907,-4.2219,-4.3905,-4.7295,-5.0424,-5.3637,-5.6794,-5.9575,-6.1448,-6.25,-6.4203,-6.511,-6.5298,-6.6124,-6.6988,-6.7776,-6.803,-6.8564,-6.9246,-6.9543,-6.9649,-6.9614,-6.9683,-6.8256,-6.5955,-6.4932,-6.3668,-6.2345,-6.1448,-6.1734,-6.2291,-6.0441,-6.0147,-6.0147,-5.781,-5.3976,0.0,0.0,0.0,0.0,0.0,0.0,0.0,0.0,0.0,0.0,0.0,0.0,0.0,0.0,0.0,0.0,0.0,0.0,0.0,-7.4727,-7.8227,-8.1656,-8.5446,-8.6894,-8.8613,-9.1486,-9.3715,-9.5266,-9.5697,-9.6581,-9.7106,-9.7032,-9.7028,-9.6832,-9.6587,-9.6046,-9.5253,-9.418,-9.3412,-9.274,-9.2102,-9.3053,-9.4585,-9.6398,-9.9501,0.0,-10.3383,-10.628,-10.7479,-10.7316,-10.822,-10.8511,-10.8295,-10.7403,-10.6381,-10.5406,-10.49,-10.4393,-10.4121,-10.3809,-10.3201,-10.2709,0.0,0.0,0.0,0.0,0.0,0.0,-2.5496,-2.5712,-2.7096,-3.0836,-3.2572,-3.4638,-3.7783,-3.9003,-3.9542,-3.9473,-3.8658,-3.9161,-4.1355,-4.3095,-4.5957,-5.0424,-5.305,-5.6134,-5.9752,-6.1274,-6.2754,-6.4083,-6.5069,-6.5936,-6.6762,-6.7213,-6.7814,-6.8602,-6.9095,-6.9474,-6.9928,-7.0348,-7.0738,-7.1159,-7.1159,-7.0495,-6.9274,-6.7839,-6.6506,-6.5376,-6.4992,-6.4779,-6.4567,-6.3723,-6.3172,-6.2548,-6.0992,-5.7861,-5.4472,0.0,0.0,0.0,0.0,0.0,0.0,0.0,0.0,0.0,0.0,0.0,0.0,0.0,0.0,-6.2983,-6.5663,0.0,-7.4412,-7.7668,-8.0631,-8.3448,-8.6335,-8.7141,-8.8382,-9.0761,-9.2637,-9.3993,-9.4634,-9.544,-9.6062,-9.6242,-9.6076,-9.6054,-9.6146,-9.5296,-9.4135,-9.2793,-9.2251,-9.1577,-9.0787,-9.2644,-9.419,-9.5494,-9.9304,-10.1435,-10.2033,-10.5044,-10.6312,-10.6273,-10.7291,-10.7802,-10.7702,-10.641,-10.5295,-10.4289,-10.3393,-10.3391,-10.3809,-10.3419,-10.299,-10.2694,0.0,0.0,0.0,0.0,0.0,0.0,-2.5811,-2.5965,-2.7097,-3.0196,-3.1432,-3.2899,-3.5135,-3.5772,-3.5473,-3.4063,-3.4966,-3.7249,-4.1181,-4.4327,-4.8308,-5.3233,-5.5573,-5.8549,-6.2339,-6.2798,-6.3798,-6.5523,-6.5824,-6.6687,-6.8002,-6.8152,-6.8602,-6.9203,-6.9853,-7.0106,-7.0175,-7.0902,-7.1607,-7.2223,-7.2442,-7.2698,-7.274,-7.0302,-6.9184,-6.8846,-6.8158,-6.6721,-6.5184,-6.5515,-6.453,-6.3057,-6.2727,-6.088,-5.8465,-5.6407,-5.4792,0.0,0.0,0.0,0.0,0.0,0.0,0.0,0.0,-5.7674,-5.9778,-6.1844,-6.4696,-6.7603,-7.045,-7.4625,-7.8363,-8.0271,-8.225,-8.4416,-8.6756,-8.7049,-8.7562,-8.9085,-9.0882,-9.2396,-9.3135,-9.3836,-9.4464,-9.5109,-9.4869,-9.486,-9.5532,-9.475,-9.3267,-9.1305,-9.1207,-9.0477,-8.9276,-9.1771,-9.3466,-9.4389,-9.8533,-10.0601,-10.0808,-10.3904,-10.5272,-10.558,-10.6498,-10.6808,-10.6603,-10.5416,-10.4289,-10.3311,-10.2489,-10.279,-10.3503,-10.2802,-10.2491,-10.2585,0.0,0.0,0.0,0.0,0.0,0.0,0.0,0.0,-2.6889,-2.818,-2.892,-2.9595,-3.0221,-3.0639,-3.1029,-3.1509,-3.4455,-3.8216,-4.2687,-4.64,-5.0523,-5.5299,-5.8556,-6.0993,-6.2376,-6.401,-6.5085,-6.5523,-6.6988,-6.7814,-6.8039,-6.8753,-6.9128,-6.9203,-6.9853,-7.0171,-7.0355,-7.166,-7.2298,-7.2428,-7.3225,-7.3301,-7.2849,-7.162,-7.0839,-7.0319,-6.9125,-6.6955,-6.489,-6.6322,-6.572,-6.4511,-6.5856,-6.4339,-6.1545,-5.931,-5.6304,-5.3288,-5.1333,-5.0677,-5.0848,-5.226,-5.4167,-5.6767,0.0,-6.2504,-6.4117,-6.7546,-6.9718,-7.1709,-7.3828,-7.6814,-7.9475,-8.1091,-8.2314,-8.3661,-8.5287,-8.5233,-8.5554,-8.7161,-8.9816,-9.1836,-9.2622,-9.2765,-9.2918,-9.2989,-9.3015,-9.3138,-9.3338,-9.3443,-9.2525,-9.0612,-9.0554,-8.9907,-8.8549,-9.0068,-9.1959,-9.4389,-9.7527,-9.9814,-10.1611,-10.4199,-10.5468,-10.5511,-10.5991,-10.5514,-10.4283,-10.39,-10.3294,-10.2417,-10.2074,-10.2201,-10.2498,-10.242,-10.2303,-10.2382,0.0,0.0,0.0,0.0,0.0,0.0,0.0,0.0,-2.573,-2.6789,-2.6867,-2.713,-2.8,-2.7466,-2.7396,-2.8312,-3.1836,-3.6313,-4.1658,-4.6447,-5.1554,-5.7142,-5.9637,-6.1875,-6.401,-6.4806,-6.5801,-6.695,-6.7664,-6.8227,-6.8715,-6.9053,-6.9289,-6.9539,-6.9995,-7.0623,-7.1324,-7.2229,-7.3136,-7.4066,-7.434,-7.4347,-7.4043,-7.2901,-7.1073,-6.9008,-6.7696,-6.5775,0.0,-6.4992,-6.4668,-6.4093,-6.5504,-6.3764,-6.096,-5.9394,-5.7016,-5.4383,-5.2116,-5.2319,-5.3267,-5.3664,-5.6581,-6.0147,-6.3231,-6.5101,-6.7184,-7.0397,-7.2483,-7.4518,-7.7101,-7.932,-8.108,-8.18,-8.239,-8.3086,-8.376,-8.3752,-8.3781,-8.3989,-8.5942,-8.8181,-9.064,-9.0967,-9.1185,-9.1537,-9.1714,-9.1874,-9.1857,-9.1941,-9.1268,-8.9862,-8.9135,-8.8405,-8.7717,-8.9862,-9.1627,-9.3157,-9.753,-10.0177,-10.1384,-10.4002,-10.5403,-10.5873,-10.6084,-10.5182,-10.3725,-10.3516,-10.2824,-10.1913,-10.1873,-10.1903,-10.198,-10.2195,-10.2401,-10.2513,0.0,0.0,0.0,0.0,0.0,0.0,0.0,0.0,0.0,0.0,-2.4537,-2.4617,-2.5661,-2.4832,-2.4606,-2.5707,-2.9586,-3.4435,-4.0067,-4.5956,-5.1855,-5.7938,-6.0066,-6.2365,-6.5148,-6.5496,-6.6406,-6.8002,-6.8227,-6.864,-6.9203,-6.9289,-6.957,-7.0041,-7.0539,-7.1363,-7.2456,-7.3178,-7.4168,-7.5236,-7.5111,-7.4881,-7.4461,-7.2601,-6.9864,-6.6919,-6.5879,-6.3892,-6.1768,-6.1957,-6.1814,-6.1673,-6.2546,-6.1474,-5.9643,-5.8553,-5.6733,-5.4648,-5.2761,-5.3708,-5.5398,-5.6118,-5.9713,-6.3652,-6.6287,-6.8198,-7.0312,-7.3456,-7.5087,-7.6646,-7.9035,-8.0519,-8.1402,-8.1401,-8.1818,-8.2257,-8.2527,-8.2267,-8.1922,-8.1466,-8.2154,-8.4042,-8.7297,-8.8536,-8.9465,-9.0222,-9.0549,-9.0947,-9.1391,-9.0859,-9.0271,-8.9411,-8.8067,-8.7278,-8.6976,-8.9318,-9.1169,-9.2571,-9.743,-10.0309,-10.1534,-10.3926,-10.5292,-10.5799,-10.5605,-10.4611,-10.3104,-10.2899,-10.2384,-10.1722,-10.1616,-10.1688,-10.1804,-10.2099,-10.2401,-10.2601,0.0,0.0,0.0,0.0,0.0,0.0,0.0,0.0,0.0,0.0,-2.1731,-2.1726,-2.2431,-2.2508,-2.2926,-2.4053,-2.8573,-3.3384,-3.8245,-4.5052,-5.1488,-5.7207,-6.0149,-6.278,-6.5148,-6.6186,-6.7176,-6.8002,-6.879,-6.9203,-6.9203,-6.9539,-7.0115,-7.0913,-7.1643,-7.2534,-7.3543,-7.4847,-7.5432,-7.5377,-7.5236,-7.4608,-7.3365,-6.9862,-6.6776,-6.4297,-6.4045,-6.1223,-5.7504,-5.6929,-5.6755,-5.6804,-5.6964,-5.7717,-5.8293,-5.7109,-5.512,-5.328,-5.2939,-5.4188,-5.653,-6.042,-6.3444,-6.6605,-7.0981,-7.2558,-7.4055,-7.761,-7.8135,-7.8205,-7.9138,-7.9656,-7.9873,-7.9567,-8.0179,-8.0879,-8.1603,-8.0707,-8.0035,-8.051,-7.9514,-7.9644,-8.1998,-8.5583,-8.8043,-8.876,-8.9546,-9.0605,-9.2074,-9.0657,-8.9693,-8.935,-8.754,-8.6557,-8.6259,-8.7635,-9.0029,-9.3427,-9.6649,-9.9615,-10.2162,-10.4308,-10.5108,-10.4905,-10.4011,-10.3104,-10.2007,-10.1812,-10.1683,-10.1688,-10.1404,-10.1616,-10.2007,-10.2007,-10.2195,-10.2413,0.0,0.0,0.0,0.0,0.0,0.0,0.0,0.0,0.0,0.0,0.0,0.0,0.0,0.0,0.0,0.0,-2.7605,-3.197,-3.6724,-4.3547,-4.9507,-5.4132,-5.8831,-6.1967,-6.3509,-6.5141,-6.6612,-6.8002,-6.8264,-6.8805,-6.9539,-6.9659,-7.0346,-7.1502,-7.1842,-7.2996,-7.4612,-7.4611,-7.4661,-7.4639,-7.3234,-7.2134,-7.1046,-6.8487,-6.4821,-6.0839,0.0,-5.7059,-5.4259,-5.3012,-5.2657,-5.2846,-5.3229,-5.3147,-5.2684,-5.1856,-5.1594,-5.1967,-5.3801,-5.5918,-5.8769,-6.3635,-6.6425,-6.9226,-7.3603,-7.4568,-7.5051,-7.6578,-7.598,-7.5285,-7.5627,-7.5735,-7.6158,-7.7274,-7.8271,-7.9342,-8.0471,-8.0338,-7.9454,-7.7921,-7.8237,-7.8688,-7.8961,-8.2408,-8.5443,-8.7403,-8.8252,-8.8767,-8.9111,-8.8471,-8.7244,-8.561,-8.4198,-8.3756,-8.4228,-8.69,-8.9576,-9.2237,-9.8006,-10.2021,-10.4185,-10.5171,-10.5319,-10.4789,-10.3818,-10.2821,-10.178,-10.1473,-10.1402,-10.1402,-10.1511,-10.1703,-10.1995,-10.2217,-10.2413,-10.2694,0.0,0.0,0.0,0.0,0.0,0.0,0.0,0.0,0.0,0.0,0.0,0.0,0.0,0.0,0.0,0.0,0.0,-3.0744,-3.4935,-4.1031,-4.6305,-5.0545,-5.4719,-5.7759,-5.9632,-6.0497,-6.2071,-6.4308,-6.4476,-6.5394,-6.6996,-6.7275,-6.8374,-7.0167,-7.0439,-7.1633,-7.3427,-7.2752,-7.2538,-7.2375,-6.9866,-6.8158,-6.6882,-6.4306,-6.0533,0.0,-5.4511,-5.2276,-5.0098,-4.8938,-4.9172,-4.9812,-4.9144,-4.9049,-4.9001,-4.827,-4.9725,-5.2213,-5.5025,-5.8168,-6.187,-6.7029,-6.9806,-7.2267,-7.5739,-7.5807,-7.5122,-7.4941,-7.3546,-7.2286,-7.1896,-7.1214,-7.1567,-7.4364,-7.4788,-7.5729,-7.8556,-7.8287,-7.7441,-7.6408,-7.6786,-7.7119,-7.7426,-8.0156,-8.3092,-8.5858,-8.6678,-8.7156,-8.7507,-8.6498,-8.5168,-8.3671,-8.2648,-8.2559,-8.3664,-8.6843,-9.0372,-9.4192,-9.9641,-10.3094,-10.4696,-10.4799,-10.4725,-10.4308,-10.3209,-10.2283,-10.1511,-10.1404,-10.1404,-10.1516,-10.1616,-10.1894,-10.221,-10.2324,-10.2608,-10.281,0.0,0.0,0.0,0.0,0.0,0.0,0.0,0.0,0.0,0.0,0.0,0.0,0.0,0.0,0.0,0.0,0.0,0.0,-3.2962,-3.7622,-4.2226,-4.6625,-4.839,-5.0705,-5.3916,-5.3127,-5.4261,-5.7501,-5.7899,-5.9455,-6.2004,-6.263,-6.4369,-6.6899,-6.7369,-6.8493,-7.0026,-6.9321,-6.9001,-6.8655,-6.5256,-6.2977,-6.1289,-5.78,-5.4486,-5.1376,-4.963,-4.7473,-4.5462,-4.5143,-4.65,-4.7787,-4.5,-4.5642,-4.7316,-4.6717,-4.9641,-5.3738,-5.6639,-6.0827,-6.5534,-7.0418,-7.3316,-7.5534,-7.7349,-7.6214,-7.4405,-7.2968,-7.1053,-6.9282,-6.805,-6.6433,-6.667,-7.0892,-7.0152,-7.0847,-7.587,-7.4839,-7.4238,-7.6004,-7.5059,-7.515,-7.7263,-7.8831,-8.0951,-8.4123,-8.4935,-8.5832,-8.7126,-8.4904,-8.3437,-8.3156,-8.2318,-8.277,-8.4649,-8.7697,-9.2474,-9.8947,-10.1277,-10.2917,-10.3808,-10.3404,-10.3209,-10.3181,-10.2167,-10.1473,-10.1289,-10.1289,-10.1516,-10.1683,-10.1716,-10.2022,-10.2417,-10.2396,-10.2593,-10.2797,0.0,0.0,0.0,0.0,0.0,0.0,0.0,0.0,0.0,0.0,0.0,0.0,0.0,0.0,0.0,0.0,0.0,0.0,-3.171,-3.5861,-3.9486,-4.2486,-4.6443,-4.9208,-5.0579,-5.1952,-5.3332,-5.4765,-5.5349,-5.6685,-5.8719,-5.914,-6.0448,-6.2504,-6.2769,-6.3894,-6.5485,-6.4205,-6.3383,-6.2728,-6.0402,-5.8965,-5.8077,-5.7057,-5.456,-5.1491,-5.0862,-4.838,-4.5407,-4.5434,-4.6227,-4.6949,-4.5998,-4.6196,-4.7095,-4.9022,-5.1189,-5.4215,-5.9498,-6.2919,-6.6382,-7.2152,-7.3856,-7.46,-7.6493,-7.4628,-7.221,-7.0858,-6.7769,-6.4906,-6.3625,-6.4389,-6.589,-6.8012,-7.049,-7.3177,-7.6136,-7.6523,-7.6472,-7.6063,-7.6169,-7.6504,-7.7037,-7.745,-7.8837,-8.1541,-8.3465,-8.404,-8.3119,-8.2231,-8.0705,-7.8781,-7.9271,-8.0683,-8.306,-8.9993,-9.5423,-9.9515,-10.1405,-10.2597,-10.319,-10.3172,-10.3124,-10.2979,-10.2102,-10.1473,-10.1289,-10.1475,-10.1616,-10.1677,-10.1995,-10.23,-10.2396,-10.2581,-10.2711,-10.28,0.0,0.0,0.0,0.0,0.0,0.0,0.0,0.0,0.0,0.0,0.0,0.0,0.0,0.0,0.0,0.0,0.0,0.0,0.0,-3.3481,-3.6135,-3.8265,-4.1161,-4.3296,-4.4653,-4.582,-4.7223,-4.882,-4.9742,-5.1334,-5.3502,-5.4016,-5.5249,-5.7112,-5.7431,-5.8311,-5.9526,-5.8432,-5.7739,0.0,0.0,-5.4384,-5.3851,-5.3735,-5.2144,-4.9939,-5.0,-4.8396,-4.6275,-4.6355,-4.6603,-4.6803,-4.7077,-4.7632,-4.8568,-5.0755,-5.3121,-5.6093,-6.0975,-6.4686,-6.8114,-7.2684,-7.4183,-7.453,-7.4433,-7.272,-7.0156,-6.6533,-6.3848,-6.1408,-5.9243,-6.007,-6.1981,-6.479,-6.7334,-7.0225,-7.403,-7.4891,-7.5293,-7.5579,-7.6332,-7.6876,-7.714,-7.7753,-7.8441,-7.9162,-8.0648,-8.1278,-8.0479,-7.9247,-7.8236,-7.7287,-7.8322,-8.1498,-8.6872,-9.3178,-9.7636,-10.0071,-10.1187,-10.1977,-10.2531,-10.2492,-10.2508,-10.2301,-10.1778,-10.1514,-10.1514,-10.1616,-10.1812,-10.2007,-10.2171,-10.2401,-10.2592,-10.2714,-10.281,-10.28,0.0,0.0,0.0,0.0,0.0,0.0,0.0,0.0,0.0,0.0,0.0,0.0,0.0,0.0,0.0,0.0,0.0,0.0,0.0,0.0,-3.311,-3.4844,-3.5417,-3.6582,-3.8481,-3.8708,-3.9846,-4.2044,-4.3501,-4.5444,-4.7743,-4.8343,-4.9627,-5.1337,-5.1786,-5.2449,-5.3194,-5.2615,-5.2419,-5.2381,-5.0986,-5.0165,-4.9873,0.0,-4.9137,-4.7983,-4.8272,-4.7795,-4.7139,-4.7578,-4.7617,-4.7605,-4.8327,-4.9567,-5.1056,-5.2554,-5.5314,-5.875,-6.2223,-6.629,-7.007,-7.2542,-7.4072,-7.4299,-7.1839,-7.0249,-6.7649,-6.1646,-5.9721,-5.8239,-5.5296,-5.5297,-5.7258,-6.187,-6.3084,-6.5552,-7.1266,-7.2072,-7.2895,-7.4944,-7.5828,-7.6653,-7.7371,-7.8634,-7.8846,-7.7435,-7.7791,-7.8187,-7.836,-7.6606,-7.628,-7.8101,-7.9501,-8.4344,-9.2929,-9.6578,-9.9095,-10.0502,-10.0864,-10.1392,-10.1923,-10.1819,-10.1688,-10.1616,-10.1402,-10.1478,-10.1683,-10.1787,-10.2007,-10.23,-10.2282,-10.2513,-10.271,-10.2802,-10.281,-10.28,0.0,0.0,0.0,0.0,0.0,0.0,0.0,0.0,0.0,0.0,-2.2974,-2.2968,0.0,0.0,0.0,0.0,0.0,0.0,0.0,0.0,0.0,-3.4958,-3.6047,-3.7022,-3.7997,-3.9237,-4.0026,-4.017,-4.2002,-4.3381,-4.4171,-4.4592,-4.5421,-4.6681,-4.7058,-4.7787,-4.877,-4.8278,-4.8476,-4.907,-4.8909,-4.8932,-4.9099,-4.9872,0.0,0.0,-4.7897,-4.664,-4.5754,-4.8489,-4.9932,-5.048,-5.0421,-5.1932,-5.4145,-5.5888,-5.82,-6.1026,-6.5222,-6.7916,-7.024,-7.25,-7.2656,-7.1657,-7.0018,-6.6395,-6.2472,-5.9357,-5.6603,-5.4351,-5.3298,-5.4635,-5.7148,-6.1119,-6.3224,-6.6416,-7.1945,-7.2745,-7.3321,-7.4745,-7.5621,-7.6273,-7.6953,-7.7732,-7.811,-7.7868,-7.7411,-7.6673,-7.5492,-7.4801,-7.6521,-8.1081,-8.4666,-8.9358,-9.5404,-9.776,-9.9501,-10.0716,-10.1288,-10.1508,-10.1402,-10.1616,-10.1585,-10.1404,-10.1624,-10.1727,-10.1716,-10.2126,-10.2217,-10.2321,-10.2477,-10.2592,-10.271,-10.2683,-10.2789,-10.2797,0.0,0.0,0.0,0.0,0.0,0.0,0.0,-2.2387,-2.3653,-2.5396,-2.5653,-2.573,-2.5727,-2.6552,-2.7581,0.0,0.0,0.0,0.0,0.0,0.0,-3.4439,-3.5069,-3.5992,-3.7313,-3.8653,-3.9465,-3.9698,0.0,-4.2214,-4.244,-4.2946,-4.3487,-4.412,-4.4704,-4.5296,-4.5929,-4.6327,-4.6722,-4.7137,-4.8143,-4.8617,-4.8732,-4.9554,0.0,0.0,-4.7272,-4.6262,-4.5683,-4.7628,-4.9437,-5.1078,-5.2429,-5.4435,-5.6837,-5.9715,-6.1371,-6.3388,-6.8078,-6.995,-7.1063,-7.2676,-7.1766,-6.9721,-6.6902,-6.3321,-5.9439,-5.5668,-5.3559,-5.2051,-5.0806,-5.2516,-5.4979,-5.7641,-5.9879,-6.3295,-6.8882,-6.9478,-7.0247,-7.3138,-7.39,-7.4331,-7.497,-7.6295,-7.6866,-7.6529,-7.6579,-7.6107,-7.4635,-7.624,-7.9215,-8.3898,-8.8572,-9.3103,-9.7211,-9.8838,-10.0204,-10.1173,-10.1212,-10.1289,-10.1514,-10.1514,-10.1514,-10.1475,-10.1577,-10.1804,-10.1995,-10.2195,-10.2401,-10.2516,-10.2607,-10.2577,-10.2698,-10.2698,-10.2685,-10.2816,0.0,0.0,0.0,0.0,0.0,0.0,0.0,-2.3413,-2.4962,-2.7687,-2.8673,-2.905,-2.8709,-2.8902,-2.9304,0.0,0.0,0.0,0.0,0.0,0.0,0.0,0.0,0.0,-3.6738,0.0,0.0,-3.9698,-4.1051,0.0,0.0,0.0,0.0,0.0,-4.3594,-4.4048,-4.4371,-4.5273,-4.5833,0.0,0.0,-4.8397,-4.8682,0.0,0.0,0.0,0.0,-4.6112,-4.5754,-4.6711,-4.8222,-5.0198,-5.304,-5.5944,-5.8924,-6.1884,-6.3548,-6.5415,-6.9659,-7.1097,-7.1611,-7.2294,-7.0558,-6.7725,-6.3928,-6.0432,-5.674,-5.2419,-5.1012,-5.0175,-4.873,-5.0079,-5.2185,-5.4309,-5.6235,-5.9587,-6.5646,-6.598,-6.7152,-7.1199,-7.1736,-7.2111,-7.2892,-7.4895,-7.6007,-7.5801,-7.7078,-7.7165,-7.5532,-7.8792,-8.266,-8.6892,-9.1799,-9.5773,-9.8668,-9.9733,-10.0716,-10.1581,-10.1011,-10.0973,-10.1581,-10.1516,-10.1514,-10.1683,-10.1812,-10.2007,-10.23,-10.2303,-10.2498,-10.2601,-10.2601,-10.2601,-10.2601,-10.2712,-10.2694,-10.2796,0.0,0.0,0.0,0.0,0.0,0.0,0.0,-2.488,-2.7334,-3.0496,-3.1299,-3.1918,-3.2764,-3.1541,-3.0648,0.0,0.0,0.0,0.0,0.0,0.0,0.0,0.0,0.0,0.0,0.0,0.0,-3.9698,-4.127,0.0,0.0,0.0,0.0,0.0,0.0,-4.3823,-4.4333,-4.4515,0.0,0.0,0.0,0.0,0.0,0.0,0.0,0.0,0.0,-4.5694,-4.4956,-4.716,-4.7485,-4.7505,-5.0308,-5.4982,-5.9661,-6.0266,-6.3256,-6.6762,-6.8711,-7.0028,-7.0859,-7.0752,-6.8189,-6.4984,-6.2116,-5.7369,-5.3026,-5.1189,-4.9295,-4.7958,-4.8025,-4.8067,-4.9328,-5.3359,-5.4429,-5.7444,-6.4737,-6.532,-6.633,-6.967,-7.0075,-7.0461,-7.1973,-7.4286,-7.6409,-7.8154,-8.0801,-8.1187,-7.8684,-8.1535,-8.569,-9.0682,-9.4227,-9.7305,-10.001,-10.0413,-10.0923,-10.1289,-10.0885,-10.0885,-10.1289,-10.1585,-10.1688,-10.1716,-10.2113,-10.2317,-10.2321,-10.2495,-10.2585,-10.2601,-10.2601,-10.2601,-10.2601,-10.2601,-10.2698,-10.2789,0.0,0.0,0.0,0.0,0.0,0.0,-2.3436,-2.4909,-2.7227,-3.1111,-3.2332,-3.3629,-3.5692,-3.4505,-3.3245,-3.2458,0.0,0.0,0.0,0.0,0.0,0.0,0.0,0.0,0.0,0.0,-4.0043,-4.0422,-4.156,0.0,0.0,0.0,0.0,0.0,0.0,-4.414,-4.4449,-4.505,0.0,0.0,0.0,0.0,0.0,0.0,0.0,0.0,0.0,0.0,-4.3009,-4.4474,-4.5109,-4.5565,-4.7147,-5.1597,-5.6824,-5.9768,-6.1922,-6.4355,-6.8529,-6.9436,-6.9174,-6.9093,-6.6106,-6.2501,-6.0105,-5.5355,-5.1105,-4.9679,-4.7692,-4.6167,-4.6347,-4.6504,-4.7458,-5.0137,-5.0996,-5.3189,-5.8767,-5.8796,-5.9995,-6.4595,-6.5231,-6.6672,-6.9992,-7.3695,-7.7562,-8.1994,-8.4537,-8.5898,-8.6052,-8.7089,-8.9738,-9.4111,-9.6638,-9.887,-10.0808,-10.0536,-10.0703,-10.1327,-10.0589,-10.0798,-10.1473,-10.1727,-10.1804,-10.2126,-10.2195,-10.2401,-10.2477,-10.2624,-10.2513,-10.2401,-10.2607,-10.2513,-10.2401,-10.2607,-10.2698,-10.2789,0.0,0.0,0.0,0.0,0.0,-2.0787,-2.3305,-2.4876,-2.7309,-3.1386,-3.2973,-3.4739,-3.7459,-3.6307,-3.5272,-3.5006,-3.4697,0.0,0.0,0.0,0.0,0.0,0.0,0.0,0.0,0.0,-4.0516,-4.1336,-4.2097,-4.2608,0.0,0.0,-4.3679,-4.3721,0.0,0.0,0.0,0.0,0.0,0.0,0.0,0.0,0.0,0.0,0.0,0.0,0.0,0.0,0.0,0.0,0.0,-4.4289,-4.5075,-4.8178,-5.2404,-5.7339,-6.0008,-6.2427,-6.6723,-6.7608,-6.7225,-6.7213,-6.4188,-6.0612,-5.8214,-5.3669,-4.9666,-4.8616,-4.6514,-4.5061,-4.5624,-4.5723,-4.6359,-4.7934,-4.896,-5.0969,-5.4916,-5.4818,-5.6086,-6.1087,-6.1678,-6.3677,-6.9112,-7.5347,-8.0899,-8.5779,-8.8371,-9.0432,-9.22,-9.2529,-9.3969,-9.6779,-9.8612,-10.009,-10.1327,-10.0581,-10.0581,-10.1327,-10.0716,-10.0774,-10.1683,-10.1804,-10.1995,-10.23,-10.209,-10.2205,-10.2601,-10.2289,-10.2318,-10.2382,-10.2491,-10.2495,-10.2382,-10.2491,-10.2698,-10.2789,0.0,0.0,0.0,0.0,0.0,0.0,-2.252,-2.5213,-2.8274,-3.1809,-3.3466,-3.5221,-3.7801,-3.65,-3.6262,-3.846,-3.7015,0.0,0.0,0.0,0.0,0.0,0.0,0.0,0.0,0.0,-4.1418,-4.245,-4.3014,-4.3688,-4.4492,-4.4455,-4.4402,-4.4266,0.0,0.0,0.0,0.0,0.0,0.0,0.0,0.0,-4.7381,0.0,0.0,0.0,0.0,0.0,0.0,0.0,0.0,0.0,0.0,-4.5264,-4.6589,-5.2127,-5.7442,-6.1698,-6.2613,-6.3962,-6.4988,-6.5076,-6.2755,-5.9512,-5.6319,-5.208,-4.8572,-4.7998,-4.593,-4.468,-4.6293,-4.6076,-4.6114,-4.7631,-4.9377,-5.1717,-5.5064,-5.5528,-5.6868,-6.0565,-6.0148,-6.2371,-6.9531,-7.9957,-8.6991,-8.9096,-9.2328,-9.4674,-9.5784,-9.7487,-9.8411,-9.8471,-9.9923,-10.0923,-10.1327,-10.0923,-10.0923,-10.1289,-10.1096,-10.121,-10.1716,-10.2099,-10.23,-10.2321,-10.1678,-10.1899,-10.2484,-10.1705,-10.1899,-10.2601,-10.2601,-10.2601,-10.2601,-10.2601,-10.2698,-10.2789,0.0,0.0,0.0,0.0,0.0,0.0,0.0,-2.4718,-2.744,-2.9888,-3.2356,-3.4841,-3.7461,-3.6366,-3.6451,-3.9163,-3.7519,0.0,0.0,0.0,0.0,0.0,0.0,0.0,0.0,-4.125,-4.2358,-4.3302,-4.4729,-4.5675,-4.6139,-4.6644,-4.6275,-4.5126,-4.5207,-4.4936,0.0,0.0,0.0,0.0,0.0,-4.8116,-4.8305,0.0,0.0,0.0,0.0,0.0,0.0,0.0,0.0,0.0,0.0,0.0,0.0,-4.7758,-5.127,-5.5084,-5.6702,-5.8059,-5.8905,-5.8089,-5.6869,-5.5393,-5.3335,-5.0594,-4.8298,-4.7671,-4.5982,-4.4941,-4.5968,-4.5699,-4.6554,-5.0262,-5.0988,-5.2058,-5.5005,-5.6745,-5.8855,-6.2057,-6.8451,-7.4747,-8.0378,-8.5511,-8.9722,-9.2794,-9.5086,-9.6548,-9.6842,-9.8392,-9.9346,-9.96,-10.0589,-10.117,-10.1289,-10.0978,-10.1096,-10.1585,-10.1392,-10.1618,-10.2099,-10.2217,-10.209,-10.1678,-10.2117,-10.2094,-10.1782,-10.2094,-10.2318,-10.2382,-10.2491,-10.2513,-10.2401,-10.2491,-10.2698,-10.2789,0.0,0.0,0.0,0.0,0.0,0.0,0.0,-2.4674,-2.7083,-2.9053,-3.1545,-3.4249,-3.7084,-3.6213,-3.6659,-3.9811,-3.8396,0.0,0.0,0.0,0.0,0.0,0.0,0.0,-4.1263,-4.1801,-4.3462,-4.6167,-4.7404,-4.841,-4.9159,-5.0294,-4.9197,-4.6396,-4.6577,-4.5881,0.0,0.0,0.0,0.0,-4.7727,-4.8475,-4.8816,0.0,0.0,0.0,0.0,0.0,0.0,0.0,0.0,0.0,0.0,0.0,0.0,0.0,-4.7441,-4.995,-5.2188,-5.3951,-5.5008,-5.4233,-5.3787,-5.3053,-5.1371,-4.9213,-4.7601,-4.7437,-4.5878,-4.4941,-4.632,-4.6207,-4.712,-5.0668,-5.1211,-5.234,-5.5516,-5.7871,-6.1103,-6.5981,-7.4475,-8.1653,-8.6019,-8.9288,-9.2437,-9.5804,-9.7062,-9.7739,-9.7964,-9.912,-9.991,-10.0101,-10.0716,-10.1016,-10.0789,-10.0712,-10.0709,-10.0717,-10.0697,-10.0894,-10.1289,-10.139,-10.1309,-10.0886,-10.1081,-10.1081,0.0,-10.151,-10.1812,-10.2012,-10.2413,-10.2513,-10.2401,-10.2607,-10.2698,-10.2789,0.0,0.0,0.0,0.0,0.0,0.0,0.0,-2.5063,-2.7286,-2.9029,-3.1151,-3.3547,-3.6419,-3.596,-3.6821,-4.0303,0.0,0.0,0.0,0.0,0.0,0.0,0.0,0.0,-4.2496,-4.2115,-4.4657,-5.0222,-5.0648,-5.1636,-5.3118,-5.48,-5.2895,-4.8189,-4.8347,-4.7249,-4.5361,-4.6238,-4.6732,-4.7065,-4.8215,-4.8847,0.0,0.0,0.0,0.0,0.0,0.0,0.0,0.0,0.0,0.0,0.0,0.0,0.0,0.0,0.0,0.0,0.0,-5.1289,-5.2854,-5.2793,-5.2524,-5.1848,-5.0069,-4.7981,0.0,-4.7275,-4.5691,-4.487,-4.7141,-4.7378,-4.7877,-4.9665,-5.0652,-5.266,-5.6737,-5.9572,-6.417,-7.2267,-7.8844,-8.4152,-8.7609,-9.1542,-9.5064,-9.7817,-9.8272,-9.8572,-9.8907,-9.9661,-10.0088,-10.0101,-10.0404,-10.0382,-10.0096,-10.0096,-9.9743,-9.9095,-9.9327,-9.9537,-9.9734,-9.9964,-10.0107,-9.9951,-9.9211,-9.9328,-9.999,-10.0107,-10.0691,-10.151,-10.2289,-10.2601,-10.2601,-10.2601,-10.2581,-10.2711,0.0,0.0,0.0,0.0,0.0,0.0,0.0,0.0,0.0,0.0,-3.1244,-3.3079,-3.4105,-3.4925,-3.6412,0.0,0.0,0.0,0.0,0.0,0.0,0.0,0.0,0.0,-4.2802,-4.3474,-4.5645,-4.9341,-5.1577,-5.338,-5.4763,-5.6407,-5.4875,-5.0729,-5.0629,-4.8855,-4.5978,-4.6462,-4.7068,-4.7691,-4.8197,-4.8752,0.0,0.0,0.0,0.0,-4.5726,-4.5207,0.0,0.0,0.0,0.0,0.0,0.0,0.0,0.0,-4.5286,-4.5841,-4.6088,0.0,-4.7694,-4.6861,-4.7232,-4.7593,0.0,-4.7012,-4.7078,-4.7173,-4.7045,-4.7309,-4.8597,-4.8199,-4.9158,-5.3542,-5.3585,-5.4733,-5.9243,-6.6539,-7.3993,-8.0776,-8.5827,-8.9838,-9.2897,-9.482,-9.6609,-9.847,-9.925,-9.9312,-9.8404,-9.9177,-9.979,-10.0101,-9.9553,-9.9555,-10.0203,-9.9617,-9.9326,-9.9319,-9.9614,-9.9751,-9.9793,-10.0003,-9.9756,-9.9133,-9.96,-9.9522,-9.9211,-10.0497,-10.1198,-10.151,-10.2289,-10.2601,-10.2601,-10.2712,-10.2304,-10.1813,0.0,0.0,0.0,0.0,0.0,0.0,0.0,0.0,0.0,0.0,0.0,0.0,0.0,0.0,0.0,0.0,0.0,0.0,0.0,0.0,0.0,0.0,-4.1831,-4.2097,-4.3058,-4.3606,-4.5982,-5.0305,-5.2238,-5.4408,-5.6888,-5.7823,-5.6181,-5.2382,-5.0306,-4.8271,-4.6376,-4.701,-4.7604,-4.8235,-4.8649,0.0,0.0,0.0,0.0,0.0,-4.6035,-4.5511,0.0,-4.5967,-4.6473,-4.6684,0.0,0.0,0.0,0.0,-4.5561,-4.5765,-4.5657,-4.6286,-4.6816,-4.6225,-4.6618,-4.7141,-4.7158,-4.7095,-4.7065,-4.7564,-4.7709,-4.8152,-4.9419,-4.9413,-5.0382,-5.4058,-5.4871,-5.7496,-6.4724,-7.2294,-7.9434,-8.5775,-8.9153,-9.2257,-9.5606,-9.6079,-9.6855,-9.8669,-9.9067,-9.8867,-9.7969,-9.8713,-9.9084,-9.8959,-9.8268,-9.85,-9.9695,-9.8811,-9.829,-9.8215,-9.8362,-9.8542,-9.8606,-9.8796,-9.8665,-9.8236,-9.8704,-9.8626,-9.8353,-10.0107,-10.0808,-10.0886,-10.1705,-10.1993,-10.1997,-10.1606,-10.1514,-10.1488,0.0,0.0,0.0,0.0,0.0,0.0,0.0,0.0,0.0,0.0,0.0,0.0,0.0,0.0,0.0,0.0,0.0,0.0,0.0,0.0,0.0,0.0,-4.178,-4.2282,-4.3622,-4.3558,-4.6182,-5.1678,-5.3004,-5.5391,-5.8735,-5.9495,-5.7698,-5.3662,-4.9671,-4.7499,-4.6876,-4.7778,-4.8356,-4.8748,-4.9235,0.0,0.0,0.0,0.0,0.0,0.0,0.0,0.0,-4.6649,-4.6742,-4.6441,-4.7539,0.0,0.0,0.0,0.0,0.0,-4.6604,-4.7466,-4.8194,-4.7664,-4.7828,-4.8186,-4.8332,-4.7578,-4.7056,-4.8148,-4.8243,-4.8606,-5.0243,-5.0946,-5.1999,-5.4156,-5.6715,-6.1729,-7.119,-7.7015,-8.253,-8.8398,-9.0654,-9.311,-9.665,-9.6341,-9.6626,-9.8404,-9.8274,-9.7884,-9.7349,-9.8098,-9.8212,-9.7627,-9.7165,-9.7516,-9.8807,-9.7822,-9.7119,-9.6764,-9.6809,-9.694,-9.7143,-9.736,-9.7465,-9.7465,-9.7496,-9.7496,-9.7613,-9.925,-9.9912,-9.999,-10.0886,-10.1203,-10.1111,-10.042,-10.0595,-10.1312,0.0,0.0,0.0,0.0,0.0,0.0,0.0,0.0,0.0,0.0,0.0,0.0,0.0,0.0,0.0,0.0,0.0,0.0,0.0,0.0,0.0,-4.1311,-4.1788,-4.3038,-4.5223,-4.4922,-4.668,-5.0675,-5.4644,-5.7297,-5.8772,-6.2048,-6.06,-5.5184,-5.2665,-5.038,-4.8412,-4.899,-4.937,-4.9542,-4.9599,0.0,0.0,0.0,0.0,0.0,0.0,0.0,0.0,-4.4264,-4.5527,-4.7214,-4.6408,0.0,0.0,0.0,0.0,0.0,-4.8364,-4.962,-4.9872,-4.7077,-4.7183,-4.7841,-4.7486,-4.7749,-4.8241,-4.8655,-4.9688,-5.0966,-5.2424,-5.3583,-5.5403,-5.8555,-6.3992,-6.9849,-7.5835,-8.0728,-8.5101,-8.9061,-9.1883,-9.4366,-9.6343,-9.6668,-9.6963,-9.7235,-9.7494,-9.7186,-9.6128,-9.6847,-9.7385,-9.7589,-9.7165,-9.7247,-9.7997,-9.7013,-9.6512,-9.6558,-9.6615,-9.6676,-9.6706,-9.7099,-9.7246,-9.7246,-9.741,-9.7496,-9.7574,-9.8587,-9.9016,-9.9094,-9.9951,-10.0306,-10.0292,-10.0187,-10.0311,-10.0609,0.0,0.0,0.0,0.0,0.0,0.0,0.0,0.0,0.0,0.0,0.0,0.0,0.0,0.0,0.0,0.0,0.0,0.0,0.0,-4.0109,-4.136,-4.2826,-4.3278,-4.3839,-4.4657,-4.6244,-4.8703,-5.1991,-5.5642,-5.8557,-6.0932,-6.0508,-5.8215,-5.4354,-5.1599,-4.9787,-4.8748,-4.934,-4.9665,-4.9803,0.0,0.0,0.0,0.0,0.0,0.0,0.0,0.0,0.0,0.0,-4.5914,-4.72,-4.7099,0.0,0.0,0.0,0.0,0.0,-4.7264,-4.8518,-4.9304,-4.7767,-4.8635,-4.9718,-4.9289,-4.9114,-4.9175,-4.9263,-5.0393,-5.1733,-5.2922,-5.5277,-5.9074,-6.5412,-7.0494,-7.5256,-7.973,-8.3345,-8.682,-9.0265,-9.243,-9.4211,-9.5582,-9.5837,-9.6005,-9.6005,-9.6387,-9.6299,-9.5464,-9.6185,-9.6615,-9.6578,-9.6584,-9.6713,-9.701,-9.6517,-9.6397,-9.6492,-9.659,-9.6481,-9.627,-9.6926,-9.7065,-9.6881,-9.7338,-9.7496,-9.7574,-9.8431,-9.8782,-9.8821,-9.9254,-9.9422,-9.9524,-10.0093,-10.0616,-10.1091,0.0,0.0,0.0,0.0,0.0,0.0,0.0,0.0,0.0,0.0,0.0,0.0,0.0,0.0,0.0,0.0,0.0,0.0,0.0,-4.028,-4.2071,-4.3715,-4.4779,-4.553,-4.5927,-4.8448,-5.1298,-5.4543,-5.7462,-6.0371,-6.313,-5.9601,-5.6463,-5.3681,-5.0823,-4.9303,-4.8885,-4.9461,-4.9857,-5.0049,0.0,0.0,0.0,0.0,0.0,0.0,0.0,0.0,0.0,0.0,0.0,0.0,0.0,0.0,0.0,-4.7581,-4.6813,-4.6484,-4.65,-4.767,-4.8782,-4.8627,-4.9825,-5.1121,-5.1462,-5.0894,-5.0527,-5.1396,-5.2369,-5.328,-5.4262,-5.8099,-6.376,-7.1775,-7.6112,-7.9785,-8.3547,-8.6185,-8.882,-9.1655,-9.3061,-9.416,-9.4991,-9.5115,-9.5067,-9.4969,-9.5272,-9.5347,-9.5007,-9.5638,-9.5905,-9.5734,-9.6098,-9.6288,-9.6288,-9.6288,-9.6361,-9.6463,-9.6492,-9.6386,-9.6094,-9.6824,-9.6959,-9.6721,-9.7264,-9.7496,-9.7535,-9.8236,-9.8509,-9.8524,-9.8513,-9.8695,-9.9061,-10.0193,-10.1015,-10.1718,0.0,0.0,0.0,0.0,0.0,0.0,0.0,0.0,0.0,0.0,0.0,0.0,0.0,0.0,0.0,0.0,0.0,0.0,0.0,-4.022,-4.1077,-4.2112,-4.5262,-4.8604,-5.2019,-5.2278,-5.4318,-5.8237,-6.1419,-6.3468,-6.4421,-6.2288,-5.8944,-5.4745,-5.2913,-5.1042,-4.9271,-4.9579,-5.0024,-5.051,-5.0291,0.0,0.0,0.0,0.0,0.0,0.0,0.0,0.0,0.0,0.0,0.0,0.0,0.0,-4.8277,-4.8068,-4.7508,-4.7195,-4.8243,-4.9068,-4.9491,-4.8926,-4.9219,-5.0358,-5.3247,-5.295,-5.295,-5.6443,-5.7047,-5.7281,-5.8256,-6.3741,-6.9992,-7.5538,-8.018,-8.4199,-8.7715,-8.993,-9.173,-9.3112,-9.4274,-9.4991,-9.5115,-9.5115,-9.4969,-9.4576,-9.4545,-9.4583,-9.4561,-9.4958,-9.5333,-9.5696,-9.6098,-9.6288,-9.6288,-9.6288,-9.6288,-9.6288,-9.6325,-9.6288,-9.6325,-9.6696,-9.6915,-9.6915,-9.7303,-9.7496,-9.7496,-9.7574,-9.7574,-9.7589,-9.7655,-9.8205,-9.9203,-10.0897,-10.1482,-10.1508,0.0,0.0,0.0,0.0,0.0,0.0,0.0,0.0,0.0,0.0,0.0,-3.4086,-3.4448,-3.6333,-3.7559,0.0,0.0,0.0,-3.9686,-4.1077,-4.2668,-4.4376,-4.6821,-4.9848,-5.3469,-5.5305,-5.7796,-6.1136,-6.3147,-6.3852,-6.3342,-6.0347,-5.7375,-5.4473,-5.2515,-5.1338,-5.083,-5.053,-5.1052,-5.1984,-5.0679,-4.9378,0.0,0.0,0.0,0.0,0.0,0.0,0.0,0.0,-4.3495,-4.5144,-4.522,-4.6734,-4.8315,-4.7024,-4.6576,-4.6336,-4.5924,-4.734,-4.8688,-4.8214,-4.901,-5.0643,-5.2925,-5.3824,-5.5017,-5.8117,-6.0178,-6.1987,-6.3937,-6.8786,-7.3842,-7.785,-8.2388,-8.6686,-9.0291,-9.1571,-9.2808,-9.4285,-9.4592,-9.4769,-9.4769,-9.4545,-9.4366,-9.4199,-9.3893,-9.3856,-9.4035,-9.4456,-9.4849,-9.5252,-9.5944,-9.6288,-9.6288,-9.6058,-9.59,-9.59,-9.6213,-9.6175,-9.5941,-9.6607,-9.6771,-9.657,-9.7227,-9.7496,-9.7496,-9.7496,-9.7525,-9.7616,-9.8213,-9.9004,-9.9882,-10.0505,-10.1085,-10.1386,0.0,0.0,0.0,0.0,0.0,0.0,0.0,0.0,0.0,0.0,0.0,0.0,0.0,-3.7148,-3.8545,0.0,0.0,0.0,-4.0112,-4.1523,-4.3081,-4.4669,-4.7026,-4.9888,-5.3263,-5.6227,-5.9295,-6.2476,-6.404,-6.3811,-6.1681,-5.8947,-5.6831,-5.5212,-5.2957,-5.227,-5.2799,-5.1581,-5.1651,-5.2349,-5.0596,-4.9191,0.0,0.0,0.0,0.0,0.0,0.0,0.0,0.0,-4.2535,-4.4236,-4.4406,-4.592,-4.7374,-4.6496,-4.6336,-4.6102,-4.4867,-4.6192,-4.7916,-4.7684,-4.8966,-5.1059,-5.3813,-5.5811,-5.7956,-6.1329,-6.3517,-6.5757,-6.8713,-7.2004,-7.5544,-7.957,-8.3994,-8.8041,-9.1405,-9.2319,-9.3089,-9.435,-9.4424,-9.4308,-9.418,-9.3969,-9.383,-9.383,-9.3464,-9.3453,-9.3773,-9.3955,-9.4213,-9.4595,-9.5172,-9.5443,-9.5291,-9.5054,-9.4849,-9.4763,-9.5404,-9.5751,-9.5785,-9.6568,-9.6759,-9.6616,-9.7246,-9.7496,-9.7496,-9.7496,-9.7708,-9.8109,-9.9034,-9.9762,-10.031,-10.0616,-10.0791,-10.0781,0.0,0.0,0.0,0.0,0.0,0.0,0.0,0.0,-3.0103,-3.1531,-3.3729,0.0,0.0,0.0,0.0,0.0,-4.0857,0.0,-4.0918,-4.1351,-4.1713,-4.2009,-4.5593,-4.8875,-5.1622,-5.4772,-5.8217,-6.1841,-6.4387,-6.3591,-5.9608,-5.8878,-5.8065,-5.717,-5.4669,-5.4164,-5.5135,-5.2701,-5.163,-5.1415,-5.0033,-4.8799,-4.7566,0.0,0.0,0.0,0.0,0.0,0.0,0.0,-4.1799,-4.2109,-4.5123,-4.5557,-4.523,-4.6758,-4.7128,-4.6836,-4.5631,-4.6291,-4.7365,-4.7555,-4.8966,-5.1599,-5.6342,-5.9106,-6.1937,-6.6795,-6.7435,-6.8314,-7.2122,-7.3139,-7.5202,-8.0822,-8.5058,-8.8492,-9.105,-9.207,-9.2765,-9.3236,-9.3707,-9.3856,-9.3451,-9.3389,-9.3389,-9.3389,-9.3314,-9.3415,-9.3735,-9.3421,-9.3369,-9.3672,-9.3672,-9.3524,-9.3169,-9.3169,-9.2962,-9.2611,-9.3808,-9.4982,-9.6017,-9.6619,-9.6989,-9.7206,-9.741,-9.7496,-9.7496,-9.7496,-9.8057,-9.897,-9.9937,-10.0312,-10.0414,-10.1195,-10.0812,-9.9669,0.0,0.0,0.0,0.0,0.0,0.0,0.0,0.0,-3.1068,-3.2074,-3.3889,0.0,0.0,0.0,0.0,0.0,0.0,-4.122,-4.0918,-4.1547,-4.2265,-4.3136,-4.5166,-4.6822,-4.8018,-5.0076,-5.3687,-5.8834,-5.9771,-5.8828,-5.6294,-5.7782,-5.7188,-5.4892,-5.5986,-5.5809,-5.4618,-5.3043,-5.294,-5.367,-5.1764,-5.014,-4.8807,0.0,0.0,0.0,0.0,0.0,0.0,0.0,0.0,0.0,-4.294,-4.4721,-4.6304,-4.5923,-4.6189,-4.616,-4.4616,-4.5837,-4.7645,-4.8349,-5.1285,-5.4961,-5.875,-6.0642,-6.3675,-7.1557,-7.3807,-7.4439,-7.4506,-7.7119,-7.9642,-8.099,-8.5044,-8.8876,-9.1399,-9.1712,-9.1985,-9.2857,-9.2296,-9.218,-9.2997,-9.2741,-9.2615,-9.2897,-9.2844,-9.2708,-9.2504,-9.2641,-9.2753,-9.2864,-9.3179,-9.333,-9.3169,-9.2688,-9.2353,-9.2254,-9.3028,-9.3983,-9.5209,-9.6387,-9.6989,-9.7206,-9.741,-9.7496,-9.7511,-9.7561,-9.7745,-9.814,-9.9058,-9.9374,-9.9395,-9.9454,-9.9241,-9.8722,0.0,0.0,0.0,0.0,0.0,0.0,-2.727,-2.9492,-3.1453,-3.267,-3.4409,-3.5901,0.0,0.0,0.0,-4.0726,-4.1076,-4.122,-4.0918,-4.1561,-4.2327,-4.2984,-4.4262,-4.5321,-4.602,-4.7575,-4.9684,-5.2425,-5.4582,-5.4932,-5.3579,-5.6812,-5.7767,-5.6852,-5.9052,-5.8915,-5.6828,-5.5212,-5.442,-5.4148,-5.269,-5.1457,-5.0296,0.0,0.0,0.0,0.0,0.0,0.0,0.0,0.0,0.0,-4.1493,-4.3252,-4.5109,-4.4919,-4.5341,-4.5591,-4.4808,-4.6008,-4.8052,-5.0438,-5.3138,-5.662,-6.2478,-6.5324,-6.8774,-7.6275,-7.7591,-7.7619,-7.7997,-7.9912,-8.1771,-8.2786,-8.6062,-8.9019,-9.0759,-9.0932,-9.1104,-9.1527,-9.0975,-9.0934,-9.1639,-9.1631,-9.1633,-9.1996,-9.209,-9.2017,-9.1903,-9.195,-9.1979,-9.1979,-9.2104,-9.2095,-9.2007,-9.1415,-9.1104,-9.1104,-9.1985,-9.2949,-9.3957,-9.5713,-9.6793,-9.7342,-9.7496,-9.7539,-9.7552,-9.7628,-9.7862,-9.827,-9.8789,-9.8976,-9.8944,-9.8669,-9.8251,-9.7748,0.0,0.0,-2.0918,-2.2688,0.0,-2.6371,-2.7792,-2.9667,-3.1544,-3.331,-3.5154,-3.6861,0.0,0.0,0.0,-4.156,-4.1401,-4.1174,-4.0871,-4.1561,-4.196,-4.2078,-4.3271,-4.4322,-4.5094,-4.6234,-4.5984,-4.4308,-4.9276,-5.1566,-5.1207,-5.59,-5.9029,-6.0916,-6.2705,-6.2279,-6.0041,-5.7859,-5.5584,-5.3437,-5.3065,-5.254,-5.182,-4.9795,0.0,0.0,0.0,0.0,0.0,0.0,0.0,0.0,-4.0793,-4.1693,-4.2655,-4.3975,-4.4637,-4.5087,-4.5674,-4.6717,-4.8702,-5.3302,-5.5113,-5.8211,-6.7089,-7.1722,-7.5522,-8.0304,-7.949,-7.883,-8.1883,-8.1814,-8.2335,-8.5309,-8.7483,-8.8965,-8.9364,-8.9861,-9.0005,-8.9691,-8.9702,-8.9787,-8.9861,-9.0184,-9.0417,-9.0734,-9.0979,-9.1261,-9.16,-9.122,-9.1018,-9.1095,-9.0685,-9.0322,-9.0091,-8.9703,-8.9541,-8.9629,-9.0961,-9.191,-9.2557,-9.4878,-9.6467,-9.7496,-9.7577,-9.76,-9.7622,-9.7662,-9.8188,-9.8898,-9.8863,-9.8833,-9.8713,-9.8431,-9.773,-9.6837,0.0,0.0,-2.1777,-2.3771,0.0,0.0,-2.9204,-3.0941,-3.2461,-3.3675,-3.5614,-3.7285,-3.8372,-4.0178,0.0,-4.13,-4.1071,-4.0836,-4.0631,-4.1302,-4.1953,-4.2501,-4.3427,-4.3844,-4.3737,-4.2576,-4.1678,-4.1005,-4.6039,-4.8431,-4.8362,-5.4685,-5.7704,-5.7931,-6.0598,-6.0058,-5.6965,-5.4651,-5.3452,-5.3157,-5.2994,-5.2666,-5.2058,-4.9856,-4.7868,0.0,0.0,0.0,0.0,0.0,0.0,0.0,-4.1594,-4.2527,-4.3104,-4.3195,-4.4085,-4.5122,-4.5463,-4.7573,-5.0684,-5.4961,-6.076,-6.6685,-7.1446,-7.4744,-7.7377,-7.9761,-8.097,-8.1788,-8.2312,-8.3413,-8.434,-8.4808,-8.7133,-8.8729,-8.8254,-8.8888,-8.9254,-8.8933,-8.8376,-8.8273,-8.8938,-8.8952,-8.8954,-8.8885,-8.9444,-8.9686,-8.9412,-8.929,-8.9517,-9.0171,-8.9529,-8.9495,-9.0091,-8.9452,-8.9318,-8.9591,-9.0488,-9.1467,-9.2557,-9.4878,-9.6467,-9.7496,-9.7577,-9.7583,-9.7628,-9.7667,-9.7806,-9.7968,-9.7963,-9.7838,-9.7604,-9.7362,-9.6979,-9.6645,0.0,0.0,0.0,0.0,0.0,0.0,0.0,0.0,-3.3377,-3.4533,-3.6365,-3.802,-3.921,-4.0431,0.0,0.0,-4.0693,-4.0402,-4.0485,-4.1359,-4.2238,-4.3069,-4.3608,-4.3267,-4.2015,-4.0878,-4.0191,-4.0011,-4.2427,-4.4527,-4.6211,-5.2052,-5.544,-5.6905,-5.9641,-5.9017,-5.5798,-5.4758,-5.3936,-5.3361,-5.3508,-5.3139,-5.2199,-5.0368,-4.7922,-4.5241,-4.2955,0.0,0.0,0.0,0.0,0.0,0.0,0.0,-4.1987,-4.2234,-4.2839,-4.3915,-4.5959,-4.8317,-5.1656,-5.7903,-6.5048,-7.1208,-7.3596,-7.6256,-7.8701,-8.0378,-8.151,-8.2285,-8.247,-8.3776,-8.4795,-8.4609,-8.6581,-8.7961,-8.7585,-8.8014,-8.8158,-8.76,-8.707,-8.6841,-8.7164,-8.7332,-8.7485,-8.7931,-8.8485,-8.873,-8.8709,-8.8709,-8.8902,-8.9325,-8.8606,-8.8645,-8.9482,-8.8948,-8.9074,-8.9849,-9.0569,-9.1697,-9.3115,-9.4718,-9.5953,-9.6887,-9.6948,-9.7229,-9.7604,-9.7684,-9.7695,-9.7691,-9.7672,-9.7524,-9.7286,-9.6988,-9.6771,-9.6552,0.0,0.0,0.0,0.0,0.0,0.0,0.0,0.0,0.0,-3.5673,-3.7301,-3.8757,-4.0034,-4.0802,-4.1209,0.0,0.0,0.0,-4.0436,-4.1388,-4.249,-4.3522,-4.367,-4.2815,-4.0832,-4.02,-3.9899,-3.9829,-3.9511,-4.102,-4.4462,-4.9091,-5.2925,-5.606,-5.8201,-5.7647,-5.5153,-5.5077,-5.4275,-5.3139,-5.3564,-5.3025,-5.1811,-5.0304,-4.7571,-4.4272,-4.2367,-4.07,-3.94,-3.897,0.0,0.0,0.0,0.0,-4.0855,-4.1318,-4.1771,-4.2904,-4.6344,-4.9396,-5.35,-6.1374,-6.821,-7.3282,-7.4517,-7.6963,-7.9389,-8.0944,-8.1452,-8.1839,-8.2385,-8.3422,-8.4173,-8.4228,-8.5654,-8.6772,-8.6713,-8.6957,-8.6832,-8.6103,-8.5832,-8.566,-8.5499,-8.5826,-8.6354,-8.7176,-8.754,-8.7923,-8.8248,-8.8248,-8.8325,-8.8479,-8.7727,-8.7769,-8.8607,-8.8388,-8.8853,-8.9952,-9.0884,-9.2099,-9.3482,-9.4159,-9.503,-9.6005,-9.6197,-9.6706,-9.7415,-9.7615,-9.7691,-9.7676,-9.7643,-9.746,-9.7207,-9.6989,-9.6764,-9.6525,0.0,0.0,0.0,0.0,0.0,0.0,0.0,0.0,0.0,0.0,-3.8184,-3.9321,-4.0118,-4.0802,-4.1117,-4.0965,-4.0631,-4.0337,-4.0188,0.0,0.0,-4.3706,-4.3233,-4.2706,-4.2171,-4.0436,-3.9443,-3.91,-3.8769,-3.9967,-4.2669,-4.7342,-5.0939,-5.3494,-5.3936,-5.4028,-5.3692,-5.1438,-5.0666,-5.0996,-5.0965,-5.0708,-5.0071,-4.7797,-4.5607,-4.3406,-4.0759,-3.9204,-3.8443,-3.8793,-3.9057,0.0,0.0,0.0,-4.1759,-4.0886,-4.2119,-4.4087,-4.5388,-5.1737,-5.9226,-6.454,-6.937,-7.3244,-7.5258,-7.7096,-7.8586,-7.9642,-8.0874,-8.1879,-8.2089,-8.2309,-8.2463,-8.2676,-8.3843,-8.4703,-8.4398,-8.4975,-8.5263,-8.4889,-8.5087,-8.5127,-8.4928,-8.5474,-8.5873,-8.5896,-8.6194,-8.6406,-8.644,-8.644,-8.6786,-8.7555,-8.6849,-8.6894,-8.7731,-8.8122,-8.8653,-8.934,-9.1113,-9.219,-9.2586,-9.269,-9.361,-9.521,-9.598,-9.6406,-9.6626,-9.7381,-9.7684,-9.7676,-9.7611,-9.7325,-9.6949,-9.6902,-9.6645,-9.6325,0.0,0.0,0.0,0.0,0.0,0.0,0.0,0.0,0.0,0.0,0.0,-3.9895,-4.0334,-4.0741,-4.0965,-4.068,-4.0003,-3.9548,-3.9589,-4.0249,-4.1016,-4.1776,-4.1588,-4.1119,-4.0535,-3.9271,-3.8951,-3.956,-3.8152,-3.9182,-4.2299,-4.3198,-4.5747,-4.9683,-5.0188,-5.0488,-5.0571,-4.9744,-4.963,-5.006,-4.9529,-4.8967,-4.817,-4.5676,-4.3347,-4.1183,-3.8702,-3.749,-3.7049,-3.7619,-3.7805,-3.8179,-3.9668,0.0,0.0,0.0,-4.2077,-4.4341,-4.8874,-5.511,-6.1559,-6.6534,-7.0236,-7.3261,-7.5696,-7.7192,-7.8325,-7.9387,-8.0262,-8.0847,-8.0719,-8.0914,-8.1091,-8.1019,-8.2384,-8.3436,-8.325,-8.3724,-8.4175,-8.4175,-8.4077,-8.4216,-8.4632,-8.509,-8.554,-8.5887,-8.6026,-8.6094,-8.6094,-8.6094,-8.6286,-8.6671,-8.597,-8.6018,-8.6856,-8.7141,-8.8148,-8.9964,-9.1378,-9.1949,-9.1664,-9.166,-9.2607,-9.4284,-9.4715,-9.5172,-9.5731,-9.6598,-9.693,-9.6953,-9.7436,-9.7316,-9.6888,-9.6915,-9.6645,-9.6288,0.0,0.0,0.0,0.0,0.0,0.0,0.0,0.0,0.0,0.0,0.0,-4.0319,-4.0485,0.0,0.0,0.0,-3.9382,-3.8907,-3.9088,-3.9455,-3.9812,-4.0043,-4.0084,-3.9656,-3.8746,-3.8247,-3.8433,-3.9365,-3.7618,-3.8555,-4.1966,-4.0238,-4.1853,-4.6073,-4.6862,-4.7531,-4.8212,-4.8487,-4.8837,-4.9143,-4.8279,-4.7251,-4.5942,-4.386,-4.1582,-3.9361,-3.7204,-3.6166,-3.5873,-3.6497,-3.6849,-3.7338,-3.911,-3.9991,0.0,0.0,0.0,-4.4984,-5.1392,-5.6578,-6.1291,-6.5868,-6.9481,-7.2541,-7.537,-7.687,-7.8027,-7.9208,-7.9652,-7.9658,-7.9425,-7.9876,-8.0155,-7.9813,-8.1037,-8.1981,-8.1981,-8.2242,-8.261,-8.2892,-8.2771,-8.3051,-8.3861,-8.4344,-8.4825,-8.5406,-8.567,-8.5786,-8.5786,-8.5978,-8.6094,-8.6094,-8.5513,-8.5499,-8.6147,-8.6464,-8.7979,-9.0586,-9.1199,-9.1373,-9.1086,-9.0901,-9.1622,-9.3092,-9.3332,-9.3856,-9.4564,-9.5617,-9.6178,-9.6379,-9.6953,-9.7051,-9.6889,-9.6837,-9.6583,-9.6288,0.0,0.0,0.0,0.0,0.0,0.0,0.0,0.0,0.0,0.0,0.0,-4.0485,-4.0485,-4.0104,-3.9817,-3.9817,-3.9222,-3.8821,-3.8799,-3.9055,-3.9242,-3.9275,-3.9402,0.0,-3.806,-3.7997,-3.7872,-3.7617,-3.7181,-3.8264,-4.0774,-4.0438,-4.1315,-4.3198,-4.4006,-4.5741,-4.7838,-4.7275,-4.7369,-4.7803,-4.6882,-4.5248,-4.3284,-4.2365,-4.074,-3.8837,-3.6825,-3.5748,-3.5293,-3.5854,-3.688,-3.7952,-3.8765,-4.0437,-4.2113,0.0,0.0,0.0,-5.0541,-5.4049,-5.7633,-6.1328,-6.6128,-7.0734,-7.3614,-7.5727,-7.7436,-7.8829,-7.8966,-7.876,-7.876,-7.9374,-7.9807,-7.9484,-7.9718,-7.9974,-7.9974,-7.9947,-8.0073,-8.0345,-8.0898,-8.157,-8.2203,-8.2832,-8.3364,-8.3708,-8.4516,-8.4978,-8.4978,-8.5709,-8.6094,-8.6094,-8.5777,-8.559,-8.5628,-8.6846,-8.8585,-9.0772,-9.0213,-9.0314,-9.1086,-9.0313,-9.0442,-9.1366,-9.2218,-9.2611,-9.2851,-9.4504,-9.5606,-9.6293,-9.607,-9.6361,-9.6863,-9.6706,-9.6459,-9.6288,0.0,0.0,0.0,0.0,0.0,0.0,0.0,0.0,-3.6152,0.0,0.0,0.0,0.0,-3.961,-3.961,-3.9222,-3.8678,-3.823,-3.7976,-3.788,-3.7888,-3.8098,-3.796,-3.7746,-3.7374,-3.7374,-3.7219,-3.6979,-3.5583,-3.6362,-3.9137,-3.7075,-3.7869,-4.087,-4.2454,-4.4174,-4.568,-4.5319,-4.5072,-4.4963,-4.4504,-4.3167,-4.1138,-3.9188,-3.7896,-3.6883,-3.5098,-3.4705,-3.5285,-3.6811,-3.7593,-3.8489,-4.0948,-4.1891,-4.2462,-4.4415,-4.6045,-4.7854,-5.1356,-5.3541,-5.5911,-6.0408,-6.4195,-6.7619,-7.0506,-7.3697,-7.6198,-7.7078,-7.7872,-7.8404,-7.8404,-7.848,-7.8498,-7.8401,-7.8749,-7.9029,-7.9029,-7.9179,-7.957,-8.0385,-8.0802,-8.1385,-8.2309,-8.3027,-8.3456,-8.3593,-8.3901,-8.4324,-8.4863,-8.517,-8.5555,-8.6094,-8.5777,-8.5664,-8.5804,-8.6932,-8.8029,-8.9158,-8.9611,-8.972,-8.9493,-8.9197,-8.9254,-8.9648,-9.0507,-9.1518,-9.2673,-9.4402,-9.5239,-9.5543,-9.6386,-9.6788,-9.6863,-9.6676,-9.6459,-9.6288,0.0,0.0,0.0,-3.0598,0.0,-3.1597,-3.2007,-3.3712,-3.5308,-3.6303,0.0,0.0,0.0,0.0,-3.8974,-3.8399,-3.8059,-3.7743,-3.7361,-3.7121,-3.7121,-3.7301,-3.6999,-3.6877,-3.6999,-3.6971,-3.6718,-3.616,-3.499,-3.5386,-3.7169,-3.5403,-3.6218,-3.9114,-4.0292,-4.1959,-4.3969,-4.397,-4.3457,-4.2598,-4.2509,-4.1033,-3.8837,-3.7281,-3.6335,-3.5685,-3.482,-3.4858,-3.5729,-3.783,-3.8783,-3.9592,-4.2558,-4.3444,-4.3913,-4.6542,-4.7557,-4.8474,-5.1381,-5.2811,-5.466,-5.9376,-6.1875,-6.4368,-6.883,-7.1671,-7.3902,-7.5805,-7.6973,-7.7737,-7.7997,-7.79,-7.782,-7.782,-7.7965,-7.8185,-7.8185,-7.8454,-7.8898,-7.9743,-8.0203,-8.0819,-8.1676,-8.2368,-8.2747,-8.2747,-8.3016,-8.3401,-8.4016,-8.4593,-8.5286,-8.6055,-8.5884,-8.5877,-8.6152,-8.6904,-8.7607,-8.8344,-8.8806,-8.886,-8.8607,-8.8317,-8.8515,-8.9135,-8.9755,-9.0798,-9.2228,-9.3934,-9.4801,-9.512,-9.6235,-9.678,-9.6863,-9.6583,-9.6429,-9.6288,-2.8708,-2.9168,-2.9594,-3.0021,-3.0205,-3.0893,-3.2609,-3.3336,-3.4541,-3.6938,0.0,0.0,0.0,0.0,0.0,-3.7662,-3.7543,-3.7392,-3.6999,-3.6999,-3.6938,-3.6999,-3.6693,-3.6631,-3.6938,-3.6963,-3.6351,-3.5044,-3.5449,-3.5432,-3.5034,-3.5641,-3.661,-3.7864,-3.7355,-3.9217,-4.2859,-4.3197,-4.2481,-4.1019,-4.0859,-3.8912,-3.6188,-3.702,-3.6472,-3.5395,-3.6009,-3.6378,-3.6939,-3.9033,-4.0351,-4.1498,-4.3395,-4.5077,-4.6596,-4.8223,-4.8452,-4.8607,0.0,0.0,0.0,-5.7736,-5.8934,-6.1063,-6.8517,-6.9651,-7.042,-7.497,-7.6179,-7.6675,-7.7525,-7.771,-7.7747,-7.7747,-7.7487,-7.7304,-7.7304,-7.7643,-7.79,-7.8202,-7.9037,-7.9756,-8.0081,-8.072,-8.1093,-8.1093,-8.1823,-8.2285,-8.2285,-8.3939,-8.5247,-8.6055,-8.6055,-8.6238,-8.6693,-8.6693,-8.7312,-8.855,-8.7692,-8.7726,-8.8515,-8.7695,-8.8273,-8.9913,-9.0017,-9.0533,-9.1467,-9.3159,-9.4285,-9.503,-9.5489,-9.6153,-9.6837,-9.6463,-9.6288,-9.6288,-2.8623,-2.8909,-2.9204,-2.9351,-2.9923,-3.063,-3.139,-3.2611,-3.3933,0.0,0.0,0.0,-3.8262,-3.9076,-3.9688,-3.9891,-3.9086,-3.8091,-3.7062,-3.6569,-3.6352,-3.6631,-3.6289,-3.6163,-3.6289,-3.5868,-3.5119,-3.4177,-3.3578,-3.3438,-3.3701,-3.3645,-3.4443,-3.604,-3.6277,-3.6767,-3.7402,-3.8006,-3.8238,-3.8173,-3.704,-3.5824,-3.4629,-3.4129,-3.4094,-3.4544,-3.5012,-3.6508,-3.854,-4.1443,-4.313,-4.4406,-4.6289,-4.7539,-4.8479,-4.8939,-4.9373,-4.9959,-5.0783,0.0,0.0,0.0,0.0,0.0,-6.0629,-6.2803,-6.5307,-6.9041,-7.0697,-7.2197,-7.4642,-7.5604,-7.6195,-7.6823,-7.7356,-7.7547,-7.7304,-7.7783,-7.822,-7.8521,-7.9403,-8.0121,-8.043,-8.086,-8.1093,-8.1093,-8.1323,-8.1708,-8.2285,-8.3362,-8.4362,-8.5209,-8.4928,-8.5427,-8.6693,-8.6468,-8.6765,-8.7653,-8.7407,-8.7447,-8.7656,-8.8072,-8.888,-9.0017,-9.065,-9.1423,-9.23,-9.4044,-9.4742,-9.4833,-9.6058,-9.6588,-9.6645,-9.6394,-9.6288,-9.6288,-2.7917,-2.8518,-2.9007,-2.8986,-2.9889,-3.073,-3.1089,-3.2302,-3.3725,0.0,0.0,0.0,-3.9185,-4.0599,-4.1276,-4.0951,-4.0055,-3.9029,-3.7834,-3.7093,-3.6693,-3.6693,-3.6383,-3.6381,-3.656,-3.5949,-3.5221,-3.4196,-3.3635,-3.3239,-3.2858,-3.2435,-3.3219,-3.4914,-3.4598,-3.4641,-3.4803,-3.3956,-3.3998,-3.4461,-3.4674,-3.3823,-3.2706,-3.305,-3.3673,-3.4561,-3.5817,-3.7938,-4.0721,-4.4192,-4.6634,-4.832,-4.8576,-4.9275,-4.9881,-4.9552,-4.9998,-5.0575,-5.0892,-5.1313,-5.2035,-5.3723,0.0,0.0,-5.8718,-6.0383,-6.2352,-6.6463,-6.8509,-7.0312,-7.2778,-7.403,-7.4846,-7.542,-7.6087,-7.6528,-7.6778,-7.7583,-7.818,-7.819,-7.9349,-8.0238,-8.0578,-8.0893,-8.1093,-8.1093,-8.1093,-8.1439,-8.2247,-8.2785,-8.3439,-8.4324,-8.432,-8.4901,-8.615,-8.6197,-8.6553,-8.7291,-8.7284,-8.75,-8.7841,-8.8363,-8.9294,-9.0521,-9.1028,-9.1721,-9.2639,-9.4266,-9.4793,-9.4737,-9.6305,-9.6793,-9.659,-9.6358,-9.6288,-9.6288,0.0,-2.8045,-2.889,-2.8982,-3.0024,-3.0985,-3.1477,-3.2388,-3.3975,0.0,-3.7623,-3.9055,-4.1519,-4.2762,-4.2867,-4.1526,-4.0761,-3.9863,-3.8702,-3.7884,-3.7266,-3.6938,-3.6754,-3.6816,-3.7244,-3.6682,-3.581,-3.4654,-3.4611,-3.3903,-3.2599,-3.2053,-3.2749,-3.4338,-3.2808,-3.2857,-3.386,-3.1132,-3.0058,-3.0443,-3.2783,-3.2501,-3.0754,-3.3161,-3.4341,-3.5001,-3.7484,-4.0268,-4.3203,-4.7318,-5.051,-5.2507,-5.0754,-5.072,-5.1208,-5.018,-5.0463,-5.1092,-5.1049,-5.1613,-5.274,-5.5179,-5.4499,0.0,-5.9799,-6.0053,-6.0526,-6.516,-6.7358,-6.8989,-7.0833,-7.2149,-7.3006,-7.3258,-7.3865,-7.4663,-7.5786,-7.7197,-7.7974,-7.7617,-7.9091,-8.0277,-8.065,-8.0926,-8.1093,-8.1093,-8.1093,-8.14,-8.2131,-8.217,-8.2554,-8.3368,-8.3898,-8.4561,-8.5351,-8.5924,-8.6573,-8.7297,-8.7301,-8.7727,-8.8461,-8.8657,-8.9594,-9.1084,-9.124,-9.1787,-9.2592,-9.4081,-9.4638,-9.4695,-9.6281,-9.6764,-9.6558,-9.6397,-9.6288,-9.6288,-2.7432,-2.7945,-2.8647,-2.93,-3.0246,-3.1329,-3.2302,-3.3274,-3.5147,-3.8492,-4.1337,-4.393,-4.6447,-4.5639,-4.4616,-4.4019,-4.1967,-3.9944,-3.8247,-3.7002,-3.6414,-3.6631,-3.6554,-3.6451,-3.6283,-3.5948,-3.5205,-3.3996,-3.3579,-3.3493,-3.364,-3.2654,-3.3138,-3.4889,-3.2804,-3.1953,-3.1978,-2.9728,-2.8193,-2.7454,-2.9384,-2.9629,-2.9342,-3.2216,-3.368,-3.4571,-3.8586,-4.1828,-4.5167,-5.1143,-5.3819,-5.4651,-5.4093,-5.3832,-5.3307,-5.123,-5.1931,-5.3174,-5.1881,-5.2524,-5.3683,-5.3988,-5.5244,0.0,-5.5562,-5.6169,-5.7339,-5.8994,-6.0249,-6.1934,-6.4735,-6.703,-6.8383,-6.8129,-7.0434,-7.2927,-7.4867,-7.6587,-7.7692,-7.7852,-7.947,-8.065,-8.0959,-8.1061,-8.1093,-8.1093,-8.1093,-8.117,-8.1323,-8.1323,-8.1574,-8.2138,-8.2947,-8.3845,-8.4997,-8.5797,-8.6571,-8.7288,-8.7304,-8.7401,-8.7603,-8.9008,-8.9846,-9.0295,-9.1662,-9.2351,-9.2592,-9.4081,-9.4562,-9.4511,-9.6039,-9.6525,-9.6361,-9.6325,-9.6288,-9.6288,-2.7171,-2.8596,-2.9857,-2.9762,-3.0901,-3.2202,-3.3433,-3.4913,-3.7077,-4.0293,-4.3942,-4.6452,-4.7056,-4.6743,-4.5857,-4.4397,-4.2284,-4.0635,-3.9518,-3.8134,-3.7385,-3.7298,-3.7187,-3.7029,-3.6784,-3.5659,-3.4842,-3.434,-3.3437,-3.3294,-3.3952,-3.2826,-3.3602,-3.5767,-3.3383,-3.2352,-3.2203,-2.953,-2.7577,-2.648,-2.7993,-2.8793,-2.9495,-3.2285,-3.4693,-3.7103,-4.0263,-4.5203,-5.0572,-5.3406,-5.5651,-5.6944,-5.5449,-5.4771,-5.4262,-5.2876,-5.3185,-5.3715,-5.2515,-5.3081,-5.408,-5.4287,-5.5051,0.0,0.0,-5.5346,-5.6291,-5.8226,-5.8829,-5.9869,-6.2785,-6.3904,-6.451,-6.4964,-6.7185,-6.9466,-7.1268,-7.4592,-7.7051,-7.7521,-7.898,-8.026,-8.1023,-8.1093,-8.1093,-8.1093,-8.1093,-8.1093,-8.1093,-8.0926,-8.0946,-8.1188,-8.1954,-8.2995,-8.4276,-8.5264,-8.6285,-8.7301,-8.7294,-8.7537,-8.7993,-8.9281,-9.0159,-9.0728,-9.1965,-9.2502,-9.2592,-9.3973,-9.4412,-9.446,-9.598,-9.6459,-9.6288,-9.6288,-9.6288,-9.6288,-2.7143,-2.9053,-3.0636,-3.0131,-3.1291,-3.2828,-3.4304,-3.6331,-3.8929,-4.235,-4.589,-4.7749,-4.6692,-4.7064,-4.6547,-4.4278,-4.2483,-4.1332,-4.1156,-3.9664,-3.8642,-3.8078,-3.7821,-3.7499,-3.706,-3.5575,-3.4749,-3.4713,-3.3673,-3.3406,-3.3952,-3.2976,-3.3723,-3.5891,-3.37,-3.2726,-3.2451,-2.9284,-2.7516,-2.6892,-2.7419,-2.8277,-2.9452,-3.2574,-3.5889,-3.9299,-4.2661,-4.8996,-5.559,-5.5222,-5.6906,-5.8742,-5.6501,-5.5538,-5.5222,-5.4634,-5.4459,-5.4227,-5.3258,-5.3874,-5.4826,-5.5073,-5.5348,-5.5652,0.0,0.0,0.0,-5.872,-5.8896,-5.9395,-6.1691,-6.1456,-6.1251,-6.2153,-6.4076,-6.5885,-6.7086,-7.1824,-7.5539,-7.6596,-7.8141,-7.9599,-8.0715,-8.0708,-8.0746,-8.1054,-8.0785,-8.0746,-8.1093,-8.086,-8.0685,-8.0646,-8.1368,-8.2417,-8.3723,-8.4838,-8.6033,-8.7304,-8.7308,-8.7674,-8.8383,-8.9437,-9.032,-9.1083,-9.2072,-9.2482,-9.2585,-9.3824,-9.4317,-9.446,-9.5958,-9.6463,-9.6288,-9.6288,-9.6288,-9.6288,-2.7934,-2.8585,-2.9369,-2.9954,-3.0827,-3.2071,-3.4232,-3.6235,-3.9565,-4.5156,-4.7352,-4.8337,-4.8253,-4.7479,-4.6519,-4.5271,-4.2988,-4.1718,-4.1883,-4.0065,-3.8686,-3.8059,-3.7501,-3.6656,-3.5413,-3.5532,-3.4996,-3.3927,-3.3859,-3.394,-3.414,-3.2922,-3.293,-3.3754,-3.2639,-3.1589,-3.0536,-2.7955,-2.7562,-2.8464,-2.6988,-2.6643,-2.7564,-3.239,-3.5314,-3.7791,-4.6128,-5.2215,-5.6488,-5.7604,-5.8477,-5.9031,-5.868,-5.8077,-5.7399,-5.6171,-5.591,-5.5851,-5.4599,-5.6005,-5.7413,-5.518,-5.785,-6.0013,-5.6028,0.0,-5.7886,-5.6571,0.0,-5.7816,-5.8275,0.0,0.0,-5.7937,-6.1032,-6.3678,-6.4134,-6.8399,-7.2351,-7.4745,-7.7134,-7.8946,-7.9862,-7.9246,-7.9438,-8.0977,-7.9669,-7.9477,-8.1016,-8.1061,-8.0984,-8.076,-8.1887,-8.2941,-8.3951,-8.5136,-8.6276,-8.7294,-8.7315,-8.733,-8.7486,-8.9164,-8.9978,-9.0234,-9.1804,-9.2482,-9.2631,-9.3973,-9.4474,-9.4434,-9.5803,-9.6325,-9.6288,-9.6288,-9.6288,-9.6288,-2.6801,-2.8186,-2.9432,-2.9536,-3.0433,-3.2018,-3.4687,-3.8514,-4.2474,-4.6113,-4.7631,-4.8337,-4.8299,-4.7275,-4.6306,-4.5634,-4.3686,-4.2401,-4.2164,-4.0798,-3.9502,-3.8433,-3.7836,-3.6951,-3.5783,-3.4792,-3.414,-3.3827,-3.2799,-3.2523,-3.3172,-3.2768,-3.3014,-3.3766,-3.314,-3.2414,-3.1521,-2.8572,-2.7806,-2.8423,-2.6556,-2.7052,-2.9351,-3.3336,-3.7962,-4.2974,-4.9223,-5.4127,-5.7778,-5.8253,-5.9301,-6.0337,-6.0342,-5.902,-5.7522,-5.7806,-5.7098,-5.6183,-5.5632,-5.6857,-5.8,-5.6433,-5.7809,-5.9098,-5.7198,-5.7137,-5.7724,-5.8592,0.0,0.0,0.0,0.0,0.0,0.0,-5.9669,-6.1969,-6.3156,-6.6746,-7.0518,-7.4061,-7.5156,-7.613,-7.7476,-7.7246,-7.7746,-7.9438,-7.8477,-7.8554,-8.0246,-8.0657,-8.0783,-8.0805,-8.1439,-8.2256,-8.323,-8.4544,-8.5703,-8.6606,-8.7088,-8.7315,-8.7368,-8.9149,-8.995,-9.0078,-9.177,-9.2482,-9.2631,-9.4029,-9.4496,-9.4434,-9.5895,-9.6394,-9.6288,-9.6288,-9.6596,-9.6942,-2.5777,-2.7525,-2.9135,-2.9099,-3.0059,-3.2075,-3.5731,-4.0038,-4.3722,-4.6187,-4.7035,-4.7637,-4.7967,-4.718,-4.657,-4.6483,-4.4812,-4.3656,-4.3327,-4.1794,-4.0329,-3.8886,-3.7841,-3.6778,-3.569,-3.4163,-3.3479,-3.3675,-3.2243,-3.1909,-3.2764,-3.2567,-3.2644,-3.3063,-3.2901,-3.2487,-3.16,-2.9455,-2.9005,-2.9692,-2.7919,-2.9404,-3.31,-3.5851,-4.0969,-4.7315,-5.1232,-5.519,-5.8712,-5.8894,-6.0109,-6.1637,-6.1839,-6.0391,-5.884,-5.9861,-5.8993,-5.765,-5.7,-5.8137,-5.91,-5.7167,-5.7852,-5.8739,-5.8053,-5.8228,-5.9066,-6.0849,-6.0196,0.0,0.0,0.0,-5.732,-5.7819,0.0,-6.098,-6.2816,-6.5334,-6.8441,-7.2422,-7.3253,-7.4053,-7.5515,-7.5245,-7.5745,-7.7669,-7.663,-7.6938,-7.9323,-7.9851,-8.035,-8.0962,-8.1267,-8.1872,-8.2883,-8.4167,-8.5214,-8.6059,-8.687,-8.726,-8.7354,-8.9149,-8.9989,-9.0076,-9.1765,-9.2482,-9.2631,-9.4029,-9.4496,-9.446,-9.598,-9.6459,-9.6326,-9.6557,-9.7019,-9.7403,-2.5294,-2.6505,-2.7941,-2.8969,-2.9862,-3.2225,-3.7734,-3.9632,-4.1693,-4.523,-4.5497,-4.5926,-4.7607,-4.7473,-4.7539,-4.82,-4.6743,-4.5809,-4.5779,-4.3136,-4.0876,-3.9232,-3.7394,-3.5739,-3.4392,-3.3645,-3.3288,-3.3219,-3.28,-3.2856,-3.3376,-3.2301,-3.1245,-3.0397,-3.1086,-3.0732,-2.9515,-3.0223,-3.1816,-3.3788,-3.192,-3.3984,-3.8364,-4.0364,-4.3861,-4.8162,-5.1824,-5.5614,-5.8934,-5.9903,-6.1235,-6.2482,-6.3226,-6.2878,-6.2316,-6.2382,-6.2015,-6.1148,-5.8983,-6.0468,-6.1433,-5.6808,-5.8705,-6.0945,-5.8142,-6.043,-6.3048,-6.2456,-6.3299,-6.3854,-6.278,-6.0884,-5.943,-5.9253,-5.9853,0.0,0.0,-6.3772,-6.5571,-6.8977,-7.1794,-7.3822,-7.4668,-7.3283,-7.336,-7.5899,-7.3783,-7.4168,-7.8323,-7.87,-7.9597,-8.1422,-8.1748,-8.2367,-8.3365,-8.4326,-8.52,-8.6015,-8.6818,-8.7247,-8.7341,-8.9111,-8.993,-9.0103,-9.176,-9.2482,-9.2631,-9.4029,-9.4496,-9.446,-9.598,-9.6459,-9.6403,-9.7173,-9.748,-9.7519,-2.7178,-2.7988,-2.8604,-2.8604,-2.9678,-3.2208,-3.6951,-3.9321,-4.1653,-4.4935,-4.626,-4.7927,-5.0492,-5.0348,-5.0142,-5.0276,-4.8745,-4.6901,-4.5022,-4.328,-4.1423,-3.9284,-3.8006,-3.668,-3.5516,-3.421,-3.3671,-3.3907,-3.2512,-3.2375,-3.3488,-3.253,-3.1942,-3.1716,-3.2274,-3.2338,-3.2119,-3.2489,-3.3738,-3.5566,-3.5768,-3.7465,-4.0262,-4.2496,-4.5628,-4.918,-5.255,-5.5938,-5.9152,-6.1131,-6.2066,-6.2685,-6.441,-6.3833,-6.2465,-6.2504,-6.2815,-6.2795,-6.1579,-6.3524,-6.4982,-6.1233,-6.2043,-6.3206,-6.1245,-6.2704,-6.4471,-6.4264,-6.4882,-6.4948,-6.3317,-6.1686,-6.0635,-6.0713,-6.1205,-6.1894,0.0,-6.3833,-6.5102,-6.683,-6.9844,-7.1668,-7.1437,-7.0898,-7.136,-7.3322,-7.2211,-7.3073,-7.6773,-7.8142,-7.9415,-8.0716,-8.1452,-8.2045,-8.2456,-8.3964,-8.4854,-8.5156,-8.6579,-8.7281,-8.7341,-8.9138,-8.9982,-9.0103,-9.1754,-9.2834,-9.3404,-9.4262,-9.4807,-9.5274,-9.6212,-9.6806,-9.7134,-9.7403,-9.7865,-9.8365,-2.8118,-2.895,-2.9353,-2.8987,-3.0855,-3.3733,-3.7609,-4.0307,-4.2817,-4.5426,-4.7595,-4.9745,-5.1802,-5.1667,-5.142,-5.1172,-4.9647,-4.7318,-4.4068,-4.2944,-4.1137,-3.8266,-3.756,-3.6781,-3.5621,-3.4742,-3.4296,-3.4283,-3.3116,-3.3053,-3.4079,-3.3301,-3.2832,-3.2606,-3.2994,-3.3307,-3.3429,-3.4185,-3.5823,-3.7771,-3.8912,-4.0366,-4.1948,-4.3599,-4.6442,-4.9983,-5.2982,-5.5999,-5.8701,-6.1037,-6.2088,-6.2698,-6.4455,-6.4228,-6.332,-6.3284,-6.4039,-6.4662,-6.3773,-6.5846,-6.7574,-6.4793,-6.5407,-6.6245,-6.4396,-6.5888,-6.7455,-6.6918,-6.7002,-6.6913,-6.6123,-6.3993,-6.2444,-6.2634,-6.2738,-6.2756,0.0,-6.3834,-6.4831,-6.5359,-6.7859,-6.9502,-6.9323,-6.8732,-6.9078,-7.0786,-7.0208,-7.1376,-7.508,-7.707,-7.8818,-8.0378,-8.1689,-8.2273,-8.2054,-8.4151,-8.5049,-8.4735,-8.6451,-8.7281,-8.7341,-8.9132,-8.9982,-9.0103,-9.2105,-9.3263,-9.3873,-9.4638,-9.5204,-9.5662,-9.6274,-9.693,-9.7557,-9.7865,-9.8519,-9.9211,-2.8307,-2.9349,-3.0159,-3.0387,-3.3283,-3.6565,-3.9641,-4.2449,-4.4888,-4.6687,-4.9309,-5.1184,-5.1678,-5.1516,-5.1357,-5.1062,-4.955,-4.7094,-4.3352,-4.221,-4.0083,-3.6386,-3.6333,-3.5843,-3.4917,-3.5164,-3.5095,-3.4444,-3.4513,-3.4796,-3.5253,-3.4632,-3.3806,-3.2981,-3.3323,-3.3435,-3.3484,-3.5645,-3.7975,-4.0434,-4.1489,-4.2497,-4.3333,-4.4034,-4.6762,-5.0525,-5.3155,-5.5607,-5.7995,-5.9831,-6.1386,-6.2638,-6.3424,-6.4203,-6.4768,-6.4654,-6.5778,-6.6812,-6.57,-6.7539,-6.9296,-6.7411,-6.8837,-6.9952,-6.7561,-6.973,-7.1826,-7.0227,-6.9693,-6.9762,-7.066,-6.757,-6.486,-6.4708,-6.422,-6.3456,-6.2411,-6.3669,-6.4694,-6.4691,-6.6038,-6.7397,-6.8381,-6.6896,-6.6627,-6.8366,-6.7772,-6.9123,-7.3253,-7.5443,-7.7719,-8.0293,-8.2323,-8.3008,-8.2184,-8.477,-8.5643,-8.4793,-8.6429,-8.7247,-8.7341,-8.9111,-8.9925,-9.0142,-9.2691,-9.381,-9.3942,-9.5105,-9.5623,-9.5713,-9.6155,-9.6865,-9.775,-9.8557,-9.9404,-9.9981,-2.9766,-3.1888,-3.3865,-3.5133,-3.5992,-3.7562,-4.0629,-4.3133,-4.5653,-4.8211,-5.0903,-5.2858,-5.3438,-5.3139,-5.2553,-5.1299,-4.9665,-4.707,-4.33,-4.24,-4.066,-3.7496,-3.6767,-3.6402,-3.6567,-3.5537,-3.5367,-3.6217,-3.5105,-3.5236,-3.6346,-3.5443,-3.4652,-3.3906,-3.4628,-3.5051,-3.5445,-3.7364,-3.9797,-4.2517,-4.3623,-4.4443,-4.5008,-4.5793,-4.8238,-5.1401,-5.2914,-5.5249,-5.8089,-6.0408,-6.1718,-6.2713,-6.411,-6.4606,-6.4675,-6.4179,-6.5804,-6.7673,-6.7246,-6.9884,-7.2554,-7.1586,-7.22,-7.2632,-7.1573,-7.2902,-7.3938,-7.2635,-7.2548,-7.1988,-6.9798,-6.7673,-6.5908,-6.4855,-6.4543,-6.4321,-6.4132,-6.4417,-6.4894,-6.5558,-6.5465,-6.5658,-6.6592,-6.626,-6.6206,-6.678,-6.725,-6.8859,-7.188,-7.4489,-7.6738,-7.8674,-8.1765,-8.3276,-8.3083,-8.5026,-8.5888,-8.5689,-8.6752,-8.7292,-8.7341,-8.9177,-8.9982,-9.0142,-9.2691,-9.4051,-9.4523,-9.5295,-9.5891,-9.6413,-9.6972,-9.8096,-9.9442,-9.9673,-10.0289,-10.0789,-3.1007,-3.3756,-3.6497,-3.8425,-3.9689,-4.0887,-4.2595,-4.4449,-4.6416,-4.8514,-5.134,-5.277,-5.1852,-5.1802,-5.1214,-4.9513,-4.7702,-4.5078,-4.1351,-4.1018,-3.9454,-3.6161,-3.5907,-3.6156,-3.6828,-3.597,-3.6185,-3.7625,-3.6237,-3.5983,-3.6817,-3.612,-3.5331,-3.4399,-3.5306,-3.5795,-3.6333,-3.9111,-4.1436,-4.3235,-4.4111,-4.5013,0.0,-4.6205,-4.8315,-5.1433,-5.2823,-5.5227,-5.7963,-5.9852,-6.0988,-6.185,-6.3034,-6.3399,-6.3594,-6.4006,-6.5873,-6.7981,-6.8898,-7.1641,-7.4363,-7.4863,-7.5455,-7.5729,-7.4741,-7.5201,-7.5555,-7.4732,-7.4169,-7.3452,-7.2283,-7.0053,-6.7803,-6.5855,-6.5043,-6.4686,-6.471,-6.4686,-6.484,-6.5341,-6.5264,-6.5311,-6.5501,-6.5153,-6.5002,-6.5142,-6.665,-6.8392,-7.0253,-7.4063,-7.6948,-7.8659,-8.2143,-8.4022,-8.4003,-8.5722,-8.6375,-8.6011,-8.6902,-8.7516,-8.7947,-8.9354,-9.0416,-9.1236,-9.3394,-9.4753,-9.5446,-9.5956,-9.6383,-9.6822,-9.7704,-9.8904,-10.0096,-10.0481,-10.0712,-10.0596,-3.2025,-3.5185,-3.8226,-4.0388,-4.2944,-4.4844,-4.5112,-4.6404,-4.7636,-4.8553,-5.1209,-5.1789,-4.8881,-4.8978,-4.8524,-4.6645,-4.5037,-4.2521,-3.8896,-3.9037,-3.7691,-3.4037,-3.4569,-3.5543,-3.6484,-3.6214,-3.6904,-3.8316,-3.7143,-3.6593,-3.6598,-3.6515,-3.577,-3.4612,-3.5561,-3.6209,-3.6721,-4.0626,-4.2612,-4.3138,-4.3866,-4.5055,-4.6301,-4.613,-4.8068,-5.11,-5.284,-5.5338,-5.8004,-5.9032,-5.9972,-6.0764,-6.141,-6.1796,-6.2421,-6.4104,-6.5881,-6.781,-7.0344,-7.2903,-7.5226,-7.7023,-7.8109,-7.8387,-7.7228,-7.6976,-7.6965,-7.6643,-7.5359,-7.4649,-7.5733,-7.2912,-6.9659,-6.74,-6.5935,-6.5187,-6.5422,-6.5303,-6.5211,-6.5268,-6.587,0.0,-6.5159,-6.4406,-6.396,-6.3973,-6.6123,-6.7924,-6.9067,-7.3742,-7.7373,-7.9448,-8.2852,-8.4765,-8.4954,-8.6633,-8.7081,-8.6336,-8.7243,-8.8064,-8.8892,-8.9872,-9.1122,-9.2599,-9.4448,-9.5651,-9.6278,-9.6733,-9.7018,-9.7257,-9.8356,-9.9404,-10.0289,-10.0904,-10.0596,-9.9827,-3.3165,-3.6814,-3.9747,-4.0315,-4.2812,-4.5341,-4.7067,-4.9337,-5.0768,-5.0455,-5.182,-5.1552,-4.8181,-4.7615,-4.6501,-4.4031,-4.3606,-4.2109,-3.8763,-3.8873,-3.7845,-3.5205,-3.4547,-3.4794,-3.5718,-3.4776,-3.5069,-3.6748,-3.5407,-3.4971,-3.5562,-3.5542,-3.5174,-3.4674,-3.5494,-3.6232,-3.7202,-4.0715,-4.2389,-4.2744,-4.4575,-4.5679,-4.6421,-4.7349,-4.9312,-5.171,-5.3611,-5.5738,-5.803,-5.9209,-6.0439,-6.141,-6.1737,-6.222,-6.29,-6.3792,-6.5589,-6.7745,-7.0108,-7.2764,-7.526,-7.7252,-7.8183,-7.8686,-7.8691,-7.8666,-7.8666,-7.8616,-7.7866,-7.6665,-7.4901,-7.1939,-6.9512,-6.8884,-6.7974,-6.7965,-6.972,-6.8668,-6.8026,-6.8781,-6.849,-6.7613,-6.6126,-6.5837,-6.5528,-6.5002,-6.6011,-6.7704,-7.0097,-7.2472,-7.5545,-7.946,-8.2337,-8.4452,-8.5843,-8.76,-8.8368,-8.8181,-8.9066,-8.9631,-8.983,-9.1404,-9.2262,-9.2638,-9.5034,-9.609,-9.6109,-9.6687,-9.7518,-9.8474,-9.8711,-9.975,-10.1019,-10.0481,-9.975,-9.9019,-3.6394,-3.8714,-4.0814,-4.2174,-4.4834,-4.7266,-4.8758,-5.0406,-5.0892,-4.9014,-4.9143,-4.8162,-4.4853,-4.4598,-4.3939,-4.1916,-4.1468,-4.0356,-3.8151,-3.8073,-3.7322,-3.5171,-3.4414,-3.4592,-3.5704,-3.4117,-3.4582,-3.7187,-3.4942,-3.4589,-3.6023,-3.5247,-3.4816,-3.492,-3.5912,-3.6799,-3.7675,-4.0879,-4.2339,-4.2598,-4.4668,-4.6036,-4.6874,-4.7821,-4.9664,-5.196,-5.3875,-5.5959,-5.8123,-5.9307,-6.0178,-6.0709,-6.1217,-6.1898,-6.2585,-6.3626,-6.5543,-6.7914,-7.0123,-7.2302,-7.4492,-7.6802,-7.7734,-7.8289,-7.8954,-7.9116,-7.9116,-7.9116,-7.8778,-7.7764,-7.5286,-7.3037,-7.1444,-7.1014,-6.9993,-6.9796,-7.1453,-7.0502,-6.972,-6.977,-6.988,-6.9159,-6.7097,-6.7384,-6.6811,-6.4714,-6.6205,-6.8008,-6.9782,-7.2385,-7.5819,-8.0133,-8.2458,-8.4607,-8.6744,-8.7604,-8.803,-8.7977,-8.8889,-8.9562,-9.0074,-9.1754,-9.3036,-9.3946,-9.559,-9.6485,-9.6826,-9.7309,-9.8089,-9.9008,-9.9364,-10.0212,-10.1212,-10.0404,-9.9558,-9.875,-3.9184,-4.0355,-4.1928,-4.4449,-4.7084,-4.9202,-4.99,-5.0646,-5.0185,-4.7664,-4.6811,-4.523,-4.2188,-4.2403,-4.2041,-4.0263,-3.99,-3.9001,-3.7322,-3.7348,-3.6603,-3.4831,-3.4418,-3.4512,-3.5211,-3.3658,-3.409,-3.6921,-3.4359,-3.4096,-3.607,-3.4925,-3.4809,-3.5574,-3.6647,-3.7417,-3.8105,-4.0734,-4.2114,-4.2598,-4.4668,-4.6231,-4.7504,-4.8198,-5.0059,-5.2487,-5.4276,-5.629,-5.8365,-5.9265,-5.9771,-6.0198,-6.056,-6.1304,-6.2256,-6.3621,-6.5734,-6.8002,-7.0427,-7.2264,-7.403,-7.6476,-7.7324,-7.7834,-7.8816,-7.9016,-7.9066,-7.9116,-7.8966,-7.8215,-7.6075,-7.4802,-7.3821,-7.3003,-7.2074,-7.1765,-7.2601,-7.2129,-7.1376,-7.0488,-7.0976,-7.0397,-6.7868,-6.8311,-6.7593,-6.4812,-6.6468,-6.8291,-6.977,-7.2266,-7.5798,-8.0492,-8.2225,-8.4256,-8.6823,-8.7411,-8.7685,-8.7682,-8.8739,-8.9682,-9.0585,-9.2297,-9.3874,-9.5395,-9.6217,-9.6889,-9.7472,-9.7736,-9.8341,-9.9139,-9.9632,-10.0289,-10.0981,-10.0211,-9.9362,-9.8477,-3.9436,-4.1432,-4.3615,-4.5923,-4.8222,-4.9884,-5.0203,-5.0334,-4.9956,-4.8735,-4.7453,-4.5761,-4.3362,-4.3008,-4.2065,-3.9521,-3.9814,-3.9214,-3.6954,-3.696,-3.6583,-3.5147,-3.4599,-3.4087,-3.367,-3.2835,-3.2642,-3.342,-3.2405,-3.2581,-3.3857,-3.4099,-3.5234,-3.697,-3.7345,-3.7788,-3.8485,-4.0257,-4.1638,-4.2714,-4.4668,-4.6458,-4.8043,-4.8974,-5.1336,-5.4346,-5.5423,-5.7124,-5.9027,-5.9087,-5.9861,-6.0758,-6.0276,-6.0976,-6.2225,-6.394,-6.5804,-6.8035,-7.1296,-7.3288,-7.4921,-7.6902,-7.757,-7.794,-7.8565,-7.876,-7.8812,-7.9066,-7.8515,-7.7727,-7.6751,-7.6498,-7.5826,-7.3992,-7.4257,-7.4628,-7.4495,-7.4399,-7.3801,-7.2315,-7.2283,-7.1144,-6.8015,-6.7866,-6.7579,-6.6605,-6.6727,-6.8248,-7.1499,-7.1229,-7.366,-7.9609,-8.0742,-8.2459,-8.5026,-8.7381,-8.8592,-8.858,-9.0271,-9.1482,-9.2329,-9.4048,-9.5346,-9.6235,-9.7093,-9.7394,-9.7206,-9.7067,-9.7838,-9.9101,-9.8977,-9.9442,-10.0096,-9.9463,-9.8637,-9.7787,-4.19,-4.3094,-4.4818,-4.7458,-4.9043,-5.0003,-5.034,-5.0301,-4.9494,-4.7299,-4.6114,-4.4791,-4.3037,-4.1953,-4.0669,-3.9138,-3.8942,-3.8379,-3.7024,-3.7339,-3.675,-3.5234,-3.4926,-3.4326,-3.3418,-3.2034,-3.19,-3.3224,-3.1927,-3.2126,-3.4,-3.4241,-3.5178,-3.6874,-3.7218,-3.8338,-3.9928,-4.1217,-4.2536,-4.3954,-4.5754,-4.7332,-4.8771,-4.9631,-5.1783,-5.4683,-5.5987,-5.7481,-5.9093,-5.9485,-5.9894,-6.0213,-5.9999,-6.1383,-6.3209,-6.4509,-6.6644,-6.8946,-7.1251,-7.279,-7.4226,-7.5976,-7.6865,-7.7589,-7.8491,-7.8812,-7.8966,-7.9066,-7.8853,-7.8365,-7.7577,-7.7166,-7.6916,-7.6844,-7.6425,-7.6293,-7.6878,-7.6149,-7.4988,-7.3442,-7.2442,-7.1021,-6.88,-6.8261,-6.791,-6.7594,-6.7073,-6.7824,-7.0347,-7.1091,-7.3511,-7.7999,-8.0507,-8.2734,-8.4726,-8.6875,-8.8201,-8.8697,-8.9953,-9.1203,-9.256,-9.4246,-9.5749,-9.7032,-9.7383,-9.7496,-9.7416,-9.7709,-9.8414,-9.9319,-9.9647,-9.9968,-10.02,-9.9376,-9.8648,-9.7925,-4.4022,-4.4356,-4.544,-4.8809,-4.9428,-4.9627,-5.0184,-4.956,-4.8126,-4.5502,-4.4448,-4.3422,-4.2375,-4.087,-3.9474,-3.8551,-3.8023,-3.7385,-3.6664,-3.6959,-3.6477,-3.4906,-3.4632,-3.3985,-3.3038,-3.1577,-3.1462,-3.2926,-3.1942,-3.2619,-3.4657,-3.5226,-3.5961,-3.6946,-3.7636,-3.9102,-4.112,-4.219,-4.353,-4.502,-4.6527,-4.8058,-4.9508,-5.0605,-5.2795,-5.544,-5.6894,-5.8233,-5.9423,-5.9953,-6.0136,-6.0211,-6.018,-6.1801,-6.387,-6.5434,-6.749,-6.9774,-7.1755,-7.3054,-7.4286,-7.5845,-7.6698,-7.733,-7.8453,-7.8775,-7.8878,-7.9029,-7.9116,-7.8978,-7.8473,-7.8066,-7.804,-7.8561,-7.802,-7.761,-7.7814,-7.6889,-7.5517,-7.3712,-7.2111,-7.0523,-6.8989,-6.8405,-6.8222,-6.8505,-6.8154,-6.8627,-7.0156,-7.1093,-7.3394,-7.741,-8.0347,-8.2812,-8.4726,-8.6796,-8.812,-8.869,-9.0056,-9.1492,-9.2931,-9.4851,-9.6382,-9.7496,-9.7496,-9.7496,-9.752,-9.7966,-9.8613,-9.946,-9.9908,-10.0125,-9.9944,-9.9444,-9.863,-9.7755,-4.5374,-4.4768,-4.5226,-4.9769,-4.9343,-4.8732,-4.9772,-4.7769,-4.5552,-4.3733,-4.2559,-4.1769,-4.1655,-4.0176,-3.8862,-3.791,-3.7188,-3.646,-3.5418,-3.5438,-3.5066,-3.4423,-3.3398,-3.2638,-3.1873,-3.1463,-3.1283,-3.1482,-3.271,-3.3968,-3.5344,-3.7321,-3.8007,-3.7761,-3.8918,-4.0278,-4.1655,-4.2866,-4.424,-4.5573,-4.6702,-4.8288,-5.006,-5.1816,-5.4431,-5.7324,-5.8504,-5.9348,-6.0,-6.0586,-6.0794,-6.0763,-6.0949,-6.2063,-6.3849,-6.6596,-6.8418,-7.0253,-7.3329,-7.4719,-7.5606,-7.7021,-7.7347,-7.7547,-7.8495,-7.8458,-7.8367,-7.8979,-7.9116,-7.9177,-7.9517,-7.9569,-7.922,-7.8173,-7.8738,-7.8568,-7.6531,-7.621,-7.531,-7.3005,-7.1292,-6.9695,-6.8171,-6.8078,-6.8466,-6.9414,-7.0195,-7.1055,-7.1914,-7.1122,-7.3033,-7.832,-8.0069,-8.2182,-8.4753,-8.7369,-8.8646,-8.8618,-9.1233,-9.2889,-9.3777,-9.6317,-9.7496,-9.7496,-9.7496,-9.7496,-9.7481,-9.7305,-9.807,-9.9409,-9.9409,-9.9309,-9.9158,-9.9537,-9.8536,-9.7044,-4.3949,-4.4962,-4.6337,-4.8145,-4.8429,-4.8009,-4.6809,-4.5022,-4.2815,-4.0153,-3.8912,-3.8309,-3.8015,-3.8741,-3.8385,-3.6661,-3.631,-3.5728,-3.4403,-3.4403,-3.3757,-3.2346,-3.2225,-3.1874,-3.1109,-3.1253,-3.1653,-3.2344,-3.3184,-3.4428,-3.609,-3.7325,-3.8342,-3.8942,-3.989,-4.1474,-4.3378,-4.411,-4.5231,-4.6702,-4.8303,-4.9897,-5.1549,-5.2729,-5.5166,-5.8208,-5.8233,-5.9295,-6.0586,-6.069,-6.1379,-6.2189,-6.3004,-6.398,-6.516,-6.7522,-6.9354,-7.1178,-7.3758,-7.5172,-7.6185,-7.7162,-7.7662,-7.8034,-7.8602,-7.8723,-7.8878,-7.9066,-7.9273,-7.9471,-7.9562,-7.9958,-8.0163,-7.9813,-7.978,-7.9143,-7.729,-7.6171,-7.4883,-7.2979,-7.1394,-7.0268,-6.9835,-6.9833,-6.9761,-6.9445,-7.0184,-7.077,-7.1044,-7.3042,-7.4949,-7.6555,-8.0573,-8.3397,-8.4726,-8.7375,-8.8959,-8.9516,-9.1475,-9.3493,-9.5459,-9.6848,-9.7496,-9.7496,-9.7496,-9.7496,-9.7496,-9.741,-9.7927,-9.8792,-9.8792,-9.8745,-9.8697,-9.8836,-9.8486,-9.807,-4.2543,-4.3832,-4.5228,-4.6462,-4.6125,-4.5316,-4.3799,-4.1669,-3.9221,-3.6555,-3.5871,-3.516,-3.42,-3.6294,-3.7016,-3.5154,-3.4369,-3.365,-3.2464,-3.2448,-3.1874,-3.0566,-3.0548,-3.042,-3.0035,-3.095,-3.1781,-3.232,-3.4021,-3.5528,-3.6831,-3.7881,-3.8798,-3.957,-4.1033,-4.2555,-4.4159,-4.5281,-4.6289,-4.723,-4.9059,-5.0804,-5.2323,-5.3685,-5.6156,-5.889,-5.8775,-5.9643,-6.0794,-6.1,-6.1652,-6.2649,-6.4289,-6.548,-6.6772,-6.8811,-7.0632,-7.2555,-7.464,-7.5954,-7.684,-7.77,-7.794,-7.809,-7.8458,-7.8723,-7.8966,-7.9066,-7.9321,-7.9517,-7.9784,-8.0238,-8.0685,-8.0855,-8.0076,-7.9042,-7.7755,-7.5989,-7.436,-7.3013,-7.177,-7.1039,-7.1069,-7.1753,-7.1912,-7.1346,-7.267,-7.3364,-7.3041,-7.4764,-7.636,-7.7589,-8.1808,-8.4719,-8.6171,-8.8154,-8.9729,-9.0882,-9.288,-9.481,-9.6717,-9.7262,-9.7496,-9.7496,-9.7496,-9.7496,-9.7496,-9.7496,-9.7883,-9.8528,-9.8588,-9.8569,-9.8528,-9.8588,-9.849,-9.8435,-4.1051,-4.1611,-4.2726,-4.4648,-4.31,-4.1312,-4.0934,-3.8028,-3.5191,-3.3187,-3.3124,-3.2375,-3.0527,-3.3074,-3.4469,-3.3421,-3.187,-3.053,-2.973,-3.0003,-2.9783,-2.8963,-2.8599,-2.8631,-2.8769,-3.0582,-3.1684,-3.1935,-3.5224,-3.7076,-3.7583,-3.8895,-3.9663,-4.0014,-4.2305,-4.3695,-4.4401,-4.6362,-4.7205,-4.7453,-4.926,-5.0979,-5.2696,-5.4753,-5.7158,-5.9409,-5.9728,-6.0241,-6.0855,-6.141,-6.1853,-6.2516,-6.472,-6.6772,-6.8628,-7.0221,-7.2194,-7.4164,-7.579,-7.6803,-7.7625,-7.8484,-7.8239,-7.79,-7.809,-7.8458,-7.876,-7.9066,-7.9188,-7.9433,-7.9999,-8.043,-8.075,-8.1157,-7.9787,-7.8464,-7.7754,-7.5659,-7.3922,-7.3119,-7.2502,-7.2163,-7.217,-7.3825,-7.4802,-7.4701,-7.6922,-7.7954,-7.7199,-7.6454,-7.7579,-8.0871,-8.3529,-8.6131,-8.8672,-8.9544,-9.0875,-9.2702,-9.5069,-9.6639,-9.7496,-9.7496,-9.7496,-9.7496,-9.7496,-9.7496,-9.7496,-9.7496,-9.7844,-9.8432,-9.8657,-9.8623,-9.8549,-9.8657,-9.853,-9.8401,-3.8925,-4.0917,-4.2501,-4.2485,-4.2208,-4.133,-3.8869,-3.5617,-3.2823,-3.1159,-3.0292,-2.9931,-2.9895,-3.0343,-3.0821,-3.1132,-3.2052,-3.1586,-2.9018,-2.926,-2.8886,-2.7632,-2.7772,-2.8474,-3.0026,-3.1496,-3.3811,-3.6869,-3.7868,-3.8715,-3.9656,-4.0634,-4.1779,-4.312,-4.4368,-4.5465,-4.6412,-4.7307,-4.8232,-4.9285,-5.1417,-5.3266,-5.4781,-5.6495,-5.8238,-5.9698,-5.9348,-5.994,-6.0943,-6.1605,-6.277,-6.4253,-6.6095,-6.8077,-6.9918,-7.0494,-7.234,-7.4384,-7.5842,-7.6803,-7.7625,-7.8484,-7.8404,-7.8034,-7.79,-7.809,-7.8474,-7.909,-7.9349,-7.9713,-8.0392,-8.0855,-8.0945,-8.0376,-7.9559,-7.8297,-7.6242,-7.5541,-7.4728,-7.3335,-7.4184,-7.4907,-7.4959,-7.6523,-7.7259,-7.6489,-7.7536,-7.8408,-7.8792,-7.9897,-8.0903,-8.1851,-8.5107,-8.7457,-8.8672,-9.0169,-9.2061,-9.4355,-9.5601,-9.6639,-9.7496,-9.7496,-9.7496,-9.7496,-9.7496,-9.7496,-9.7496,-9.7496,-9.7598,-9.7722,-9.7793,-9.8182,-9.8657,-9.8026,-9.8763,-9.9991,-3.8166,-4.0814,-4.3044,-4.2359,-4.1681,-4.0358,-3.7657,-3.4383,-3.1763,-3.0156,-2.9313,-2.8943,-2.9488,-2.9928,-3.0095,-2.9987,-3.0583,-3.0106,-2.8063,-2.8324,-2.8265,-2.7601,-2.8224,-2.9389,-3.0954,-3.2923,-3.5413,-3.8508,-3.8998,-3.9752,-4.0728,-4.1845,-4.312,-4.4476,-4.549,-4.6326,-4.7179,-4.7983,-4.8862,-5.0043,-5.2146,-5.4149,-5.5878,-5.7173,-5.8919,-6.0638,-5.9773,-6.0532,-6.1829,-6.2206,-6.3513,-6.5324,-6.6829,-6.9048,-7.117,-7.191,-7.3435,-7.5176,-7.6245,-7.7259,-7.8058,-7.8238,-7.8127,-7.8014,-7.7842,-7.8014,-7.8383,-7.9053,-7.9456,-7.9929,-8.0573,-8.1069,-8.113,-8.0318,-7.9238,-7.7797,-7.5759,-7.5249,-7.4879,-7.4423,-7.5613,-7.6909,-7.8125,-7.9411,-7.9782,-7.8807,-8.0212,-8.0959,-8.0658,-8.2635,-8.383,-8.3999,-8.6591,-8.859,-8.9883,-9.1965,-9.3837,-9.5509,-9.6366,-9.7028,-9.7496,-9.7496,-9.7496,-9.7496,-9.7496,-9.7496,-9.7496,-9.7496,-9.7496,-9.7496,-9.7496,-9.7808,-9.8159,-9.7652,-9.8608,-9.9991,-3.8394,-4.1329,-4.3672,-4.3022,-4.133,-3.9359,-3.7178,-3.414,-3.1547,-3.0225,-2.9322,-2.8837,-2.9107,-2.9932,-3.0201,-2.9425,-2.8694,-2.8051,-2.7275,-2.7912,-2.8334,-2.835,-2.9486,-3.0643,-3.207,-3.4571,-3.6857,-3.9002,-3.973,-4.0621,-4.1627,-4.2903,-4.4037,-4.5037,-4.6013,-4.6753,-4.7305,-4.8335,-4.9418,-5.0395,-5.2418,-5.4595,-5.6678,-5.7664,-5.9567,-6.1598,-6.0524,-6.1334,-6.2856,-6.3201,-6.4351,-6.6072,-6.7843,-7.0058,-7.2279,-7.3663,-7.5014,-7.6138,-7.6844,-7.7936,-7.8681,-7.8085,-7.7968,-7.7968,-7.782,-7.8014,-7.8329,-7.9015,-7.9513,-8.0049,-8.074,-8.1242,-8.1228,-8.0351,-7.8882,-7.7329,-7.582,-7.5143,-7.5092,-7.5915,-7.7067,-7.8672,-8.0976,-8.1943,-8.2188,-8.1633,-8.3426,-8.405,-8.2951,-8.4941,-8.63,-8.6663,-8.8065,-8.9719,-9.1679,-9.3952,-9.5476,-9.621,-9.7067,-9.7496,-9.7496,-9.7496,-9.7496,-9.7496,-9.7496,-9.7496,-9.7496,-9.7496,-9.7496,-9.7496,-9.7496,-9.7574,-9.7691,-9.7691,-9.8491,-9.9603,-4.0021,-4.2281,-4.3566,-4.271,-4.1208,-3.9522,-3.7887,-3.5082,-3.2712,-3.1219,-2.9747,-2.8691,-2.8357,-2.8156,-2.8395,-2.9266,-2.8916,-2.8523,-2.7962,-3.012,-3.0801,-2.9567,-3.0626,-3.2333,-3.4708,-3.6749,-3.8861,-4.1287,-4.0857,-4.1856,-4.4278,-4.4451,-4.5134,-4.6084,-4.6681,-4.7305,-4.7832,-4.8485,-5.0249,-5.262,-5.3763,-5.5791,-5.8326,-5.9225,-6.0213,-6.1065,-6.0849,-6.1747,-6.3207,-6.4784,-6.5929,-6.7412,-7.0367,-7.1836,-7.2862,-7.4872,-7.6138,-7.6882,-7.7207,-7.8346,-7.9279,-7.8935,-7.8781,-7.8633,-7.7968,-7.7842,-7.8109,-7.9,-7.9519,-8.0087,-8.1039,-8.1478,-8.1165,-7.9537,-7.8608,-7.7481,-7.5923,-7.6262,-7.6775,-7.6951,-7.9023,-8.0859,-8.1992,-8.289,-8.3901,-8.5083,-8.4915,-8.5267,-8.6444,-8.6873,-8.7791,-8.9335,-8.9647,-9.0935,-9.3394,-9.4519,-9.5476,-9.621,-9.7067,-9.7496,-9.7496,-9.7496,-9.7496,-9.7496,-9.7496,-9.7496,-9.7496,-9.7496,-9.7496,-9.7496,-9.7496,-9.7964,-9.8587,-9.8587,-9.9425,-10.0495,-4.2059,-4.3861,-4.4651,-4.2861,-4.2326,-4.1353,-3.8627,-3.6436,-3.4434,-3.2484,-3.0995,-2.9607,-2.8819,-2.8567,-2.8679,-2.9282,-2.9887,-3.0238,-2.9986,-3.0741,-3.1461,-3.1896,-3.356,-3.5569,-3.8179,-3.8507,-3.9451,-4.1035,-4.1761,-4.2753,-4.4027,-4.5037,-4.5966,-4.6778,-4.7305,-4.7857,-4.841,-4.9343,-5.1059,-5.3093,-5.4713,-5.6791,-5.9147,-6.0106,-6.1081,-6.1828,-6.1569,-6.2848,-6.4799,-6.5856,-6.7559,-6.9578,-7.1669,-7.3245,-7.4566,-7.6037,-7.6995,-7.7811,-7.8367,-7.9019,-7.9576,-7.985,-7.9749,-7.9579,-7.9422,-7.9502,-7.9866,-8.0641,-8.0963,-8.1277,-8.1937,-8.1934,-8.1387,-8.0107,-7.8841,-7.7648,-7.6517,-7.6755,-7.7273,-7.7812,-7.9726,-8.1719,-8.3515,-8.402,-8.4753,-8.5947,-8.608,-8.6269,-8.665,-8.7509,-8.8619,-8.9961,-9.1326,-9.2829,-9.4441,-9.529,-9.6118,-9.6912,-9.7301,-9.7496,-9.7496,-9.7496,-9.7496,-9.7496,-9.7496,-9.7496,-9.7496,-9.7496,-9.7496,-9.7496,-9.7496,-9.773,-9.8159,-9.8626,-9.8997,-9.9448,-4.3668,-4.5069,-4.5449,-4.3159,-4.3159,-4.2475,-3.9145,-3.7567,-3.586,-3.3322,-3.1982,-3.0734,-2.9138,-2.9075,-2.9202,-2.8995,-3.0323,-3.1354,-3.1844,-3.1384,-3.2087,-3.4289,-3.6301,-3.8291,-4.0322,-3.9583,-3.9735,-4.0647,-4.2385,-4.3373,-4.3654,-4.5674,-4.6853,-4.7154,-4.7807,-4.836,-4.8938,-5.0257,-5.18,-5.3456,-5.5697,-5.7927,-6.0062,-6.0897,-6.1981,-6.3071,-6.2505,-6.3973,-6.6311,-6.7096,-6.9018,-7.1411,-7.2937,-7.4652,-7.6337,-7.6995,-7.7868,-7.8833,-7.9762,-8.0116,-8.0321,-8.0916,-8.0836,-8.0622,-8.0785,-8.1007,-8.1369,-8.2082,-8.2338,-8.2545,-8.269,-8.2411,-8.1815,-8.0766,-7.9308,-7.8124,-7.756,-7.7567,-7.7966,-7.8944,-8.0586,-8.2461,-8.4687,-8.5032,-8.5491,-8.635,-8.6945,-8.7017,-8.6468,-8.7991,-8.9526,-9.0856,-9.2762,-9.4298,-9.5299,-9.5962,-9.6707,-9.7496,-9.7496,-9.7496,-9.7496,-9.7496,-9.7496,-9.7496,-9.7496,-9.7496,-9.7496,-9.7496,-9.7496,-9.7496,-9.7496,-9.7496,-9.7613,-9.847,-9.8647,-9.8634,-4.449,-4.4891,-4.4859,-4.3984,-4.2625,-4.1239,-3.9403,-3.8508,-3.6701,-3.2951,-3.2259,-3.0992,-2.8532,-2.8569,-2.8648,-2.8259,-2.9325,-3.0677,-3.2456,-3.2862,-3.387,-3.5793,-3.7913,-3.9078,-3.9341,-3.921,-3.9997,-4.1678,-4.2578,-4.3575,-4.4693,-4.6811,-4.7556,-4.7179,-4.8234,-4.8736,-4.8964,-5.0665,-5.2516,-5.4497,-5.701,-5.9433,-6.1642,-6.1812,-6.2988,-6.45,-6.3285,-6.4611,-6.7143,-6.8732,-7.003,-7.1584,-7.4545,-7.6352,-7.7422,-7.7673,-7.8722,-8.002,-8.1343,-8.196,-8.222,-8.2239,-8.2015,-8.1677,-8.1251,-8.1169,-8.1369,-8.2082,-8.2872,-8.3268,-8.2767,-8.2876,-8.2475,-8.0844,-7.9881,-7.9299,-7.9286,-7.9353,-7.9746,-8.0703,-8.2344,-8.3789,-8.4804,-8.5625,-8.6445,-8.7343,-8.7461,-8.746,-8.7382,-8.8984,-9.1012,-9.3426,-9.3684,-9.4565,-9.6196,-9.6274,-9.6707,-9.7496,-9.7496,-9.7496,-9.7496,-9.7496,-9.7496,-9.7496,-9.7496,-9.7496,-9.7496,-9.7496,-9.7496,-9.7496,-9.7496,-9.7496,-9.7613,-9.847,-9.9036,-9.9448,-4.5288,-4.4199,-4.3108,-4.2625,-4.1239,-3.9659,-3.8398,-3.715,-3.5381,-3.2492,-3.1322,-3.0227,-2.8979,-2.8598,-2.8567,-2.8851,-2.9936,-3.1264,-3.2897,-3.4106,-3.5762,-3.8202,-3.8877,-4.0105,-4.2214,-4.1298,-4.182,-4.3729,-4.4357,-4.499,-4.5789,-4.7209,-4.7983,-4.8159,-4.8586,-4.9216,-5.0053,-5.1675,-5.3619,-5.5704,-5.8399,-6.0475,-6.1963,-6.3255,-6.3954,-6.4361,-6.4744,-6.6292,-6.8299,-6.9583,-7.1625,-7.384,-7.5836,-7.7523,-7.8998,-8.0302,-8.1047,-8.1642,-8.2384,-8.2631,-8.2735,-8.3059,-8.3042,-8.293,-8.2998,-8.3138,-8.3455,-8.3905,-8.4352,-8.453,-8.434,-8.4117,-8.3524,-8.232,-8.1463,-8.0995,-8.108,-8.1126,-8.1519,-8.2499,-8.3672,-8.4765,-8.5625,-8.6015,-8.6562,-8.7422,-8.75,-8.7734,-8.8203,-9.039,-9.2533,-9.4552,-9.5073,-9.5629,-9.6213,-9.6759,-9.7213,-9.7496,-9.7496,-9.7496,-9.7496,-9.7496,-9.7496,-9.7496,-9.7496,-9.7496,-9.7496,-9.7496,-9.7496,-9.7535,-9.8081,-9.8314,-9.8455,-9.9695,-9.9824,-9.9576,-4.444,-4.311,-4.2012,-4.2061,-4.0898,-3.9272,-3.7377,-3.5916,-3.4089,-3.1077,-3.0009,-2.9234,-2.8707,-2.8547,-2.8707,-2.8866,-3.068,-3.2168,-3.3092,-3.5126,-3.7094,-3.9014,-3.9451,-4.0846,-4.352,-4.2578,-4.2936,-4.4937,-4.5669,-4.6202,-4.6397,-4.7755,-4.8636,-4.9038,-4.9292,-5.0155,-5.1713,-5.3386,-5.5388,-5.7569,-6.0685,-6.2286,-6.2948,-6.4764,-6.5259,-6.5307,-6.6353,-6.7918,-6.9642,-7.0689,-7.3015,-7.5548,-7.6625,-7.8309,-8.0265,-8.2184,-8.2593,-8.2445,-8.2861,-8.2985,-8.311,-8.3508,-8.3546,-8.3602,-8.4139,-8.4427,-8.4734,-8.5197,-8.5517,-8.5643,-8.5423,-8.507,-8.4534,-8.3641,-8.3058,-8.2737,-8.2874,-8.2933,-8.3178,-8.3905,-8.4765,-8.5547,-8.6133,-8.6445,-8.6875,-8.7461,-8.7734,-8.8359,-8.9453,-9.1211,-9.308,-9.5059,-9.5645,-9.6149,-9.66,-9.7184,-9.7496,-9.7496,-9.7496,-9.7496,-9.7496,-9.7496,-9.7496,-9.7496,-9.7496,-9.7496,-9.7496,-9.7496,-9.7496,-9.7574,-9.847,-9.8782,-9.8961,-10.0106,-10.0322,-10.0003,-4.1703,-4.1533,-4.1834,-4.2874,-4.1971,-3.9956,-3.6495,-3.5271,-3.3225,-2.8537,-2.8299,-2.8228,-2.71,-2.866,-2.9393,-2.8274,-3.1313,-3.3092,-3.2701,-3.6073,-3.8109,-3.8109,-3.9473,-4.102,-4.2532,-4.2685,-4.3433,-4.496,-4.6544,-4.706,-4.6421,-4.8551,-4.959,-4.959,-5.0334,-5.1791,-5.3933,-5.5909,-5.7814,-5.9997,-6.3819,-6.5095,-6.4949,-6.6304,-6.7258,-6.7866,-6.8027,-6.9308,-7.0995,-7.2186,-7.4239,-7.6335,-7.6805,-7.8674,-8.1083,-8.3004,-8.3041,-8.2482,-8.2658,-8.318,-8.3602,-8.3602,-8.3338,-8.3358,-8.4405,-8.458,-8.4823,-8.5624,-8.6238,-8.6391,-8.5623,-8.5618,-8.5428,-8.4534,-8.4418,-8.4488,-8.4668,-8.4688,-8.4739,-8.4882,-8.5664,-8.6211,-8.6211,-8.6992,-8.75,-8.75,-8.8242,-8.9453,-9.1211,-9.1328,-9.2494,-9.502,-9.5098,-9.5866,-9.7496,-9.7496,-9.7496,-9.7496,-9.7496,-9.7496,-9.7496,-9.7496,-9.7496,-9.7496,-9.7496,-9.7496,-9.7496,-9.7496,-9.7496,-9.7613,-9.847,-9.8821,-9.8884,-9.9522,-10.0104,-10.0817,-4.209,-4.087,-4.02,-4.2208,-3.9574,-3.6332,-3.3912,-3.1178,-2.8334,-2.5229,-2.5089,-2.5597,-2.6474,-2.7924,-2.9504,-3.0785,-3.2543,-3.4171,-3.5496,-3.6975,-3.845,-3.9768,-4.111,-4.2685,-4.4184,-4.4853,-4.6207,-4.8164,-4.8352,-4.8505,-4.8704,-4.9311,-4.9791,-5.0142,-5.1224,-5.2846,-5.5236,-5.7213,-5.9379,-6.1789,-6.4536,-6.5311,-6.5011,-6.6858,-6.7311,-6.7408,-6.8976,-7.061,-7.2316,-7.4139,-7.6,-7.7775,-7.9783,-8.134,-8.2474,-8.3074,-8.3074,-8.2809,-8.2434,-8.2633,-8.3024,-8.3165,-8.3546,-8.3929,-8.4454,-8.4795,-8.5114,-8.5698,-8.6238,-8.6559,-8.6437,-8.651,-8.6321,-8.5467,-8.5365,-8.54,-8.5536,-8.5629,-8.5952,-8.664,-8.6953,-8.7344,-8.789,-8.8159,-8.8273,-8.8359,-8.914,-9.0117,-9.125,-9.2418,-9.3693,-9.5059,-9.5651,-9.6458,-9.7496,-9.7496,-9.7496,-9.7496,-9.7496,-9.7496,-9.7496,-9.7496,-9.7496,-9.7496,-9.7496,-9.7496,-9.7496,-9.7496,-9.7847,-9.8509,-9.9367,-10.0107,-10.0699,-10.1084,-10.1789,-10.2417,-4.2026,-4.0616,-3.9825,-4.1234,-3.7906,-3.4037,-3.1296,-2.8879,-2.633,-2.3497,-2.414,-2.5185,-2.6488,-2.8501,-3.0359,-3.1913,-3.3787,-3.5559,-3.7055,-3.7743,-3.8874,-4.0641,-4.2436,-4.4156,-4.5787,-4.6456,-4.7666,-4.959,-4.9264,-4.9264,-4.959,-4.9816,-5.0348,-5.1245,-5.2481,-5.4635,-5.75,-5.9306,-6.167,-6.4212,-6.5825,-6.6337,-6.6211,-6.7689,-6.8243,-6.8444,-7.0458,-7.2222,-7.3816,-7.574,-7.7496,-7.9242,-8.1649,-8.2675,-8.2964,-8.3047,-8.2987,-8.2843,-8.2316,-8.2471,-8.2904,-8.3047,-8.362,-8.4205,-8.4656,-8.511,-8.5514,-8.6011,-8.6423,-8.6737,-8.6854,-8.6941,-8.6826,-8.6282,-8.6255,-8.6338,-8.6395,-8.6815,-8.7327,-8.789,-8.8281,-8.8672,-8.9179,-8.9169,-8.9275,-8.9643,-9.0194,-9.0898,-9.1758,-9.308,-9.4191,-9.5059,-9.5876,-9.6668,-9.7496,-9.7496,-9.7496,-9.7496,-9.7496,-9.7496,-9.7496,-9.7496,-9.7496,-9.7496,-9.7496,-9.7496,-9.7535,-9.7886,-9.8314,-9.8938,-10.0107,-10.0893,-10.1291,-10.1788,-10.2494,-10.3081,-4.1647,-4.0846,-4.0153,-4.0078,-3.6708,-3.2593,-2.8638,-2.7447,-2.589,-2.2955,-2.4301,-2.6078,-2.6939,-2.9806,-3.1789,-3.2333,-3.4983,-3.6989,-3.7565,-3.8507,-3.9782,-4.1229,-4.3466,-4.5653,-4.7499,-4.758,-4.8189,-4.959,-4.964,-4.9665,-4.9665,-5.0243,-5.1165,-5.2462,-5.414,-5.6817,-6.0123,-6.1983,-6.4248,-6.6902,-6.7541,-6.7858,-6.7935,-6.8612,-6.941,-7.0424,-7.229,-7.3806,-7.5265,-7.7228,-7.8953,-8.0594,-8.2486,-8.2904,-8.2758,-8.2987,-8.2904,-8.2633,-8.2251,-8.2659,-8.3106,-8.3165,-8.3709,-8.4341,-8.4937,-8.5437,-8.594,-8.6489,-8.6713,-8.6854,-8.6961,-8.6982,-8.6982,-8.7001,-8.7089,-8.7131,-8.7185,-8.7954,-8.8502,-8.8593,-8.9297,-8.9844,-8.9961,-9.0025,-9.0398,-9.1258,-9.1322,-9.1679,-9.2539,-9.3351,-9.4186,-9.5052,-9.5866,-9.6668,-9.7496,-9.7496,-9.7496,-9.7496,-9.7496,-9.7496,-9.7496,-9.7496,-9.7496,-9.7496,-9.7496,-9.7535,-9.7691,-9.847,-9.8899,-9.9172,-10.0808,-10.1309,-10.119,-10.1815,-10.2406,-10.3117,-4.2757,-4.1581,-3.979,-3.7863,-3.3898,-2.9445,-2.5036,-2.3823,-2.2781,-2.1153,-2.2955,-2.5318,-2.7605,-3.0058,-3.2333,-3.4433,-3.6953,-3.7895,-3.6937,-3.9592,-4.164,-4.2793,-4.5018,-4.7401,-4.9651,-4.9382,-4.9207,-4.959,-5.0017,-5.0243,-5.0243,-5.082,-5.1772,-5.3027,-5.506,-5.7678,-6.0725,-6.332,-6.5513,-6.7477,-6.8214,-6.8582,-6.8655,-6.8876,-6.9756,-7.1044,-7.2502,-7.4433,-7.6745,-7.9517,-8.1081,-8.1864,-8.256,-8.2758,-8.2696,-8.2758,-8.2758,-8.2633,-8.2251,-8.2659,-8.3127,-8.3452,-8.4205,-8.4937,-8.5105,-8.5437,-8.594,-8.6489,-8.6713,-8.6854,-8.6961,-8.6982,-8.7021,-8.705,-8.7131,-8.7185,-8.7251,-8.7526,-8.7733,-8.7773,-8.7929,-8.8553,-8.9787,-9.0521,-9.1297,-9.2156,-9.1635,-9.1679,-9.2492,-9.3332,-9.4193,-9.5007,-9.5797,-9.6614,-9.7496,-9.7496,-9.7496,-9.7496,-9.7496,-9.7496,-9.7496,-9.7496,-9.7496,-9.7496,-9.7496,-9.7886,-9.8548,-9.8704,-9.96,-10.0886,-10.1315,-10.1699,-10.2006,-10.2009,-10.2794,-10.4121,-4.3639,-4.1753,-3.9042,-3.567,-3.1265,-2.6952,-2.3222,-2.2596,-2.2211,-2.1613,-2.4261,-2.675,-2.8182,-3.0501,-3.2999,-3.5406,-3.7582,-3.861,-3.7788,-4.0285,-4.242,-4.3713,-4.5722,-4.7883,-5.0393,-5.0142,-5.0117,-5.0393,-5.0695,-5.082,-5.0845,-5.1798,-5.295,-5.4497,-5.6913,-5.9429,-6.2231,-6.4738,-6.6714,-6.8197,-6.8638,-6.9007,-6.9319,-6.9745,-7.0822,-7.2249,-7.384,-7.6143,-7.8832,-8.0695,-8.1818,-8.2444,-8.2633,-8.2696,-8.2696,-8.2696,-8.2571,-8.2444,-8.2444,-8.2782,-8.3244,-8.3688,-8.4448,-8.5148,-8.5314,-8.5772,-8.6238,-8.6517,-8.6761,-8.692,-8.6982,-8.6982,-8.704,-8.7098,-8.7169,-8.7213,-8.7308,-8.7768,-8.8086,-8.8086,-8.8396,-8.9123,-9.0367,-9.1285,-9.2195,-9.3054,-9.277,-9.289,-9.3696,-9.4532,-9.5191,-9.5611,-9.6408,-9.7028,-9.7496,-9.7496,-9.7496,-9.7496,-9.7925,-9.812,-9.812,-9.812,-9.812,-9.8081,-9.7691,-9.8003,-9.8821,-9.925,-10.0185,-10.1393,-10.1716,-10.201,-10.2177,-10.2388,-10.3378,-10.483,-4.4017,-4.1543,-3.801,-3.3558,-2.8906,-2.4946,-2.215,-2.2247,-2.2868,-2.3116,-2.6371,-2.8722,-2.8947,-3.1418,-3.386,-3.573,-3.7726,-3.884,-3.899,-4.1177,-4.2892,-4.4231,-4.6358,-4.845,-5.0544,-5.0645,-5.0896,-5.1272,-5.1373,-5.1556,-5.169,-5.2864,-5.4525,-5.6305,-5.8974,-6.1467,-6.3797,-6.6022,-6.7653,-6.8924,-6.8951,-6.9433,-7.0243,-7.0965,-7.2175,-7.3638,-7.5377,-7.7907,-8.0548,-8.1232,-8.2018,-8.2696,-8.2633,-8.2633,-8.2696,-8.2633,-8.2491,-8.2472,-8.2855,-8.3261,-8.3731,-8.4454,-8.5136,-8.5775,-8.6087,-8.6492,-8.6803,-8.6829,-8.7026,-8.7176,-8.702,-8.6982,-8.704,-8.7113,-8.7169,-8.7213,-8.7318,-8.8004,-8.8476,-8.8476,-8.9319,-9.014,-9.0842,-9.1858,-9.2864,-9.3767,-9.3865,-9.4254,-9.506,-9.5847,-9.6275,-9.6302,-9.7057,-9.7496,-9.7496,-9.7496,-9.7496,-9.7496,-9.8392,-9.8704,-9.8587,-9.8587,-9.8587,-9.8548,-9.7808,-9.8081,-9.9094,-9.9795,-10.0691,-10.1689,-10.209,-10.2187,-10.2096,-10.2798,-10.3904,-10.5213,-4.3198,-4.0495,-3.6439,-3.0806,-2.6717,-2.3138,-2.0102,-2.1348,-2.3217,-2.4757,-2.7027,-2.9164,-3.0567,-3.3091,-3.4874,-3.507,-3.7586,-3.9091,-3.905,-4.2566,-4.4891,-4.5096,-4.8125,-5.0281,-5.1147,-5.1624,-5.1674,-5.1272,-5.1749,-5.2245,-5.289,-5.4417,-5.6202,-5.8272,-6.0272,-6.2644,-6.5146,-6.6958,-6.8343,-6.962,-6.9609,-7.0487,-7.1657,-7.1745,-7.3056,-7.506,-7.6163,-7.8161,-8.0548,-8.1683,-8.238,-8.2633,-8.238,-8.2444,-8.2633,-8.2316,-8.27,-8.3317,-8.3667,-8.4689,-8.5842,-8.6517,-8.7333,-8.8032,-8.838,-8.8016,-8.7642,-8.7808,-8.7985,-8.7875,-8.7137,-8.6982,-8.7037,-8.7181,-8.7175,-8.7269,-8.7457,-8.7578,-8.7615,-8.7479,-8.8837,-8.9875,-9.0036,-9.1531,-9.2873,-9.3827,-9.3824,-9.42,-9.5066,-9.5846,-9.6251,-9.6225,-9.7028,-9.7496,-9.7496,-9.7496,-9.7496,-9.7496,-9.8392,-9.8392,-9.7691,-9.7691,-9.7691,-9.7652,-9.7535,-9.8431,-9.9912,-10.0107,-10.1003,-10.239,-10.2285,-10.2187,-10.2107,-10.3285,-10.4291,-10.5213,-4.0432,-3.7548,-3.3569,-2.7814,-2.5299,-2.3078,-2.0564,-2.1836,-2.3568,-2.5373,-2.7511,-2.9419,-3.0418,-3.2733,-3.4073,-3.3727,-3.5936,-3.7701,-3.8367,-4.2322,-4.4937,-4.5645,-4.8767,-5.082,-5.1724,-5.1975,-5.2126,-5.2201,-5.2835,-5.3587,-5.4443,-5.6202,-5.8202,-6.0209,-6.2587,-6.4479,-6.6177,-6.8075,-6.9178,-6.9746,-7.0632,-7.1625,-7.2453,-7.3431,-7.4701,-7.6256,-7.8077,-7.965,-8.1055,-8.215,-8.2696,-8.2843,-8.2571,-8.2991,-8.351,-8.2978,-8.3566,-8.4452,-8.4731,-8.5636,-8.6538,-8.7184,-8.7921,-8.8637,-8.9531,-8.9538,-8.9217,-8.8825,-8.8839,-8.8846,-8.8458,-8.8458,-8.8539,-8.8646,-8.8665,-8.8753,-8.8866,-8.8864,-8.8797,-8.8667,-8.9749,-9.055,-9.0586,-9.1754,-9.3107,-9.4531,-9.4564,-9.509,-9.6425,-9.6812,-9.6992,-9.6912,-9.7301,-9.7496,-9.7496,-9.7496,-9.7496,-9.7496,-9.7886,-9.812,-9.8236,-9.8236,-9.8236,-9.8197,-9.7691,-9.847,-10.0107,-10.0107,-10.0994,-10.2401,-10.2195,-10.2494,-10.3199,-10.4215,-10.5097,-10.5905]},{"header":{"parameterUnit":"m.s-1","parameterCategory":1,"la1":30.6,"la2":28.766,"lo1":-90.7593,"lo2":-88.6598,"dy":0.0162,"dx":0.0183,"nx":116,"ny":114,"refTime":"2024-03-25T06:00:00:Z","depth":0,"parameterNumber":3,"parameterNumberName":"V-component_of_WINDS"},"data":[0.0,0.0,0.0,0.0,0.0,0.0,0.0,0.0,0.0,0.0,0.0,0.0,0.0,0.0,0.0,0.0,0.0,0.0,0.0,0.0,0.0,0.0,0.0,0.0,0.0,0.0,0.0,0.0,0.0,0.0,0.0,0.0,0.0,0.0,0.0,0.0,0.0,0.0,0.0,0.0,0.0,0.0,0.0,0.0,0.0,0.0,0.0,0.0,0.0,0.0,0.0,0.0,0.0,0.0,0.0,0.0,0.0,0.0,0.0,0.0,0.0,0.0,0.0,0.0,0.0,0.0,0.0,0.0,0.0,0.0,0.0,0.0,0.0,0.0,0.0,0.0,0.0,0.0,0.0,0.0,0.0,0.0,0.0,0.0,0.0,0.0,0.0,0.0,0.0,0.0,0.0,0.0,0.0,0.0,0.0,0.0,0.0,0.0,0.0,0.0,0.0,0.0,0.0,0.0,0.0,0.0,0.0,0.0,0.0,0.0,0.0,0.0,0.0,0.0,0.0,0.0,0.0,0.0,0.0,0.0,0.0,0.0,0.0,0.0,0.0,0.0,0.0,0.0,0.0,0.0,0.0,0.0,0.0,0.0,0.0,0.0,0.0,0.0,0.0,0.0,0.0,0.0,0.0,0.0,0.0,0.0,0.0,0.0,0.0,0.0,0.0,0.0,0.0,0.0,0.0,0.0,0.0,0.0,0.0,0.0,0.0,0.0,0.0,0.0,0.0,0.0,0.0,0.0,0.0,0.0,0.0,0.0,0.0,0.0,0.0,0.0,0.0,0.0,0.0,0.0,0.0,0.0,0.0,0.0,0.0,0.0,0.0,0.0,0.0,0.0,0.0,0.0,0.0,0.0,0.0,0.0,0.0,0.0,0.0,0.0,0.0,0.0,0.0,0.0,0.0,0.0,0.0,0.0,0.0,0.0,0.0,0.0,0.0,0.0,0.0,0.0,0.0,0.0,0.0,0.0,0.0,0.0,0.0,0.0,0.0,0.0,0.0,0.0,0.0,0.0,0.0,0.0,0.0,0.0,0.0,0.0,0.0,0.0,0.0,0.0,0.0,0.0,0.0,0.0,0.0,0.0,0.0,0.0,0.0,0.0,0.0,0.0,0.0,0.0,0.0,0.0,0.0,0.0,0.0,0.0,0.0,0.0,0.0,0.0,0.0,0.0,0.0,0.0,0.0,0.0,0.0,0.0,0.0,0.0,0.0,0.0,0.0,0.0,0.0,0.0,0.0,0.0,0.0,0.0,0.0,0.0,0.0,0.0,0.0,0.0,0.0,0.0,0.0,0.0,0.0,0.0,0.0,0.0,0.0,0.0,0.0,0.0,0.0,0.0,0.0,0.0,0.0,0.0,0.0,0.0,0.0,0.0,0.0,0.0,0.0,0.0,0.0,0.0,0.0,0.0,0.0,0.0,0.0,0.0,0.0,0.0,0.0,0.0,0.0,0.0,0.0,0.0,0.0,0.0,0.0,0.0,0.0,0.0,0.0,0.0,0.0,0.0,0.0,0.0,0.0,0.0,0.0,0.0,0.0,0.0,0.0,0.0,0.0,0.0,0.0,0.0,0.0,0.0,0.0,0.0,0.0,0.0,0.0,0.0,0.0,0.0,0.0,0.0,0.0,0.0,0.0,0.0,0.0,0.0,0.0,0.0,0.0,0.0,0.0,0.0,0.0,0.0,0.0,0.0,0.0,0.0,0.0,0.0,0.0,0.0,0.0,0.0,0.0,0.0,0.0,0.0,0.0,0.0,0.0,0.0,0.0,0.0,0.0,0.0,0.0,0.0,0.0,0.0,0.0,0.0,0.0,0.0,0.0,0.0,0.0,0.0,0.0,0.0,0.0,0.0,0.0,0.0,0.0,0.0,0.0,0.0,0.0,0.0,0.0,0.0,0.0,0.0,0.0,0.0,0.0,0.0,0.0,0.0,0.0,0.0,0.0,0.0,0.0,0.0,0.0,0.0,0.0,0.0,0.0,0.0,0.0,0.0,0.0,0.0,0.0,0.0,0.0,0.0,0.0,0.0,0.0,0.0,0.0,0.0,0.0,0.0,0.0,0.0,0.0,0.0,0.0,0.0,0.0,0.0,0.0,0.0,0.0,0.0,0.0,0.0,0.0,0.0,0.0,0.0,0.0,0.0,0.0,0.0,0.0,0.0,0.0,0.0,0.0,0.0,0.0,0.0,0.0,0.0,0.0,0.0,0.0,0.0,0.0,0.0,0.0,0.0,0.0,0.0,0.0,0.0,0.0,0.0,0.0,0.0,0.0,0.0,0.0,0.0,0.0,0.0,0.0,0.0,0.0,0.0,0.0,0.0,0.0,0.0,0.0,0.0,0.0,0.0,0.0,0.0,0.0,0.0,0.0,0.0,0.0,0.0,0.0,0.0,0.0,0.0,0.0,0.0,0.0,0.0,0.0,0.0,0.0,0.0,0.0,0.0,0.0,0.0,0.0,0.0,0.0,0.0,0.0,0.0,0.0,0.0,0.0,0.0,0.0,0.0,0.0,0.0,0.0,0.0,0.0,0.0,0.0,0.0,0.0,0.0,0.0,0.0,0.0,0.0,0.0,0.0,0.0,0.0,0.0,0.0,0.0,0.0,0.0,0.0,0.0,0.0,0.0,0.0,0.0,0.0,0.0,0.0,0.0,0.0,0.0,0.0,0.0,0.0,0.0,0.0,0.0,0.0,0.0,0.0,0.0,0.0,0.0,0.0,0.0,0.0,0.0,0.0,0.0,0.0,0.0,0.0,0.0,0.0,0.0,0.0,0.0,0.0,0.0,0.0,0.0,0.0,0.0,0.0,0.0,0.0,0.0,0.0,0.0,0.0,0.0,0.0,0.0,0.0,0.0,0.0,0.0,0.0,0.0,0.0,0.0,0.0,0.0,0.0,0.0,0.0,0.0,0.0,0.0,0.0,0.0,0.0,0.0,0.0,0.0,0.0,0.0,0.0,0.0,0.0,0.0,0.0,0.0,0.0,0.0,0.0,0.0,0.0,0.0,0.0,0.0,0.0,0.0,0.0,0.0,0.0,0.0,0.0,0.0,0.0,0.0,0.0,0.0,0.0,0.0,0.0,0.0,0.0,0.0,0.0,0.0,0.0,0.0,0.0,0.0,0.0,0.0,0.0,0.0,0.0,0.0,0.0,0.0,0.0,0.0,0.0,0.0,0.0,0.0,0.0,0.0,0.0,0.0,0.0,0.0,0.0,0.0,0.0,0.0,0.0,0.0,0.0,0.0,0.0,0.0,0.0,0.0,0.0,0.0,0.0,0.0,0.0,0.0,0.0,0.0,0.0,0.0,0.0,0.0,0.0,0.0,0.0,0.0,0.0,0.0,0.0,0.0,0.0,0.0,0.0,0.0,0.0,0.0,0.0,0.0,0.0,0.0,0.0,0.0,0.0,0.0,0.0,0.0,0.0,0.0,0.0,0.0,0.0,0.0,0.0,0.0,0.0,0.0,0.0,0.0,0.0,0.0,0.0,0.0,0.0,0.0,0.0,0.0,0.0,0.0,0.0,0.0,0.0,0.0,0.0,0.0,0.0,0.0,0.0,0.0,0.0,0.0,0.0,0.0,0.0,0.0,0.0,0.0,0.0,0.0,0.0,0.0,0.0,0.0,0.0,0.0,0.0,0.0,0.0,0.0,0.0,0.0,0.0,0.0,0.0,0.0,0.0,0.0,0.0,0.0,0.0,0.0,0.0,0.0,0.0,0.0,0.0,0.0,0.0,0.0,0.0,0.0,0.0,0.0,0.0,0.0,0.0,0.0,0.0,0.0,0.0,0.0,0.0,0.0,0.0,0.0,0.0,0.0,0.0,0.0,0.0,0.0,0.0,0.0,0.0,0.0,0.0,0.0,0.0,0.0,0.0,0.0,0.0,0.0,0.0,0.0,0.0,0.0,0.0,0.0,0.0,0.0,0.0,0.0,0.0,0.0,0.0,0.0,0.0,0.0,0.0,0.0,0.0,0.0,0.0,0.0,0.0,0.0,0.0,0.0,0.0,0.0,0.0,0.0,0.0,0.0,0.0,0.0,0.0,0.0,0.0,0.0,0.0,0.0,0.0,0.0,0.0,0.0,0.0,0.0,0.0,0.0,0.0,0.0,0.0,0.0,0.0,0.0,0.0,0.0,0.0,0.0,0.0,0.0,0.0,0.0,0.0,0.0,0.0,0.0,0.0,0.0,0.0,0.0,0.0,0.0,0.0,0.0,0.0,0.0,0.0,0.0,0.0,0.0,0.0,0.0,0.0,0.0,0.0,0.0,0.0,0.0,0.0,0.0,0.0,0.0,0.0,0.0,0.0,0.0,0.0,0.0,0.0,0.0,0.0,0.0,0.0,0.0,0.0,0.0,0.0,0.0,0.0,0.0,0.0,0.0,0.0,0.0,0.0,0.0,0.0,0.0,0.0,0.0,0.0,0.0,0.0,0.0,0.0,0.0,0.0,0.0,0.0,0.0,0.0,0.0,0.0,0.0,0.0,0.0,0.0,0.0,0.0,0.0,0.0,0.0,0.0,0.0,0.0,0.0,0.0,0.0,0.0,0.0,0.0,0.0,0.0,0.0,0.0,0.0,0.0,0.0,0.0,0.0,0.0,0.0,0.0,0.0,0.0,0.0,0.0,0.0,0.0,0.0,0.0,0.0,0.0,0.0,0.0,0.0,0.0,0.0,0.0,0.0,0.0,0.0,0.0,0.0,0.0,0.0,0.0,0.0,0.0,0.0,0.0,0.0,0.0,0.0,0.0,0.0,0.0,0.0,0.0,0.0,0.0,0.0,0.0,0.0,0.0,0.0,0.0,0.0,0.0,0.0,0.0,0.0,0.0,0.0,0.0,0.0,0.0,0.0,0.0,0.0,0.0,0.0,0.0,0.0,0.0,0.0,0.0,0.0,0.0,0.0,0.0,0.0,0.0,0.0,0.0,0.0,0.0,0.0,0.0,0.0,0.0,0.0,0.0,0.0,0.0,0.0,0.0,0.0,0.0,0.0,0.0,0.0,0.0,0.0,0.0,0.0,0.0,0.0,0.0,0.0,0.0,0.0,0.0,0.0,0.0,0.0,0.0,0.0,0.0,0.0,0.0,0.0,0.0,0.0,0.0,0.0,0.0,0.0,0.0,0.0,0.0,0.0,0.0,0.0,0.0,0.0,0.0,0.0,0.0,0.0,0.0,0.0,0.0,0.0,0.0,0.0,0.0,0.0,0.0,0.0,0.0,0.0,0.0,0.0,0.0,0.0,0.0,0.0,0.0,0.0,0.0,0.0,0.0,0.0,0.0,0.0,0.0,0.0,0.0,0.0,0.0,0.0,0.0,0.0,0.0,0.0,0.0,0.0,0.0,0.0,0.0,0.0,0.0,0.0,0.0,0.0,0.0,0.0,0.0,0.0,0.0,0.0,0.0,0.0,0.0,0.0,0.0,0.0,0.0,0.0,0.0,0.0,0.0,0.0,0.0,0.0,0.0,0.0,0.0,0.0,0.0,0.0,0.0,0.0,0.0,0.0,0.0,0.0,0.0,0.0,0.0,0.0,0.0,0.0,0.0,0.0,0.0,0.0,0.0,0.0,0.0,0.0,0.0,0.0,0.0,0.0,0.0,0.0,0.0,0.0,0.0,0.0,0.0,0.0,0.0,0.0,0.0,0.0,0.0,0.0,0.0,0.0,0.0,0.0,0.0,0.0,0.0,0.0,0.0,0.0,0.0,0.0,0.0,0.0,0.0,0.0,0.0,0.0,0.0,0.0,0.0,0.0,0.0,0.0,0.0,0.0,0.0,0.0,0.0,0.0,0.0,0.0,0.0,0.0,0.0,0.0,0.0,0.0,0.0,0.0,0.0,0.0,0.0,0.0,0.0,0.0,0.0,0.0,0.0,0.0,0.0,0.0,0.0,0.0,0.0,0.0,0.0,0.0,0.0,0.0,0.0,0.0,0.0,0.0,0.0,0.0,0.0,0.0,0.0,0.0,0.0,0.0,0.0,0.0,0.0,0.0,0.0,0.0,0.0,0.0,0.0,0.0,0.0,0.0,0.0,0.0,0.0,0.0,0.0,0.0,0.0,0.0,0.0,0.0,0.0,0.0,0.0,0.0,0.0,0.0897,0.2695,0.0,0.0,0.0,0.0,0.0,0.0,0.0,0.0,0.0,0.0,0.0,0.0,0.0,0.0,0.0,0.0,0.0,0.0,0.0,0.0,0.0,0.0,0.0,-1.3336,-1.4974,-1.6343,-1.8065,-1.9206,-1.9534,-2.0562,-2.15,-2.2197,-2.2546,-2.3593,-2.5367,-2.434,-2.4205,-2.5075,-2.2941,-2.0144,-1.673,-1.5651,-1.4685,-1.4022,0.0,0.0,0.0,0.0,0.0,0.0,0.0,0.0,0.0,0.0,0.0,0.0,0.0,0.0,0.0,0.0,0.0,0.0,0.0,0.0,0.0,0.0,0.0,0.0,0.0,0.0,0.0,0.0,0.0,0.0,0.0,0.0,0.0,0.0,0.0,0.0,0.0,0.0,0.0,0.0,0.0,0.0,0.0,0.0,0.0,0.0,0.0,0.0,0.0,0.0,0.0,0.0,0.0,0.0,0.0,0.0,0.0,0.0,0.0,0.0,0.0,0.0,0.0,0.0,0.0,0.0,0.0,0.0,0.0,0.0,0.0937,0.3159,0.0,0.0,0.0,0.0,0.0,0.0,0.0,0.0,0.0,0.0,0.0,0.0,0.0,0.0,0.0,0.0,0.0,0.0,0.0,0.0,0.0,-1.1467,-1.2546,-1.3978,-1.5821,-1.8216,-1.9354,-2.0338,-2.1309,-2.1426,-2.1991,-2.304,-2.2935,-2.3759,-2.5555,-2.4368,-2.4439,-2.5871,-2.2284,-1.8806,-1.5295,-1.4124,-1.3499,-1.3493,-1.2971,0.0,0.0,0.0,0.0,0.0,0.0,0.0,0.0,0.0,0.0,0.0,0.0,0.0,0.0,0.0,0.0,0.0,0.0,0.0,0.0,0.0,0.0,0.0,0.0,0.0,0.0,0.0,0.0,0.0,0.0,0.0,0.0,0.0,0.0,0.0,0.0,0.0,0.0,0.0,0.0,0.0,0.0,0.0,0.0,0.0,0.0,0.0,0.0,0.0,0.0,0.0,0.0,0.0,0.0,0.0,0.0,0.0,0.0,0.0,0.0,0.0,0.0,0.0,-2.2005,-2.1485,-1.9163,-1.4433,-0.992,-0.5577,0.0199,0.274,0.332,0.5069,0.0,0.0,0.0,0.0,0.0,0.0,0.0,0.0,0.0,0.0,0.0,0.0,0.0,0.0,0.0,0.0,0.0,0.0,0.0,-1.3168,-1.4625,-1.6223,-1.8193,-2.073,-2.1524,-2.2221,-2.285,-2.321,-2.3224,-2.2814,-2.3348,-2.4149,-2.5254,-2.5085,-2.486,-2.4721,-2.0486,-1.7462,-1.5543,-1.4019,-1.2908,-1.2183,-1.2033,-1.2033,-1.2055,0.0,0.0,0.0,0.0,0.0,0.0,0.0,0.0,0.0,0.0,0.0,0.0,0.0,0.0,0.0,0.0,0.0,0.0,0.0,0.0,0.0,0.0,0.0,0.0,0.0,0.0,0.0,0.0,0.0,0.0,0.0,0.0,0.0,0.0,0.0,0.0,0.0,0.0,0.0,0.0,0.0,-0.7539,-0.8411,0.0,0.0,0.0,0.0,0.0,0.0,0.0,0.0,0.0,0.0,0.0,0.0,0.0,-1.5793,-1.7949,-2.2954,-2.6287,-2.7815,-2.932,-2.7582,-2.2706,-1.7975,-1.2299,-0.6122,-0.1524,0.0,0.325,0.443,0.0,0.0,0.0,0.0,0.0,0.0,0.0,0.0,0.0,0.0,0.0,0.0,0.0,0.0,0.0,0.0,0.0,0.0,0.0,0.0,0.0,-1.7435,-1.9619,-2.2023,-2.3857,-2.47,-2.4379,-2.4632,-2.4441,-2.3622,-2.3305,-2.3741,-2.5085,-2.483,-2.4245,-2.3371,-2.1212,-1.8508,-1.5104,-1.4427,-1.366,-1.2759,-1.3289,-1.3204,-1.2615,-1.195,0.0,0.0,0.0,0.0,0.0,0.0,0.0,0.0,0.0,0.0,0.0,0.0,0.0,0.0,0.0,0.0,0.0,0.0,0.0,0.0,0.0,0.0,0.0,0.0,0.0,0.0,0.0,0.0,0.0,0.0,0.0,0.0,0.0,0.0,0.0,0.0,0.0,0.0,0.0,-0.891,-0.9162,-0.9838,-0.9532,-0.9356,0.0,0.0,0.0,0.0,0.0,0.0,0.0,0.0,0.0,-1.3573,-1.7655,-2.0937,-2.3555,-2.8694,-3.2203,-3.4286,-3.4223,-3.179,-2.7363,-2.1132,-1.4423,-0.7825,-0.3899,-0.0452,0.2419,0.3403,0.4111,0.438,0.0,0.0,0.0,0.0,0.2166,0.1975,0.0,0.0,0.0,0.0,0.0,0.0,0.0,0.0,0.0,0.0,0.0,0.0,-1.6738,-1.8851,-2.126,-2.4029,-2.5794,-2.6658,-2.644,-2.5673,-2.5024,-2.4702,-2.3459,-2.3489,-2.4967,-2.4469,-2.3709,-2.2668,-2.1474,-1.8857,-1.4961,-1.4781,-1.4298,-1.3562,-1.4633,-1.4602,-1.3664,-1.2481,-1.2092,-1.2152,0.0,0.0,0.0,0.0,0.0,0.0,0.0,0.0,0.0,0.0,0.0,0.0,0.0,0.0,0.0,0.0,0.0,0.0,0.0,0.0,0.0,0.0,0.0,0.0,0.0,0.0,0.0,0.0,0.0,0.0,0.0,0.0,0.0,0.0,0.0,0.0,0.0,-1.0364,-1.0582,-1.144,-1.1396,-1.1403,0.0,0.0,0.0,0.0,0.0,0.0,-1.3413,-1.5454,-1.7093,-1.8479,-2.3365,-2.7469,-3.0264,-3.548,-3.9236,-4.1147,-3.9619,-3.6473,-3.1624,-2.4023,-1.6945,-1.0257,-0.5698,-0.2123,0.0934,0.223,0.2993,0.3089,0.3061,0.3033,0.2812,0.1834,0.1433,0.1233,0.0,0.0,0.0,0.0,0.0,0.0,0.0,0.0,0.0,0.0,0.0,-1.5756,-1.9211,-2.093,-2.3444,-2.762,-2.7151,-2.743,-2.9426,-2.6259,-2.4753,-2.5758,-2.4195,-2.3804,-2.4992,-2.4318,-2.3659,-2.3078,-1.9681,-1.702,-1.5216,-1.4666,-1.4223,-1.397,-1.5214,-1.5678,-1.541,-1.3936,-1.2729,-1.1803,-1.0388,0.0,0.0,0.0,0.0,0.0,0.0,0.0,0.0,0.0,0.0,0.0,0.0,0.0,0.0,0.0,0.0,0.0,0.0,0.0,0.0,0.0,0.0,0.0,0.0,0.0,0.0,0.0,0.0,0.0,0.0,0.0,0.0,0.0,0.0,0.0,0.0,0.0,0.0,-1.2804,-1.3241,0.0,0.0,0.0,0.0,-1.5593,-1.6079,-1.6955,-1.8416,-2.1414,-2.3786,-2.5298,-3.1276,-3.597,-3.9446,-4.4716,-4.7899,-4.8697,-4.6923,-4.2614,-3.5355,-2.6536,-1.9338,-1.3081,-0.6751,-0.3118,-0.1663,0.0689,0.223,0.3264,0.3236,0.3208,0.297,0.1913,0.1488,0.1488,0.0,0.0,0.0,0.0,0.0,0.0,0.0,0.0,-1.3175,-1.4143,-1.5703,-1.776,-2.0457,-2.3131,-2.5836,-2.8704,-2.906,-2.9044,-2.9051,-2.6816,-2.566,-2.5937,-2.4607,-2.4432,-2.5831,-2.4832,-2.3655,-2.2477,-1.9389,-1.728,-1.5977,-1.525,-1.5262,-1.5653,-1.6828,-1.7287,-1.7058,-1.5092,-1.4291,-1.4053,-1.1727,-1.1203,0.0,0.0,0.0,0.0,0.0,0.0,0.0,0.0,0.0,0.0,0.0,0.0,0.0,0.0,0.0,0.0,0.0,0.0,0.0,0.0,0.0,0.0,0.0,0.0,0.0,0.0,0.0,0.0,0.0,0.0,0.0,0.0,0.0,0.0,0.0,0.0,0.0,-1.5462,-1.6617,0.0,-1.8268,-1.9615,-1.9943,-1.8975,-2.0723,-2.1517,-2.0905,-2.4115,-2.6677,-2.8365,-3.4701,-4.0197,-4.4548,-4.8877,-5.1559,-5.2965,-5.0742,-4.5218,-3.7279,-3.0166,-2.1949,-1.3434,-0.8989,-0.5574,-0.314,-0.2366,-0.1155,-0.0226,-0.089,-0.0883,-0.022,-0.0438,-0.0219,0.0441,0.0,0.0,0.0,0.0,0.0,0.0,0.0,-1.2939,-1.3632,-1.4733,-1.7104,-1.9528,-2.1776,-2.4989,-2.7685,-2.9541,-2.988,-2.9834,-2.9499,-2.7191,-2.6159,-2.6815,-2.5563,-2.5147,-2.5619,-2.4585,-2.3128,-2.1546,-1.8925,-1.7363,-1.6598,-1.6255,-1.641,-1.7103,-1.7887,-1.8207,-1.8142,-1.6175,-1.5418,-1.5359,-1.2918,-1.2398,-1.3205,0.0,0.0,0.0,0.0,0.0,0.0,0.0,0.0,0.0,0.0,0.0,0.0,0.0,0.0,0.0,0.0,0.0,0.0,0.0,0.0,0.0,0.0,0.0,0.0,0.0,0.0,0.0,0.0,0.0,0.0,0.0,0.0,0.0,0.0,-1.6253,-1.7304,-1.819,-1.9825,-2.113,-2.1748,-2.3571,-2.4344,-2.3626,-2.5076,-2.5681,-2.5009,-2.8181,-3.0764,-3.3131,-3.9502,-4.5333,-5.022,-5.3805,-5.5762,-5.5976,-5.3119,-4.6936,-3.814,-3.1115,-2.3317,-1.4705,-1.0756,-0.7322,-0.4633,-0.457,-0.4022,-0.3254,-0.3659,-0.3168,-0.2475,-0.2015,-0.1567,-0.1346,0.0,0.0,0.0,0.0,0.0,0.0,-1.2271,-1.3446,-1.4562,-1.5021,-1.789,-2.0878,-2.3242,-2.6302,-2.879,-3.0394,-2.9625,-2.9647,-3.109,-2.7395,-2.605,-2.8291,-2.7172,-2.582,-2.4258,-2.3423,-2.2116,-2.0341,-1.8418,-1.7282,-1.7002,-1.7318,-1.7824,-1.8121,-1.8347,-1.8455,-1.8304,-1.7076,-1.6205,-1.5674,-1.3806,-1.3583,-1.4262,0.0,0.0,0.0,0.0,0.0,0.0,0.0,0.0,0.0,0.0,0.0,0.0,0.0,0.0,0.0,0.0,0.0,0.0,0.0,0.0,0.0,0.0,0.0,0.0,0.0,0.0,0.0,0.0,0.0,0.0,0.0,0.0,0.0,-1.7512,-1.8542,-1.9701,-2.0979,-2.229,-2.3868,-2.6062,-2.6881,-2.7926,-2.9627,-2.9143,-2.9648,-3.1206,-3.362,-3.6435,-3.9415,-4.6235,-5.2072,-5.6653,-6.0084,-6.0564,-5.8062,-5.4427,-4.7806,-3.826,-3.0012,-2.3134,-1.7399,-1.1547,-0.7845,-0.5849,-0.5802,-0.5759,-0.5708,-0.445,-0.3918,-0.3636,-0.2499,-0.2713,-0.3815,0.0,0.0,0.0,0.0,0.0,0.0,-1.3002,-1.367,-1.4593,-1.6049,-1.909,-2.1776,-2.3429,-2.6487,-2.889,-2.999,-2.8849,-2.8742,-3.0289,-2.6953,-2.5665,-2.7478,-2.6843,-2.6232,-2.5642,-2.3894,-2.2166,-2.0294,-1.8199,-1.7368,-1.7759,-1.7052,-1.7416,-1.8595,-1.8659,-1.8789,-1.895,-1.8443,-1.8307,-1.7882,-1.4894,-1.4423,-1.5424,0.0,0.0,0.0,0.0,0.0,0.0,0.0,0.0,0.0,0.0,0.0,0.0,0.0,0.0,0.0,0.0,0.0,0.0,0.0,0.0,0.0,0.0,0.0,0.0,0.0,0.0,0.0,0.0,0.0,0.0,0.0,-2.1715,-2.227,-2.1665,-2.2005,-2.2748,-2.3759,-2.4845,-2.6261,-2.8084,-2.9272,-3.0346,-3.1303,-3.1881,-3.2822,-3.3992,-3.6339,-3.9612,-4.3731,-4.9531,-5.4646,-5.8908,-6.0674,-6.0965,-5.9363,-5.4989,-4.9028,-4.1474,-3.3747,-2.7178,-2.1481,-1.5118,-1.1216,-0.9248,-0.7692,-0.7164,-0.7143,-0.6598,-0.583,-0.5083,-0.4594,-0.4768,-0.4938,0.0,0.0,0.0,0.0,0.0,0.0,-1.3221,-1.38,-1.4805,-1.6548,-1.9766,-2.2471,-2.3762,-2.6739,-2.8891,-2.9345,-2.8607,-2.8422,-2.9248,-2.7413,-2.6195,-2.6161,-2.6249,-2.5587,-2.3975,-2.2902,-2.1478,-1.9622,-1.8195,-1.7855,-1.8239,-1.7767,-1.7997,-1.8939,-1.8352,-1.828,-1.8258,-1.7233,-1.7233,-1.7311,-1.4868,-1.5208,-1.7217,-1.6444,-1.6563,-1.7058,-1.6985,-1.7301,-1.7713,-1.7053,0.0,0.0,0.0,0.0,0.0,0.0,0.0,0.0,0.0,0.0,0.0,0.0,0.0,0.0,0.0,0.0,0.0,0.0,0.0,0.0,0.0,0.0,0.0,0.0,-2.4227,-2.5645,-2.6321,-2.6048,-2.5881,-2.6509,-2.757,-2.8859,-3.049,-3.1402,-3.2424,-3.3412,-3.4276,-3.5298,-3.6625,-3.9612,-4.3194,-4.7645,-5.3006,-5.7693,-6.1187,-6.206,-6.1421,-5.8867,-5.4036,-4.801,-4.0859,-3.3815,-2.7746,-2.1996,-1.6192,-1.2567,-1.037,-0.837,-0.76,-0.7551,0.0,0.0,0.0,0.0,-0.5877,-0.5387,0.0,0.0,0.0,0.0,0.0,0.0,-1.3059,-1.3892,-1.5037,-1.6739,-1.9992,-2.273,-2.4217,-2.676,-2.8391,-2.8561,-2.853,-2.8387,-2.8069,-2.816,-2.7197,-2.4928,-2.5713,-2.4573,-2.1208,-2.1243,-2.0424,-1.8698,-1.8309,-1.8272,-1.8476,-1.8713,-1.8961,-1.9041,-1.7859,-1.7429,-1.7301,-1.5075,-1.4629,-1.5519,-1.4481,-1.5928,-1.8849,-1.8608,-1.8833,-1.9333,-1.9334,-1.9111,-1.8951,-1.8171,0.0,0.0,0.0,0.0,0.0,0.0,0.0,0.0,0.0,0.0,0.0,0.0,0.0,0.0,0.0,0.0,0.0,0.0,0.0,0.0,0.0,0.0,0.0,0.0,-2.6172,-2.8207,-3.1141,-3.0406,-2.9561,-2.9274,-3.0008,-3.1145,-3.2671,-3.3185,-3.4202,-3.5791,-3.667,-3.7858,-3.9495,-4.2965,0.0,0.0,0.0,-6.0536,-6.33,-6.354,-6.164,-5.7479,-5.2361,-4.5978,-3.8591,-3.1972,-2.6378,-2.1262,-1.5807,-1.243,-1.0468,-0.8563,-0.7537,-0.7439,-0.7488,-0.7439,-0.7335,-0.7224,-0.6505,-0.5831,0.0,0.0,0.0,0.0,0.0,0.0,-1.2477,-1.3682,-1.5216,-1.7159,-1.9481,-2.1778,-2.4006,-2.5276,-2.6682,-2.8401,-2.7543,-2.7062,-2.7345,-2.8077,-2.7702,-2.5947,-2.597,-2.4727,-2.2086,-2.1683,-2.0709,-1.8959,-1.8714,-1.867,-1.8724,-1.8961,-1.9208,-1.9435,-1.8229,-1.7732,-1.7747,-1.6375,-1.592,-1.6072,-1.5768,-1.6387,-1.7518,-1.8007,-1.901,-2.0107,-2.0709,-2.1559,-2.2211,-2.1701,-2.1595,-2.1595,-2.0472,-2.0047,0.0,0.0,0.0,0.0,0.0,0.0,0.0,0.0,0.0,0.0,0.0,0.0,0.0,0.0,0.0,0.0,0.0,0.0,0.0,-2.6646,-2.9248,-3.1549,-3.3228,-3.4667,-3.446,-3.1501,-3.1129,-3.1414,-3.2951,-3.4676,-3.6307,-3.749,-3.9202,-4.1602,-4.4272,-4.6069,-4.9322,-5.4375,-5.8087,-6.1093,-6.33,-6.2176,-6.0257,-5.7922,-5.0972,0.0,-4.0984,-3.2747,-2.7796,-2.5023,-1.6898,-1.3083,-1.2578,-0.8925,-0.7439,-0.7371,-0.7335,-0.73,-0.7281,-0.7259,-0.699,-0.6732,0.0,0.0,0.0,0.0,0.0,0.0,-1.3202,-1.3961,-1.5252,-1.7446,-1.9282,-2.1226,-2.3495,-2.449,-2.5679,-2.7256,-2.7195,-2.7294,-2.7894,-2.8524,-2.8025,-2.597,-2.5874,-2.4408,-2.1306,-2.1098,-2.0239,-1.8982,-1.8812,-1.8907,-1.9144,-1.9273,-1.9445,-1.9671,-1.7708,-1.7,-1.695,-1.5113,-1.4392,-1.4478,-1.4478,-1.4984,-1.6153,-1.8336,-2.0016,-2.14,-2.2537,-2.3258,-2.35,-2.3193,-2.2993,-2.2766,-2.1899,-2.1922,-2.2008,0.0,0.0,0.0,0.0,0.0,0.0,0.0,0.0,0.0,0.0,0.0,0.0,0.0,0.0,-2.0921,-2.1019,0.0,-2.6716,-2.8846,-3.0951,-3.3292,-3.5321,-3.6541,-3.6609,-3.5295,-3.5097,-3.5376,-3.6327,-3.7595,-3.8568,-3.9373,-4.1775,-4.4028,-4.5859,-4.8556,-5.1912,-5.6032,-5.9338,-6.2061,-6.4162,-6.2784,-6.0585,-5.7378,-5.0325,-4.4632,-3.9935,-3.2115,-2.7,-2.3803,-1.6514,-1.2759,-1.1558,-0.8608,-0.7825,-0.8666,-0.8591,-0.8137,-0.7259,-0.7232,-0.7202,-0.6956,0.0,0.0,0.0,0.0,0.0,0.0,-1.3942,-1.4393,-1.5409,-1.7698,-1.9356,-2.106,-2.2926,-2.4015,-2.507,-2.6256,-2.7196,-2.8069,-2.8836,-2.8924,-2.7891,-2.5676,-2.5473,-2.3804,-2.0255,-2.0102,-1.9657,-1.8789,-1.8875,-1.9122,-1.9499,-1.9542,-1.9671,-1.9844,-1.7255,-1.6024,-1.5718,-1.3141,-1.2304,-1.241,-1.2285,-1.331,-1.513,-1.8345,-2.0329,-2.1707,-2.3302,-2.3627,-2.3403,-2.3522,-2.3487,-2.3419,-2.3297,-2.4289,-2.5119,-2.3365,-2.3967,0.0,0.0,0.0,0.0,0.0,0.0,0.0,0.0,-1.6402,-1.7141,-1.7733,-2.0709,-2.3113,-2.2721,-2.5878,-2.9104,-3.1014,-3.2815,-3.4751,-3.7049,-3.785,-3.8528,-3.9431,-3.9517,-3.9458,-4.0014,-4.0558,-4.1074,-4.1355,-4.3986,-4.601,-4.6594,-5.0115,-5.3848,-5.7331,-6.0083,-6.2766,-6.4863,-6.3368,-6.0697,-5.6714,-5.0205,-4.4004,-3.8445,-3.1025,-2.5517,-2.1241,-1.5204,-1.1462,-0.9561,-0.8296,-0.8666,-0.9948,-1.032,-0.9219,-0.7692,-0.764,-0.7616,-0.7398,0.0,0.0,0.0,0.0,0.0,0.0,0.0,0.0,-1.6077,-1.778,-1.9783,-2.1403,-2.2465,-2.3404,-2.4682,-2.644,-2.7653,-2.8667,-2.9613,-2.8573,-2.7289,-2.5786,-2.4705,-2.2804,-2.0267,-2.0029,-1.9588,-1.8789,-1.9208,-1.9445,-1.951,-1.9714,-1.9822,-1.9844,-1.7255,-1.5557,-1.4314,-1.1992,-1.0966,-1.1148,-1.1107,-1.2595,-1.4987,-1.5878,-1.7498,-1.9336,-2.0804,-2.1594,-2.187,-2.2513,-2.3758,-2.5412,-2.5941,-2.7476,-2.9027,-2.7814,-2.731,-2.6714,-2.476,-2.1773,-1.9265,-1.928,-1.7339,-1.5876,0.0,-1.8812,-1.9145,-1.9528,-2.2317,-2.4867,-2.6144,-2.8338,-3.0906,-3.3796,-3.6005,-3.7687,-3.8643,-4.0883,-4.2889,-4.3694,-4.1882,-4.0648,-4.0996,-4.2765,-4.3823,-4.3856,-4.587,-4.7713,-4.9108,-5.0735,-5.3959,-5.8564,-6.0221,-6.208,-6.4335,-6.2191,-5.9719,-5.6714,-4.9425,-4.366,-3.8751,-2.9879,-2.4349,-2.0987,-1.3719,-0.9463,-0.775,-0.909,-0.9719,-0.9862,-1.163,-1.1193,-0.9418,-0.9411,-0.94,-0.8957,0.0,0.0,0.0,0.0,0.0,0.0,0.0,0.0,-1.6392,-1.7984,-1.9971,-2.1677,-2.2776,-2.4193,-2.5435,-2.6286,-2.7919,-2.9144,-2.9852,-2.9164,-2.7846,-2.5891,-2.455,-2.2674,-2.0029,-1.9968,-1.9647,-1.9198,-1.9402,-1.9564,-1.9704,-1.9801,-1.9542,-1.8633,-1.616,-1.4368,-1.3219,-1.0634,-0.9791,-0.9915,-1.0779,-1.1775,-1.2889,-1.4336,-1.5269,-1.609,-1.9572,-2.1055,0.0,-2.2537,-2.4018,-2.5408,-2.6299,-2.7725,-2.9076,-2.9613,-2.9208,-2.8009,-2.556,-2.3568,-2.2064,-2.1818,-2.0315,-1.9543,-2.1772,-2.2099,-2.2154,-2.3384,-2.5846,-2.8233,-2.979,-3.2249,-3.4625,-3.7063,-3.8858,-4.03,-4.1761,-4.2904,-4.3613,-4.3722,-4.4026,-4.4447,-4.4945,-4.5603,-4.6211,-4.664,-4.8253,-4.9366,-5.0134,-5.2548,-5.5383,-5.8357,-6.1548,-6.3935,-6.5204,-6.3508,-6.0935,-5.7087,-4.9159,-4.2522,-3.6901,-2.8111,-2.0727,-1.488,-1.1618,-0.9665,-0.8847,-1.0652,-1.1943,-1.2965,-1.3864,-1.3642,-1.2747,-1.0516,-0.9184,-0.7843,0.0,0.0,0.0,0.0,0.0,0.0,0.0,0.0,0.0,0.0,-2.0407,-2.2165,-2.3514,-2.4832,-2.5816,-2.6274,-2.7954,-2.9151,-2.9648,-2.9136,-2.7863,-2.5644,-2.4116,-2.2238,-1.9918,-1.9712,-1.967,-1.9499,-1.9564,-1.9682,-1.9844,-1.9542,-1.8967,-1.7951,-1.5154,-1.3226,-1.1963,-0.9472,-0.845,-0.8738,-1.0055,-1.0857,-1.1294,-1.2965,-1.358,-1.3767,-1.7652,-1.9077,-1.9475,-2.1032,-2.2498,-2.3983,-2.5588,-2.7209,-2.8929,-3.0319,-3.0007,-2.86,-2.6019,-2.476,-2.3944,-2.3245,-2.2326,-2.2228,-2.3799,-2.4486,-2.5072,-2.6373,-2.8823,-3.1357,-3.3142,-3.5429,-3.7742,-3.9922,-4.1016,-4.2138,-4.365,-4.3972,-4.3788,-4.3316,-4.4838,-4.6107,-4.6907,-4.7572,-4.8071,-4.8478,-4.9677,-5.0413,-5.0659,-5.3787,-5.6407,-5.862,-6.2528,-6.4877,-6.5541,-6.4004,-6.0917,-5.6173,-4.8311,-4.1293,-3.4713,-2.543,-1.7148,-1.0187,-1.0169,-1.0303,-1.0837,-1.2634,-1.4161,-1.5202,-1.564,-1.5424,-1.4081,-1.1407,-0.9184,-0.7175,0.0,0.0,0.0,0.0,0.0,0.0,0.0,0.0,0.0,0.0,-2.1077,-2.2895,-2.4586,-2.478,-2.535,-2.6596,-2.7713,-2.8638,-2.9082,-2.8152,-2.6803,-2.5172,-2.2939,-2.1158,-1.9918,-1.9448,-1.9262,-1.9499,-1.9725,-1.9844,-1.9844,-1.8633,-1.8133,-1.801,-1.4251,-1.1975,-1.0827,-0.8362,-0.7263,-0.7424,-0.8738,-0.9988,-1.0964,-1.1848,-1.2678,-1.352,-1.4492,-1.4557,-1.4471,-1.6728,-1.8852,-2.0956,-2.345,-2.6608,-2.9542,-3.0047,-2.9462,-2.818,-2.6539,-2.4838,-2.3271,-2.244,-2.2467,-2.2772,-2.3235,-2.5516,-2.7688,-2.7865,-3.0581,-3.3599,-3.5649,-3.7144,-3.8957,-4.1641,-4.2408,-4.3004,-4.3389,-4.382,-4.3909,-4.3033,-4.3397,-4.4375,-4.5687,-4.7439,-4.8803,-4.92,-4.9636,-5.0223,-5.1037,-5.3668,-5.6592,-5.9984,-6.273,-6.4341,-6.5001,-6.2798,-5.8745,-5.2858,-4.6618,-3.9994,-3.2948,-2.1222,-1.3838,-1.0101,-1.0015,-1.0837,-1.2525,-1.4309,-1.5197,-1.5424,-1.7197,-1.564,-1.2525,-1.2525,-1.0516,-0.7611,0.0,0.0,0.0,0.0,0.0,0.0,0.0,0.0,0.0,0.0,0.0,0.0,0.0,0.0,0.0,0.0,-2.7968,-2.8534,-2.8307,-2.6948,-2.5361,-2.3819,-2.1558,-2.0134,-1.9265,-1.8987,-1.9101,-1.9499,-1.9575,-1.9243,-1.8633,-1.8177,-1.7214,-1.5688,-1.364,-1.1561,-0.9657,-0.8006,-0.6696,-0.6038,-0.802,-0.9017,-0.9511,-1.1307,-1.1868,-1.2102,0.0,-1.383,-1.5558,-1.7481,-1.9557,-2.1754,-2.4398,-2.6209,-2.7719,-2.8597,-3.0089,-3.0764,-2.7858,-2.7122,-2.6937,-2.571,-2.5665,-2.5882,-2.6426,-2.788,-2.9563,-3.1524,-3.2643,-3.4309,-3.75,-3.8589,-3.9645,-4.1956,-4.3387,-4.4434,-4.5297,-4.5453,-4.4953,-4.297,-4.3368,-4.3842,-4.3995,-4.5915,-4.785,-4.9702,-5.0185,-5.125,-5.2752,-5.5821,-5.9124,-6.2199,-6.6079,-6.7824,-6.7299,-6.4009,-5.9008,-5.2185,-3.9597,-2.9254,-2.1434,-1.6422,-1.2465,-1.009,-1.1141,-1.2625,-1.4531,-1.6299,-1.6969,-1.6969,-1.6305,-1.452,-1.2298,-1.0293,-0.7611,-0.4933,0.0,0.0,0.0,0.0,0.0,0.0,0.0,0.0,0.0,0.0,0.0,0.0,0.0,0.0,0.0,0.0,0.0,-2.7561,-2.7172,-2.5889,-2.4491,-2.3035,-2.1279,-2.0029,-1.9232,-1.922,-1.9422,-2.0122,-1.9712,-1.9371,-1.8895,-1.8026,-1.6889,-1.5395,-1.3692,-1.2148,-1.081,-0.9417,-0.8265,-0.7607,-0.9198,-0.9579,-0.94,-1.1194,-1.163,0.0,-1.1462,-1.3155,-1.5436,-1.6851,-1.8507,-2.0505,-2.3178,-2.5397,-2.7302,-2.8575,-3.0921,-3.2468,-2.9721,-2.9958,-3.0511,-2.7936,-2.785,-2.8103,-2.7754,-2.891,-3.0542,-3.278,-3.313,-3.4092,-3.7427,-3.7467,-3.8053,-4.1009,-4.2962,-4.4608,-4.6273,-4.6115,-4.5162,-4.3671,-4.3002,-4.2968,-4.3139,-4.466,-4.6772,-4.957,-5.0803,-5.2369,-5.4416,-5.8344,-6.1878,-6.4785,-6.813,-6.9275,-6.775,-6.3095,-5.5651,-4.5686,-3.2616,-2.262,-1.5647,-1.3797,-1.2163,-1.0963,-1.2672,-1.4603,-1.6305,-1.7424,-1.7424,-1.676,-1.564,-1.3415,-1.0743,-0.8727,-0.5826,-0.2917,0.0,0.0,0.0,0.0,0.0,0.0,0.0,0.0,0.0,0.0,0.0,0.0,0.0,0.0,0.0,0.0,0.0,0.0,-2.5637,-2.4902,-2.389,-2.274,-2.1925,-2.1003,-1.9757,-1.9863,-2.0287,-2.1213,-2.0219,-1.9893,-2.0146,-1.8107,-1.7097,-1.699,-1.4473,-1.3469,-1.377,-1.2223,-1.1547,-1.1489,-1.2094,-1.153,-1.0531,-1.176,-1.1581,-1.0803,-1.1116,-1.2388,-1.3899,-1.4777,-1.6011,-1.7748,-2.0508,-2.4653,-2.8571,-2.9905,-3.193,-3.3417,-3.2208,-3.3198,-3.3572,-2.9348,-2.9065,-2.9184,-2.7201,-2.8495,-3.044,-3.1538,-3.2007,-3.286,-3.5425,-3.4215,-3.4522,-3.9296,-4.1529,-4.3628,-4.6721,-4.6086,-4.5271,-4.5217,-4.3117,-4.2086,-4.327,-4.4148,-4.6034,-4.9059,-5.1287,-5.3633,-5.6041,-6.0841,-6.4895,-6.7942,-6.938,-6.8839,-6.6135,-5.9431,-4.8653,-3.3829,-2.6192,-2.0005,-1.5514,-1.3613,-1.2672,-1.2898,-1.4586,-1.6299,-1.786,-1.786,-1.676,-1.5197,-1.4975,-1.2075,-0.806,-0.7834,-0.5377,-0.1794,0.0,0.0,0.0,0.0,0.0,0.0,0.0,0.0,0.0,0.0,0.0,0.0,0.0,0.0,0.0,0.0,0.0,0.0,-2.3144,-2.2736,-2.2227,-2.1415,-2.0921,-2.0635,-2.0693,-2.0203,-2.0206,-2.0612,-1.9464,-1.8692,-1.8233,-1.7098,-1.6338,-1.5729,-1.4636,-1.3727,-1.3174,-1.219,-1.1034,-1.0216,-1.1059,-1.0663,-0.9849,-1.1091,-1.1224,-1.0827,-1.1509,-1.2625,-1.4208,-1.5866,-1.9861,-2.444,-2.5629,-2.8309,-3.1468,-3.3222,-3.469,-3.5715,-3.6282,-3.6877,-3.623,-3.1748,-3.135,-3.1091,-2.7276,-2.7717,-2.8992,-2.9713,-2.9291,-2.9579,-3.2069,-3.2808,-3.4666,-3.9465,-4.2564,-4.5504,-4.8504,-4.8986,-4.8484,-4.7299,-4.6905,-4.6882,-4.7208,-4.8396,-5.0225,-5.2953,-5.3429,-5.5625,-6.0113,-6.4535,-6.8625,-7.1873,-7.2321,-7.0446,-6.6069,-5.0916,-3.8796,-2.9478,-2.2481,-1.786,-1.5422,-1.3583,-1.3348,-1.4702,-1.5032,-1.6299,-1.786,-1.6526,-1.564,-1.4969,-1.2298,-0.985,-0.7834,-0.5601,-0.3587,-0.157,0.0,0.0,0.0,0.0,0.0,0.0,0.0,0.0,0.0,0.0,0.0,0.0,0.0,0.0,0.0,0.0,0.0,0.0,0.0,-2.1743,-2.1391,-2.121,-2.0747,-2.0651,-2.0703,-2.04,-2.0411,-2.0849,-1.9845,-1.9193,-1.8946,-1.7681,-1.6891,-1.6377,-1.5523,-1.4944,-1.4428,-1.3625,-1.28,0.0,0.0,-1.1684,-1.059,-1.1544,-1.1322,-1.0615,-1.1773,-1.4451,-1.7879,-2.0639,-2.426,-2.7984,-2.9703,-3.2279,-3.4964,-3.6538,-3.8066,-3.9276,-3.9221,-3.9252,-3.8341,-3.37,-3.168,-2.9923,-2.6541,-2.6109,-2.6405,-2.6881,-2.6121,-2.6383,-2.9215,-3.0442,-3.2783,-3.8164,-4.269,-4.6701,-4.9934,-5.0753,-5.0786,-5.05,-4.9571,-4.9448,-5.0335,-5.1464,-5.366,-5.7251,-5.7526,-5.9323,-6.3729,-6.8585,-7.2005,-7.3986,-7.2718,-6.6884,-5.6147,-4.2709,-3.196,-2.4256,-1.9898,-1.6608,-1.3954,-1.3949,-1.4407,-1.5289,-1.612,-1.6533,-1.6533,-1.564,-1.4309,-1.2525,-1.0739,-0.8734,-0.6724,-0.4485,-0.2917,-0.157,0.0,0.0,0.0,0.0,0.0,0.0,0.0,0.0,0.0,0.0,0.0,0.0,0.0,0.0,0.0,0.0,0.0,0.0,0.0,0.0,-2.1093,-2.1562,-2.1071,-2.0697,-2.0568,-2.0473,-2.0743,-2.1423,-2.04,-1.9996,-2.0389,-1.8921,-1.8063,-1.7802,-1.6577,-1.6161,-1.6263,-1.5336,-1.5031,-1.502,-1.45,-1.3207,-1.1629,0.0,-1.1344,-1.0418,-1.226,-1.6808,-2.2484,-2.6645,-2.8753,-3.0328,-3.3682,-3.6511,-3.8824,-4.0144,-4.1872,-4.288,-4.138,-4.0822,-3.9644,-3.5185,-3.1442,-2.8149,-2.544,-2.4189,-2.3459,-2.3509,-2.3074,-2.353,-2.6523,-2.8023,-3.0766,-3.6809,-4.2551,-4.7408,-5.1304,-5.2124,-5.2719,-5.3952,-5.2359,-5.1703,-5.3424,-5.455,-5.7022,-6.1595,-6.2713,-6.4452,-6.752,-7.2379,-7.4634,-7.347,-6.9721,-5.9608,-4.2595,-3.4913,-2.7249,-1.9536,-1.8239,-1.6059,-1.3192,-1.4536,-1.5424,-1.564,-1.6969,-1.6754,-1.5197,-1.4758,-1.2525,-0.985,-0.9624,-0.7843,-0.5383,-0.4264,-0.2917,-0.157,0.0,0.0,0.0,0.0,0.0,0.0,0.0,0.0,0.0,0.0,-2.6663,-2.5733,0.0,0.0,0.0,0.0,0.0,0.0,0.0,0.0,0.0,-2.1527,-2.1233,-2.1267,-2.1607,-2.0643,-2.0394,-2.1134,-1.9363,-1.8863,-1.9782,-1.8813,-1.8236,-1.7803,-1.6664,-1.5989,-1.5494,-1.4301,-1.39,-1.3955,-1.322,-1.22,-1.1335,-1.1285,0.0,0.0,-1.4074,-1.802,-2.2564,-2.8278,-3.2272,-3.5511,-3.869,-4.0757,-4.2493,-4.5257,-4.4658,-4.3329,-4.3993,-4.2645,-3.974,-3.5361,-3.2729,-3.0232,-2.5312,-2.3024,-2.1816,-2.1019,-2.1163,-2.2097,-2.3869,-2.7688,-3.2498,-3.8191,-4.325,-4.7813,-5.2032,-5.4569,-5.6008,-5.6069,-5.6984,-5.7999,-5.8782,-6.0459,-6.269,-6.5629,-6.8488,-7.0876,-7.2584,-7.5787,-7.4219,-6.6838,-5.8189,-4.8517,-3.7581,-2.9888,-2.4118,-2.0262,-1.7177,-1.6077,-1.6969,-1.564,-1.6089,-1.7424,-1.6096,-1.543,-1.4975,-1.1862,-1.0293,-0.9627,-0.829,-0.6724,-0.5383,-0.5157,-0.3589,-0.1794,0.0,0.0,0.0,0.0,0.0,0.0,0.0,-2.7158,-2.8188,-2.9474,-2.9251,-2.845,-2.7229,-2.6092,-2.4943,0.0,0.0,0.0,0.0,0.0,0.0,-2.1104,-2.0968,-2.1095,-2.1543,-2.066,-2.0544,-2.1108,0.0,-1.9461,-1.9903,-1.8785,-1.8013,-1.7491,-1.594,-1.4936,-1.4371,-1.3175,-1.2628,-1.274,-1.2451,-1.2009,-1.17,-1.2126,0.0,0.0,-1.6047,-1.9876,-2.4162,-2.9186,-3.4136,-3.8665,-4.1891,-4.3885,-4.5008,-4.4794,-4.4589,-4.3769,-4.1718,-4.0794,-3.9391,-3.5446,-3.2517,-2.9595,-2.518,-2.2579,-2.0903,-1.985,-2.0158,-2.1427,-2.4233,-2.8366,-3.3035,-3.7971,-4.2515,-4.705,-5.1906,-5.4527,-5.6885,-5.8962,-6.0379,-6.1821,-6.3187,-6.3736,-6.5361,-6.8305,-7.0171,-7.2223,-7.4961,-7.3947,-6.886,-5.9019,-4.9857,-4.0482,-3.1118,-2.6253,-2.1756,-1.784,-1.7846,-1.7405,-1.6533,-1.6533,-1.6533,-1.6526,-1.5634,-1.4081,-1.2298,-1.0516,-0.9184,-0.8293,-0.7625,-0.6948,-0.6281,-0.5607,-0.4259,-0.2692,0.0,0.0,0.0,0.0,0.0,0.0,0.0,-2.9042,-3.0147,-3.1571,-3.1845,-3.1289,-2.9729,-2.7427,-2.5473,0.0,0.0,0.0,0.0,0.0,0.0,0.0,0.0,0.0,-2.1211,0.0,0.0,-2.1108,-2.0355,0.0,0.0,0.0,0.0,0.0,-1.533,-1.41,-1.346,-1.2449,-1.2174,0.0,0.0,-1.2404,-1.2703,0.0,0.0,0.0,0.0,-2.0893,-2.5102,-2.933,-3.4238,-3.9043,-4.2001,-4.45,-4.583,-4.3332,-4.3675,-4.3916,-3.9814,-3.941,-3.9287,-3.6044,-3.2715,-2.9097,-2.5505,-2.2745,-2.0792,-1.986,-2.0352,-2.1947,-2.5502,-2.9352,-3.3245,-3.7325,-4.1422,-4.593,-5.1058,-5.439,-5.7607,-6.1349,-6.3466,-6.5215,-6.6794,-6.6262,-6.695,-6.9459,-6.9097,-7.0399,-7.4225,-6.9403,-6.1725,-5.1439,-4.2807,-3.415,-2.5517,-2.3484,-2.0262,-1.5862,-1.8949,-1.8942,-1.5862,-1.676,-1.6533,-1.5197,-1.4309,-1.2525,-0.985,-0.94,-0.8517,-0.7175,-0.7175,-0.7175,-0.7175,-0.6057,-0.4933,-0.3365,0.0,0.0,0.0,0.0,0.0,0.0,0.0,-3.0316,-3.2288,-3.5082,-3.4157,-3.2765,-3.1639,-2.8776,-2.5946,0.0,0.0,0.0,0.0,0.0,0.0,0.0,0.0,0.0,0.0,0.0,0.0,-2.1108,-1.9906,0.0,0.0,0.0,0.0,0.0,0.0,-1.4663,-1.3448,-1.2975,0.0,0.0,0.0,0.0,0.0,0.0,0.0,0.0,0.0,-2.0106,-2.3278,-2.7918,-3.1728,-3.4832,-3.6887,-4.0685,-4.4147,-4.3385,-4.3272,-4.3149,-4.2106,-4.1662,-4.0705,-3.7422,-3.4557,-3.1344,-2.7009,-2.4204,-2.2236,-2.1465,-2.2856,-2.47,-2.6484,-3.0036,-3.3744,-3.6844,-4.0644,-4.4678,-4.9227,-5.5543,-6.025,-6.191,-6.6209,-6.9242,-6.92,-6.897,-6.8498,-6.7639,-6.514,-6.5159,-6.8399,-6.2564,-5.459,-4.5212,-3.6406,-2.8823,-2.263,-2.1343,-1.9618,-1.7632,-1.961,-1.961,-1.7632,-1.6089,-1.5424,-1.4975,-1.1634,-1.0077,-0.9627,-0.8067,-0.7398,-0.7175,-0.7175,-0.7175,-0.7175,-0.7175,-0.5607,-0.3589,0.0,0.0,0.0,0.0,0.0,0.0,-3.0269,-3.0897,-3.202,-3.501,-3.437,-3.3047,-3.1578,-2.9731,-2.7284,-2.3908,0.0,0.0,0.0,0.0,0.0,0.0,0.0,0.0,0.0,0.0,-2.0956,-2.1493,-1.9935,0.0,0.0,0.0,0.0,0.0,0.0,-1.3811,-1.3061,-1.2811,0.0,0.0,0.0,0.0,0.0,0.0,0.0,0.0,0.0,0.0,-2.2868,-2.5936,-2.9155,-3.1905,-3.1951,-3.4151,-3.7079,-3.9,-4.0986,-4.2193,-4.0973,-4.2342,-4.3435,-4.0092,-3.7211,-3.4289,-3.046,-2.6849,-2.4239,-2.423,-2.4959,-2.652,-2.9102,-3.1367,-3.3695,-3.626,-3.8254,-4.1369,-4.6536,-5.1563,-5.6685,-6.2107,-6.5803,-6.844,-6.9992,-6.7825,-6.5082,-6.1507,-5.8101,-5.5783,-5.4821,-5.2329,-4.6466,-3.6598,-3.047,-2.488,-1.9595,-2.114,-2.0717,-1.7867,-2.0694,-2.005,-1.6299,-1.543,-1.4081,-1.1862,-1.0516,-0.9184,-0.829,-0.7401,-0.7843,-0.8734,-0.7625,-0.7843,-0.8734,-0.7625,-0.5607,-0.3589,0.0,0.0,0.0,0.0,0.0,-2.7964,-3.1495,-3.1274,-3.1693,-3.4553,-3.3701,-3.2395,-3.1016,-2.9401,-2.7311,-2.4511,-2.3514,0.0,0.0,0.0,0.0,0.0,0.0,0.0,0.0,0.0,-2.1316,-2.1518,-2.0079,-1.897,0.0,0.0,-1.579,-1.4841,0.0,0.0,0.0,0.0,0.0,0.0,0.0,0.0,0.0,0.0,0.0,0.0,0.0,0.0,0.0,0.0,0.0,-2.8625,-2.7893,-2.8805,-3.1023,-3.4794,-3.8414,-4.0929,-4.0489,-4.3278,-4.5772,-4.3026,-3.9914,-3.678,-3.3779,-2.9596,-2.6408,-2.6949,-2.7399,-2.8432,-3.1064,-3.2764,-3.4148,-3.5631,-3.7062,-3.9642,-4.447,-4.8927,-5.4162,-6.0556,-6.3869,-6.6228,-6.7326,-6.3224,-5.9047,-5.5175,-5.0764,-4.6825,-4.3239,-4.1681,-3.749,-3.0282,-2.5732,-2.1732,-1.7867,-2.0921,-2.0921,-1.7867,-2.0262,-1.936,-1.5197,-1.4081,-1.2298,-0.985,-0.9156,-0.8268,-0.7175,-0.7153,-0.7828,-0.8957,-0.7616,-0.8067,-0.8957,-0.7616,-0.5607,-0.3589,0.0,0.0,0.0,0.0,0.0,0.0,-3.2013,-3.1555,-3.1678,-3.4111,-3.2318,-3.0753,-3.0474,-2.7505,-2.5509,-2.5335,-2.3468,0.0,0.0,0.0,0.0,0.0,0.0,0.0,0.0,0.0,-2.1446,-2.1049,-2.0058,-1.8544,-1.6635,-1.6621,-1.5506,-1.3534,0.0,0.0,0.0,0.0,0.0,0.0,0.0,0.0,-1.5969,0.0,0.0,0.0,0.0,0.0,0.0,0.0,0.0,0.0,0.0,-2.5739,-2.758,-3.1787,-3.5894,-3.9685,-4.164,-4.4995,-4.7651,-4.5991,-4.213,-3.8463,-3.6924,-3.2385,-2.8754,-2.9702,-3.0256,-3.0852,-3.1816,-3.3939,-3.5384,-3.4924,-3.7547,-4.0588,-4.3409,-4.9127,-5.3966,-5.6478,-6.0941,-6.2918,-6.0709,-5.4696,-5.0732,-4.9641,-4.3791,-3.8974,-3.6051,-3.0504,-2.7523,-2.7308,-2.2839,-1.9618,-1.7867,-1.9618,-1.9618,-1.786,-1.7826,-1.6937,-1.4975,-1.1407,-0.985,-0.9627,-0.8002,-0.7125,-0.7166,-0.7112,-0.7125,-0.7175,-0.7175,-0.7175,-0.7175,-0.7175,-0.5607,-0.3589,0.0,0.0,0.0,0.0,0.0,0.0,0.0,-2.9589,-2.9425,-3.1358,-2.991,-2.8849,-2.9268,-2.7032,-2.517,-2.4235,-2.2655,0.0,0.0,0.0,0.0,0.0,0.0,0.0,0.0,-2.1933,-2.1582,-2.1354,-1.9681,-1.8338,-1.7136,-1.5833,-1.4702,-1.3796,-1.3391,-1.3204,0.0,0.0,0.0,0.0,0.0,-1.5866,-1.6163,0.0,0.0,0.0,0.0,0.0,0.0,0.0,0.0,0.0,0.0,0.0,0.0,-2.9123,-3.3295,-3.7506,-4.0445,-4.2766,-4.3986,-4.2593,-4.0006,-3.7188,-3.5134,-3.2543,-3.0621,-3.0516,-3.1162,-3.1909,-3.2487,-3.3661,-3.4606,-3.4868,-3.7215,-3.9765,-4.1827,-4.6985,-5.1614,-5.4183,-5.6427,-5.6326,-5.2448,-4.7889,-4.4246,-4.2044,-3.7216,-3.3952,-3.3582,-2.8446,-2.5231,-2.4372,-2.0694,-1.8522,-1.786,-1.8487,-1.7826,-1.6089,-1.6059,-1.4282,-1.1407,-1.0293,-0.9156,-0.8002,-0.7365,-0.7139,-0.7117,-0.7139,-0.7828,-0.8957,-0.7616,-0.7843,-0.8734,-0.7616,-0.5607,-0.3589,0.0,0.0,0.0,0.0,0.0,0.0,0.0,-2.8135,-2.744,-2.8675,-2.7181,-2.6399,-2.7441,-2.5239,-2.3807,-2.3921,-2.2168,0.0,0.0,0.0,0.0,0.0,0.0,0.0,-2.1825,-2.1298,-2.0847,-2.0676,-1.9273,-1.7979,-1.6927,-1.5857,-1.5041,-1.4185,-1.3576,-1.3591,0.0,0.0,0.0,0.0,-1.5163,-1.5517,-1.5861,0.0,0.0,0.0,0.0,0.0,0.0,0.0,0.0,0.0,0.0,0.0,0.0,0.0,-3.0223,-3.401,-3.8617,-4.1211,-4.24,-4.1614,-3.9078,-3.6462,-3.4977,-3.2728,-3.0912,-3.0806,-3.1384,-3.1909,-3.1984,-3.2959,-3.3765,-3.3855,-3.5692,-3.7679,-3.9417,-4.3411,-4.7098,-4.972,-4.9762,-4.8097,-4.4303,-4.0221,-3.7113,-3.487,-3.107,-2.9416,-3.0419,-2.6559,-2.3756,-2.311,-2.0262,-1.8494,-1.7772,-1.7758,-1.6853,-1.5052,-1.4376,-1.2612,-0.9753,-0.9093,-0.8196,-0.7055,-0.7068,-0.7068,0.0,-0.7098,-0.7789,-0.8701,-0.7611,-0.7843,-0.8734,-0.7625,-0.5607,-0.3589,0.0,0.0,0.0,0.0,0.0,0.0,0.0,-2.6995,-2.5781,-2.6138,-2.4338,-2.3599,-2.5147,-2.2579,-2.1689,-2.3859,0.0,0.0,0.0,0.0,0.0,0.0,0.0,0.0,-2.0957,-2.0314,-1.965,-1.9153,-1.8685,-1.7654,-1.6113,-1.6623,-1.6172,-1.4733,-1.4206,-1.4333,-1.4739,-1.469,-1.4287,-1.3718,-1.5434,-1.5636,0.0,0.0,0.0,0.0,0.0,0.0,0.0,0.0,0.0,0.0,0.0,0.0,0.0,0.0,0.0,0.0,0.0,-3.9355,-4.148,-4.1432,-3.8688,-3.5801,-3.555,-3.2669,0.0,-3.0554,-3.0965,-3.1127,-3.076,-3.1957,-3.2752,-3.2253,-3.3526,-3.5021,-3.6495,-3.8872,-4.1474,-4.3852,-4.1922,-3.9241,-3.6737,-3.2642,-2.9746,-2.8743,-2.6102,-2.5263,-2.7197,-2.4617,-2.3337,-2.311,-2.1571,-1.974,-1.7425,-1.7425,-1.6468,-1.481,-1.2856,-1.1121,-0.9603,-0.7867,-0.7,-0.6989,-0.6937,-0.6946,-0.6992,-0.7,-0.7041,-0.7098,-0.7153,-0.7175,-0.7175,-0.7175,-0.5601,-0.3587,0.0,0.0,0.0,0.0,0.0,0.0,0.0,0.0,0.0,0.0,-2.3119,-2.2628,-2.2573,-2.1507,-2.0917,0.0,0.0,0.0,0.0,0.0,0.0,0.0,0.0,0.0,-2.0416,-2.0272,-1.9729,-1.894,-1.8645,-1.7861,-1.6743,-1.7245,-1.6777,-1.5509,-1.5963,-1.5992,-1.5607,-1.4761,-1.439,-1.4353,-1.4162,-1.421,0.0,0.0,0.0,0.0,-2.108,-2.2786,0.0,0.0,0.0,0.0,0.0,0.0,0.0,0.0,-2.6014,-2.7003,-2.922,0.0,-3.3086,-3.3118,-3.231,-3.1352,0.0,-3.0384,-3.0427,-2.9477,-2.9827,-3.0284,-3.0367,-3.0559,-3.1016,-3.2013,-3.3809,-3.5206,-3.5949,-3.803,-4.0384,-4.2949,-3.934,-3.5615,-3.2441,-2.9216,-2.6565,-2.4551,-2.3828,-2.4072,-2.5908,-2.5418,-2.4418,-2.311,-2.2527,-2.0481,-1.6319,-1.5778,-1.4844,-1.3517,-1.113,-0.9825,-0.9389,-0.787,-0.6976,-0.6932,-0.6965,-0.6959,-0.6937,-0.7027,-0.7076,-0.7098,-0.7153,-0.7175,-0.7175,-0.6057,-0.4914,-0.3555,0.0,0.0,0.0,0.0,0.0,0.0,0.0,0.0,0.0,0.0,0.0,0.0,0.0,0.0,0.0,0.0,0.0,0.0,0.0,0.0,0.0,0.0,-1.9729,-2.0079,-1.9964,-1.9987,-1.9637,-1.8933,-1.8884,-1.8601,-1.7937,-1.7955,-1.7579,-1.6894,-1.6954,-1.6386,-1.5405,-1.471,-1.4101,-1.3604,-1.372,0.0,0.0,0.0,0.0,0.0,-2.1712,-2.3565,0.0,-2.6942,-2.7238,-2.6953,0.0,0.0,0.0,0.0,-2.4225,-2.459,-2.479,-2.7401,-3.0113,-3.0162,-2.9986,-2.96,-2.8757,-2.886,-2.8983,-2.8157,-2.8525,-2.9076,-2.9547,-2.9252,-2.953,-3.1368,-3.168,-3.2199,-3.3693,-3.6044,-3.7888,-3.8414,-3.5118,-3.1542,-2.8093,-2.5072,-2.2583,-2.0523,-2.1283,-2.2371,-2.3973,-2.4383,-2.4017,-2.2847,-2.2011,-1.9593,-1.579,-1.5871,-1.4909,-1.293,-1.1424,-1.014,-0.9495,-0.7775,-0.6899,-0.6869,-0.6902,-0.6897,-0.6878,-0.7,-0.7049,-0.7055,-0.7112,-0.6908,-0.6238,-0.5547,-0.421,-0.2658,0.0,0.0,0.0,0.0,0.0,0.0,0.0,0.0,0.0,0.0,0.0,0.0,0.0,0.0,0.0,0.0,0.0,0.0,0.0,0.0,0.0,0.0,-1.9928,-2.0054,-1.9765,-1.9621,-1.9366,-1.8937,-1.9292,-1.9344,-1.9084,-1.8759,-1.8608,-1.8608,-1.7711,-1.6471,-1.5005,-1.4607,-1.3752,-1.2607,-1.3654,0.0,0.0,0.0,0.0,0.0,0.0,0.0,0.0,-2.7478,-2.8086,-2.7905,-2.7033,0.0,0.0,0.0,0.0,0.0,-2.2605,-2.6041,-2.9533,-2.9352,-2.9309,-2.9096,-2.847,-2.7747,-2.7168,-2.6826,-2.7295,-2.7921,-2.8282,-2.8385,-2.8823,-3.0329,-2.9367,-2.9278,-3.151,-3.3887,-3.4608,-3.3051,-3.0552,-2.758,-2.4098,-2.1138,-1.9001,-1.7794,-1.9325,-2.1029,-2.2699,-2.3099,-2.3126,-2.2539,-2.0653,-1.8514,-1.565,-1.6589,-1.5817,-1.3169,-1.253,-1.1474,-0.9996,-0.809,-0.7243,-0.7243,-0.6818,-0.6818,-0.6826,-0.694,-0.6987,-0.6992,-0.7055,-0.6411,-0.5299,-0.5043,-0.3733,-0.1768,0.0,0.0,0.0,0.0,0.0,0.0,0.0,0.0,0.0,0.0,0.0,0.0,0.0,0.0,0.0,0.0,0.0,0.0,0.0,0.0,0.0,-2.0709,-1.982,-1.9727,-2.049,-1.9532,-1.8979,-1.8947,-1.935,-1.945,-1.9096,-2.0761,-2.1014,-1.9813,-1.8263,-1.6979,-1.5964,-1.4511,-1.346,-1.2812,-1.3058,0.0,0.0,0.0,0.0,0.0,0.0,0.0,0.0,-2.9021,-2.8864,-2.7673,-2.6256,0.0,0.0,0.0,0.0,0.0,-2.4246,-2.6245,-2.7503,-2.65,-2.7104,-2.7761,-2.673,-2.674,-2.674,-2.6143,-2.6698,-2.6957,-2.5995,-2.8191,-2.9925,-2.9195,-3.0522,-3.2201,-3.3368,-3.2412,-3.1607,-3.1102,-2.853,-2.5285,-2.2021,-2.0547,-1.9507,-1.9341,-2.1168,-2.2884,-2.4413,-2.4596,-2.4055,-2.253,-2.0653,-1.8463,-1.5521,-1.6452,-1.6367,-1.4862,-1.4224,-1.3802,-1.3591,-1.042,-0.8936,-0.8936,-0.7453,-0.6818,-0.6823,-0.6894,-0.6924,-0.6929,-0.6989,-0.6355,-0.5256,-0.4155,-0.2846,-0.1756,0.0,0.0,0.0,0.0,0.0,0.0,0.0,0.0,0.0,0.0,0.0,0.0,0.0,0.0,0.0,0.0,0.0,0.0,0.0,-2.1664,-2.2224,-2.2294,-2.1578,-2.1145,-2.1062,-2.1075,-2.0924,-2.0742,-2.0942,-2.1168,-2.113,-2.1279,-2.0615,-1.9114,-1.7641,-1.6658,-1.6193,-1.4148,-1.296,-1.2417,0.0,0.0,0.0,0.0,0.0,0.0,0.0,0.0,0.0,0.0,-2.869,-2.8081,-2.5573,0.0,0.0,0.0,0.0,0.0,-2.3565,-2.6069,-2.8037,-2.7578,-2.8648,-2.9579,-2.8457,-2.8213,-2.8106,-2.7872,-2.7933,-2.8089,-2.8436,-2.9083,-2.9292,-2.8442,-3.0469,-3.1751,-3.1005,-2.9924,-2.8839,-2.7812,-2.585,-2.3708,-2.1847,-2.1247,-2.0845,-2.0845,-2.2696,-2.3564,-2.336,-2.3536,-2.275,-2.0969,-1.9212,-1.7706,-1.6234,-1.6802,-1.6348,-1.5283,-1.4651,-1.485,-1.5679,-1.1258,-0.9988,-1.061,-0.7874,-0.6818,-0.6823,-0.6883,-0.6908,-0.691,-0.6288,-0.5428,-0.4128,-0.2184,-0.1317,-0.0662,0.0,0.0,0.0,0.0,0.0,0.0,0.0,0.0,0.0,0.0,0.0,0.0,0.0,0.0,0.0,0.0,0.0,0.0,0.0,-2.2328,-2.2962,-2.3121,-2.2939,-2.2577,-2.2029,-2.2079,-2.2305,-2.2453,-2.2201,-2.2572,-2.3447,-2.184,-2.0411,-1.9141,-1.7376,-1.6258,-1.5648,-1.3717,-1.22,-1.121,0.0,0.0,0.0,0.0,0.0,0.0,0.0,0.0,0.0,0.0,0.0,0.0,0.0,0.0,0.0,-2.2187,-2.2078,-2.2672,-2.3949,-2.656,-2.9166,-2.9799,-3.0833,-3.1634,-3.1228,-3.0883,-3.066,-3.0426,-3.0388,-3.0606,-3.1013,-2.9923,-2.8889,-2.8817,-3.0173,-3.0427,-2.8157,-2.7381,-2.6521,-2.4988,-2.3635,-2.2606,-2.2149,-2.1959,-2.2166,-2.2581,-2.3975,-2.3994,-2.259,-2.23,-2.1481,-1.9477,-1.7811,-1.6978,-1.6978,-1.6978,-1.6558,-1.571,-1.5283,-1.5697,-1.6728,-1.2103,-1.0619,-1.1662,-0.8296,-0.6818,-0.682,-0.6869,-0.6888,-0.6674,-0.5594,-0.4309,-0.281,-0.0656,0.022,0.0444,0.0,0.0,0.0,0.0,0.0,0.0,0.0,0.0,0.0,0.0,0.0,0.0,0.0,0.0,0.0,0.0,0.0,0.0,0.0,-2.1951,-2.2419,-2.2392,-2.2938,-2.3313,-2.3569,-2.1388,-2.1123,-2.2794,-2.175,-2.2631,-2.5214,-2.3134,-2.2038,-2.1427,-1.8737,-1.6339,-1.4245,-1.3285,-1.1319,-0.8906,-1.046,0.0,0.0,0.0,0.0,0.0,0.0,0.0,0.0,0.0,0.0,0.0,0.0,0.0,-2.407,-2.3966,-2.3687,-2.4047,-2.7295,-2.8759,-3.0032,-3.2383,-3.2577,-3.2547,-3.3759,-3.4222,-3.4222,-3.3248,-3.4447,-3.4588,-3.1302,-3.0232,-3.0252,-3.1482,-3.0378,-2.8787,-2.6399,-2.5787,-2.5008,-2.3431,-2.2633,-2.2149,-2.1959,-2.1959,-2.2581,-2.4019,-2.4451,-2.4461,-2.4235,-2.2797,-2.1353,-1.9469,-1.7811,-1.6978,-1.6978,-1.6978,-1.6978,-1.6978,-1.6768,-1.6978,-1.6768,-1.3375,-1.1685,-1.1685,-0.8299,-0.6818,-0.6818,-0.6823,-0.6823,-0.661,-0.5545,-0.3858,-0.1732,-0.044,0.0664,0.1772,0.0,0.0,0.0,0.0,0.0,0.0,0.0,0.0,0.0,0.0,0.0,-2.2883,-2.2478,-2.0661,-1.9552,0.0,0.0,0.0,-2.1213,-2.2419,-2.2926,-2.2611,-2.2963,-2.2586,-2.1467,-2.1925,-2.3058,-2.4701,-2.5353,-2.5798,-2.5914,-2.3619,-2.1881,-2.0502,-1.8339,-1.631,-1.4335,-1.3658,-1.1904,-0.9752,-1.0888,-1.1855,0.0,0.0,0.0,0.0,0.0,0.0,0.0,0.0,-2.7179,-2.6724,-2.4937,-2.4849,-2.5285,-2.5135,-2.4896,-2.5421,-2.8005,-2.9725,-3.1317,-3.2674,-3.4477,-3.5957,-3.6716,-3.7339,-3.7812,-3.7742,-3.6517,-3.4892,-3.2577,-3.0087,-2.8901,-3.0666,-2.8168,-2.5472,-2.4193,-2.3469,-2.271,-2.2418,-2.3146,-2.3409,-2.3409,-2.4451,-2.5285,-2.5902,-2.4939,-2.3836,-2.2793,-2.1157,-1.9513,-1.7869,-1.7349,-1.6978,-1.6978,-1.802,-1.8641,-1.8641,-1.7398,-1.7608,-1.8432,-1.4007,-1.2525,-1.3143,-0.872,-0.6818,-0.6818,-0.6818,-0.6392,-0.5543,-0.3644,-0.1944,-0.0436,0.0658,0.1323,0.1991,0.0,0.0,0.0,0.0,0.0,0.0,0.0,0.0,0.0,0.0,0.0,0.0,0.0,-2.0485,-1.9428,0.0,0.0,0.0,-2.1328,-2.2662,-2.3148,-2.2638,-2.2809,-2.2212,-2.0713,-2.329,-2.4864,-2.5242,-2.7679,-2.7911,-2.6341,-2.3966,-2.21,-2.0643,-1.8494,-1.6732,-1.5264,-1.4547,-1.2758,-1.0532,-1.1797,-1.2607,0.0,0.0,0.0,0.0,0.0,0.0,0.0,0.0,-2.6579,-2.6187,-2.5509,-2.5848,-2.6531,-2.6575,-2.6618,-2.7021,-2.8446,-3.0141,-3.1715,-3.2619,-3.5413,-3.8301,-3.9638,-3.981,-4.0018,-4.1172,-3.8543,-3.5332,-3.3143,-3.0009,-2.8057,-2.8765,-2.5479,-2.2769,-2.2367,-2.1738,-2.1705,-2.2651,-2.3981,-2.5049,-2.5676,-2.6723,-2.7349,-2.7349,-2.5481,-2.3517,-2.1865,-1.9971,-1.8313,-1.668,-1.6781,-1.7044,-1.7661,-1.8692,-1.9513,-1.9927,-1.8329,-1.7963,-1.8619,-1.4002,-1.2309,-1.2505,-0.8508,-0.6818,-0.6818,-0.6818,-0.5976,-0.4284,-0.2377,-0.0871,0.0657,0.1317,0.2419,0.396,0.0,0.0,0.0,0.0,0.0,0.0,0.0,0.0,-2.64,-2.6108,-2.4618,0.0,0.0,0.0,0.0,0.0,-2.0482,0.0,-2.1642,-2.2569,-2.2884,-2.2337,-2.2361,-2.2274,-2.2045,-2.525,-2.6072,-2.4516,-2.7663,-2.8313,-2.6695,-2.4238,-2.3019,-2.252,-1.9628,-1.773,-1.6594,-1.5736,-1.3473,-1.0811,-1.294,-1.3763,-1.409,0.0,0.0,0.0,0.0,0.0,0.0,0.0,-2.6501,-2.5931,-2.7516,-2.7781,-2.7717,-2.8513,-2.888,-2.8983,-2.921,-3.0061,-3.1202,-3.2531,-3.5413,-3.8883,-4.265,-4.1579,-4.0608,-4.317,-4.0519,-3.6515,-3.2678,-2.9922,-2.7743,-2.6066,-2.2593,-2.043,-2.0811,-2.1256,-2.2057,-2.3896,-2.5328,-2.6691,-2.8348,-2.8552,-2.8552,-2.8552,-2.5878,-2.3508,-2.1856,-1.9857,-1.8149,-1.6517,-1.6517,-1.7334,-1.8955,-1.8955,-1.976,-2.1168,-1.9726,-1.8248,-1.6714,-1.3364,-1.1051,-0.936,-0.7453,-0.6818,-0.6818,-0.6818,-0.5353,-0.324,-0.2181,-0.0219,0.1753,0.1766,0.4181,0.7625,0.0,0.0,0.0,0.0,0.0,0.0,0.0,0.0,-2.6418,-2.5627,-2.4397,0.0,0.0,0.0,0.0,0.0,0.0,-2.0889,-2.1642,-2.2207,-2.2354,-2.1861,-2.2519,-2.2333,-2.1128,-2.5103,-2.8246,-3.0627,-3.1447,-3.0298,-2.7153,-2.423,-2.1382,-1.8633,-1.8191,-1.6929,-1.5147,-1.609,-1.5055,-1.2885,-1.4477,-1.4614,-1.388,0.0,0.0,0.0,0.0,0.0,0.0,0.0,0.0,0.0,-2.6962,-2.7945,-2.8654,-2.9115,-2.9425,-2.9976,-3.0807,-3.1651,-3.2745,-3.4328,-3.7604,-4.1041,-4.288,-4.2857,-4.1946,-3.9869,-3.5799,-3.2367,-3.1818,-2.7499,-2.4349,-2.5148,-2.1401,-1.8689,-1.9219,-2.0542,-2.2296,-2.4881,-2.6465,-2.7963,-2.9545,-2.8797,-2.7874,-2.6638,-2.4011,-2.1617,-1.9662,-1.8008,-1.6773,-1.6374,-1.748,-1.8353,-1.8955,-2.1186,-2.2599,-2.3001,-2.0198,-1.8268,-1.6574,-1.3332,-1.1051,-0.936,-0.7453,-0.6818,-0.6605,-0.5113,-0.3627,-0.2141,-0.0864,0.0434,0.1952,0.3908,0.5853,0.8203,0.0,0.0,0.0,0.0,0.0,0.0,-2.7033,-2.6906,-2.6627,-2.5755,-2.4544,-2.3538,0.0,0.0,0.0,-2.0305,-2.048,-2.0889,-2.1642,-2.2098,-2.2152,-2.1901,-2.2919,-2.3845,-2.4857,-2.8445,-3.15,-3.3883,-3.2634,-3.0137,-2.6568,-2.4115,-2.1168,-1.7789,-1.8477,-1.7451,-1.536,-1.7012,-1.612,-1.3878,-1.5358,-1.512,-1.4067,0.0,0.0,0.0,0.0,0.0,0.0,0.0,0.0,0.0,-2.7334,-2.8357,-2.9155,-2.9731,-3.0296,-3.1042,-3.1961,-3.2969,-3.4275,-3.631,-3.95,-4.228,-4.254,-4.2422,-4.0713,-3.4962,-3.2139,-3.0184,-2.8968,-2.558,-2.3062,-2.3348,-2.086,-1.9328,-2.0329,-2.1831,-2.3561,-2.6029,-2.8031,-2.9327,-3.044,-2.9331,-2.8015,-2.6379,-2.3174,-2.061,-1.8907,-1.725,-1.6218,-1.6218,-1.7903,-1.8946,-1.9557,-2.2158,-2.3561,-2.3561,-2.0393,-1.7647,-1.5302,-1.2176,-0.996,-0.8302,-0.6818,-0.6179,-0.5967,-0.3623,-0.2349,-0.1501,0.0,0.1296,0.2807,0.5603,0.7732,0.9843,0.0,0.0,-2.8013,-2.7769,0.0,-2.7911,-2.6722,-2.683,-2.6822,-2.6142,-2.4844,-2.371,0.0,0.0,0.0,-2.0382,-2.0529,-2.0979,-2.1731,-2.2098,-2.2428,-2.2373,-2.3617,-2.65,-3.1283,-3.3591,-3.4651,-3.4462,-3.1847,-2.8878,-2.581,-2.4161,-2.1923,-1.9061,-1.9621,-1.8744,-1.6933,-1.8104,-1.6729,-1.382,-1.5467,-1.5314,-1.4128,-1.5224,0.0,0.0,0.0,0.0,0.0,0.0,0.0,0.0,-2.8299,-2.9058,-2.9453,-3.0223,-3.1255,-3.2309,-3.3032,-3.4254,-3.6038,-3.8549,-4.0968,-4.2293,-4.1314,-4.0372,-3.7448,-2.9825,-2.9325,-2.9082,-2.5034,-2.404,-2.3221,-2.1468,-2.0801,-2.1153,-2.3111,-2.4288,-2.5809,-2.7421,-2.9579,-3.0916,-3.0942,-2.9738,-2.8508,-2.6661,-2.3106,-2.0232,-1.8636,-1.6907,-1.6049,-1.6062,-1.7627,-1.9405,-2.0799,-2.2573,-2.3365,-2.318,-1.9957,-1.6827,-1.3626,-1.06,-0.844,-0.6818,-0.5541,-0.5115,-0.4689,-0.2557,-0.1714,-0.1295,0.0863,0.2588,0.3878,0.6883,0.9626,1.2319,0.0,0.0,-2.75,-2.7832,0.0,0.0,-2.6411,-2.5963,-2.5705,-2.5607,-2.4249,-2.3185,-2.3056,-2.1701,0.0,-2.0817,-2.1266,-2.1713,-2.2176,-2.2659,-2.3016,-2.3317,-2.6094,-2.902,-3.1777,-3.2229,-3.2563,-3.291,-3.2387,-3.041,-2.7084,-2.5066,-2.244,-1.9524,-1.9543,-1.8792,-1.7688,-1.7494,-1.6087,-1.4119,-1.5572,-1.473,-1.2738,-1.4886,-1.6951,0.0,0.0,0.0,0.0,0.0,0.0,0.0,-2.8721,-2.9364,-2.9902,-3.0386,-3.203,-3.3848,-3.4885,-3.6176,-3.802,-4.1041,-4.1176,-3.9871,-3.7192,-3.4458,-3.2248,-3.0817,-2.7486,-2.481,-2.4969,-2.2546,-2.0833,-2.1538,-2.0919,-2.1302,-2.3648,-2.4442,-2.6015,-2.9541,-3.0215,-3.0395,-3.0624,-2.8474,-2.5928,-2.3401,-2.065,-1.8247,-1.637,-1.5945,-1.5784,-1.59,-1.8622,-2.0251,-2.0799,-2.3551,-2.4351,-2.317,-1.8616,-1.5512,-1.3626,-1.06,-0.844,-0.6818,-0.5541,-0.4687,-0.3623,-0.2344,-0.1067,-0.0214,0.1069,0.3203,0.5756,0.8518,1.1478,1.4013,0.0,0.0,0.0,0.0,0.0,0.0,0.0,0.0,-2.5611,-2.5437,-2.4183,-2.3185,-2.2867,-2.1725,0.0,0.0,-2.198,-2.2511,-2.2441,-2.3281,-2.4263,-2.5243,-2.7514,-2.9736,-3.1804,-3.1937,-3.2113,-3.24,-3.1971,-3.0176,-2.7221,-2.5247,-2.3248,-2.1135,-2.0682,-1.9604,-1.8264,-1.7924,-1.6105,-1.38,-1.5343,-1.4487,-1.2652,-1.5881,-1.8276,-2.0261,-2.272,0.0,0.0,0.0,0.0,0.0,0.0,0.0,-3.0927,-3.1251,-3.317,-3.5088,-3.5265,-3.758,-4.054,-4.2846,-4.1042,-3.8062,-3.5697,-3.1586,-2.8063,-2.7285,-2.492,-2.282,-2.2291,-2.1471,-2.0945,-2.1685,-2.2795,-2.3981,-2.5321,-2.6489,-2.8008,-2.9949,-3.0406,-3.0114,-2.9165,-2.7117,-2.4673,-2.111,-1.9212,-1.7448,-1.5642,-1.5642,-1.5676,-1.575,-1.8834,-2.0465,-2.0659,-2.3004,-2.3451,-2.1986,-1.7195,-1.3295,-1.0198,-0.8703,-0.7552,-0.6563,-0.4869,-0.382,-0.3195,-0.1492,-0.0213,0.0853,0.2131,0.4258,0.7016,0.998,1.2525,1.4645,0.0,0.0,0.0,0.0,0.0,0.0,0.0,0.0,0.0,-2.5328,-2.4108,-2.3173,-2.2766,-2.1695,-2.0997,0.0,0.0,0.0,-2.253,-2.4016,-2.5531,-2.7063,-2.8359,-2.984,-3.1615,-3.1977,-3.2166,-3.2253,-3.1148,-2.9802,-2.7918,-2.624,-2.4961,-2.4085,-2.2779,-2.1267,-1.9666,-1.8696,-1.6335,-1.3249,-1.4855,-1.4456,-1.3399,-1.7321,-2.0193,-2.2558,-2.5583,-2.8366,-3.0783,-3.1699,0.0,0.0,0.0,0.0,-3.1776,-3.2136,-3.3826,-3.5525,-3.5082,-3.8419,-4.2176,-4.3175,-3.9978,-3.6338,-3.4946,-2.9929,-2.5031,-2.2829,-2.2016,-2.1165,-1.9779,-2.08,-2.1965,-2.2372,-2.4966,-2.6944,-2.7133,-2.8674,-2.9899,-2.9858,-3.0395,-2.9704,-2.6958,-2.5627,-2.3341,-1.9526,-1.8208,-1.6892,-1.556,-1.556,-1.5574,-1.5601,-1.8647,-2.0263,-2.0456,-2.2038,-2.1948,-2.0354,-1.5209,-1.0493,-0.6537,-0.6378,-0.6229,-0.6292,-0.42,-0.3166,-0.2976,-0.0639,0.0853,0.1918,0.3196,0.5534,0.8504,1.1051,1.3169,1.5072,0.0,0.0,0.0,0.0,0.0,0.0,0.0,0.0,0.0,0.0,-2.3514,-2.236,-2.2698,-2.1695,-2.1177,-2.1553,-2.2176,-2.2706,-2.2969,0.0,0.0,-2.6914,-2.9161,-3.0603,-3.1205,-3.1168,-3.1234,-3.1663,-3.0701,-3.0946,-3.23,-3.0015,-2.9114,-2.9348,-2.6016,-2.4055,-2.3068,-1.936,-1.5975,-1.3426,-1.4855,-1.49,-1.4713,-1.8708,-2.2244,-2.5441,-2.8144,-3.0906,-3.3418,-3.4322,-3.4555,0.0,0.0,0.0,-3.1754,-3.18,-3.2759,-3.3982,-3.5302,-3.8109,-4.0515,-3.9939,-3.7274,-3.4349,-3.1945,-2.8251,-2.459,-2.1526,-1.9043,-1.8152,-2.0657,-2.0904,-2.1711,-2.4294,-2.6235,-2.7522,-2.8444,-2.9052,-2.9775,-3.0478,-2.9922,-2.8483,-2.5763,-2.3303,-2.0814,-1.7866,-1.6365,-1.543,-1.5242,-1.5242,-1.5303,-1.5438,-1.846,-2.0061,-2.0254,-2.1971,-2.1284,-1.8379,-1.24,-0.8471,-0.6474,-0.5466,-0.5111,-0.5198,-0.3771,-0.2735,-0.1687,0.0637,0.1492,0.1918,0.4048,0.7019,0.9976,1.1469,1.4013,1.6768,0.0,0.0,0.0,0.0,0.0,0.0,0.0,0.0,0.0,0.0,0.0,-2.2457,-2.2473,-2.1891,-2.1553,-2.2087,-2.3212,-2.4354,-2.51,-2.5518,-2.613,-2.7259,-2.8316,-2.933,-3.0132,-2.9863,-3.0024,-3.0769,-3.0348,-3.1871,-3.5336,-3.467,-3.4316,-3.3987,-2.9859,-2.7271,-2.5767,-2.1372,-1.7941,-1.5424,-1.7054,-1.7822,-1.8611,-2.2898,-2.6303,-2.9105,-3.1903,-3.3904,-3.5467,-3.617,-3.6033,-3.5292,-3.4331,0.0,0.0,0.0,-3.1852,-3.3262,-3.5672,-3.6132,-3.6261,-3.7643,-3.5787,-3.3002,-3.0583,-2.7525,-2.4508,-2.1272,-1.9084,-1.8294,-2.05,-2.1303,-2.2298,-2.4384,-2.657,-2.812,-2.8665,-2.9443,-2.9808,-2.9808,-2.854,-2.6351,-2.3272,-2.1215,-1.8964,-1.6306,-1.5556,-1.5181,-1.5181,-1.5181,-1.5215,-1.5282,-1.8273,-1.9859,-2.0052,-2.072,-1.8736,-1.4048,-1.0613,-0.764,-0.5606,-0.5004,-0.4853,-0.4941,-0.3101,-0.2077,-0.1462,0.0843,0.2115,0.275,0.4467,0.7659,1.1253,1.1685,1.4013,1.6978,0.0,0.0,0.0,0.0,0.0,0.0,0.0,0.0,0.0,0.0,0.0,-2.258,-2.2441,0.0,0.0,0.0,-2.4251,-2.5508,-2.6365,-2.6238,-2.6476,-2.7392,-2.7678,-2.8287,-2.9197,-2.8821,-2.9093,-2.9934,-3.0327,-3.2929,-3.7456,-3.8519,-3.92,-3.9524,-3.4518,-3.1163,-2.8825,-2.4175,-2.1108,-1.9234,-2.0121,-2.1409,-2.3409,-2.7407,-3.0489,-3.2882,-3.5305,-3.6642,-3.731,-3.763,-3.701,-3.59,-3.4907,-3.3408,0.0,0.0,0.0,-3.1645,-3.4177,-3.3327,-3.2418,-3.5207,-3.3888,-3.1542,-2.9499,-2.7032,-2.4415,-2.178,-2.0414,-2.0231,-2.1282,-2.2152,-2.3173,-2.4592,-2.6918,-2.8629,-2.8629,-2.9528,-2.966,-2.8744,-2.6894,-2.4404,-2.1298,-1.9472,-1.7451,-1.5252,-1.5106,-1.5126,-1.5126,-1.516,-1.5181,-1.5181,-1.7787,-1.915,-1.9296,-1.8576,-1.5513,-1.0321,-0.8982,-0.6991,-0.4774,-0.4565,-0.4201,-0.3658,-0.224,-0.1433,-0.1032,0.1252,0.2519,0.3576,0.5505,0.8491,1.1897,1.2319,1.4434,1.6978,0.0,0.0,0.0,0.0,0.0,0.0,0.0,0.0,0.0,0.0,0.0,-2.2441,-2.2441,-2.3038,-2.3454,-2.3454,-2.4509,-2.5211,-2.5317,-2.6343,-2.6971,-2.6993,-2.8105,0.0,-2.868,-2.8633,-2.8799,-2.9258,-3.0923,-3.4152,-3.8863,-4.0438,-4.3347,-4.6936,-4.0324,-3.5737,-3.2878,-2.757,-2.5319,-2.5417,-2.3888,-2.521,-2.8378,-3.1205,-3.4034,-3.6534,-3.7637,-3.8503,-3.9025,-3.8617,-3.7529,-3.6331,-3.5521,-3.3482,-3.102,0.0,0.0,0.0,-2.918,-2.996,-3.0644,-3.1586,-3.0661,-2.9299,-2.8627,-2.6631,-2.4601,-2.2977,-2.3204,-2.3892,-2.3892,-2.3889,-2.4209,-2.5634,-2.7644,-2.8911,-2.8911,-2.9098,-2.8749,-2.7861,-2.5701,-2.3197,-2.0686,-1.8364,-1.6393,-1.476,-1.4903,-1.4984,-1.4984,-1.5113,-1.5181,-1.5181,-1.6673,-1.7608,-1.7616,-1.4728,-1.1859,-0.894,-0.7298,-0.5919,-0.4774,-0.3746,-0.2171,-0.0399,-0.1207,-0.101,0.0,0.2268,0.3339,0.3783,0.7561,1.0341,1.2108,1.3591,1.5493,1.6978,0.0,0.0,0.0,0.0,0.0,0.0,0.0,0.0,-2.4847,0.0,0.0,0.0,0.0,-2.38,-2.38,-2.4509,-2.5359,-2.603,-2.6467,-2.7144,-2.7401,-2.7175,-2.7833,-2.8187,-2.8163,-2.8163,-2.8688,-2.9812,-3.0932,-3.4206,-3.9308,-4.0995,-4.3372,-4.6195,-4.2454,-3.891,-3.5689,-3.1439,-2.8852,-2.7554,-2.8216,-3.0086,-3.2869,-3.5752,-3.8062,-3.99,-4.0554,-4.0634,-4.0235,-3.9648,-3.8088,-3.6049,-3.4819,-3.2289,-2.932,-2.6952,-2.6184,-2.639,-2.7306,-2.802,-2.8796,-3.0118,-2.9255,-2.7836,-2.7241,-2.6279,-2.5126,-2.3381,-2.3994,-2.4909,-2.4909,-2.5311,-2.5885,-2.6423,-2.7693,-2.8764,-2.8764,-2.8233,-2.7593,-2.6896,-2.3743,-2.1048,-1.9761,-1.7081,-1.5279,-1.474,-1.4794,-1.4869,-1.4964,-1.5018,-1.5086,-1.5181,-1.6673,-1.6845,-1.5903,-1.3963,-1.1589,-0.8585,-0.6463,-0.4702,-0.3712,-0.1946,-0.0779,0.0,0.0197,0.0998,0.2022,0.309,0.3742,0.4798,0.8009,1.0386,1.2108,1.3802,1.5493,1.6978,0.0,0.0,0.0,-2.743,0.0,-2.6396,-2.6268,-2.5751,-2.5301,-2.4834,0.0,0.0,0.0,0.0,-2.4829,-2.5779,-2.6279,-2.6798,-2.7394,-2.7719,-2.7719,-2.7476,-2.7881,-2.8042,-2.7881,-2.8369,-2.9076,-3.0074,-3.1368,-3.4322,-3.8827,-4.0547,-4.2783,-4.5395,-4.3398,-4.1233,-3.8729,-3.5766,-3.3648,-3.2393,-3.3212,-3.52,-3.7833,-4.033,-4.2169,-4.3482,-4.3579,-4.3047,-4.2019,-4.0567,-3.8446,-3.6121,-3.4157,-3.0846,-2.7174,-2.4877,-2.4625,-2.5234,-2.5898,-2.6619,-2.7551,-2.912,-2.8035,-2.6498,-2.6594,-2.5909,-2.4727,-2.3538,-2.4639,-2.5822,-2.5908,-2.6443,-2.6796,-2.6796,-2.78,-2.8457,-2.8457,-2.759,-2.6782,-2.6102,-2.2431,-1.9776,-1.9044,-1.6197,-1.459,-1.459,-1.4638,-1.4706,-1.4814,-1.4916,-1.5038,-1.5174,-1.6112,-1.5723,-1.3645,-1.26,-1.0563,-0.7147,-0.5626,-0.388,-0.2127,-0.0771,0.0386,0.0972,0.1371,0.1981,0.2616,0.3075,0.3932,0.5401,0.8843,1.0813,1.2108,1.4434,1.592,1.6978,-2.5735,-2.72,-2.8454,-2.8118,-2.7921,-2.7452,-2.6643,-2.6045,-2.5559,-2.515,0.0,0.0,0.0,0.0,0.0,-2.7113,-2.7277,-2.7417,-2.7881,-2.7881,-2.7962,-2.7881,-2.8283,-2.8363,-2.7962,-2.927,-2.9965,-3.0063,-3.22,-3.4667,-3.7405,-3.9237,-4.193,-4.5125,-4.3353,-4.2424,-4.1934,-4.0106,-3.9614,-3.9959,-3.8774,-4.0294,-4.3319,-4.471,-4.6058,-4.7184,-4.6717,-4.5734,-4.4218,-4.1312,-3.8797,-3.6393,-3.36,-2.9133,-2.4776,-2.3651,-2.3894,-2.4633,0.0,0.0,0.0,-2.8472,-2.6858,-2.5293,-2.6645,-2.5179,-2.3562,-2.3458,-2.4936,-2.6401,-2.6694,-2.6758,-2.677,-2.677,-2.763,-2.8136,-2.8136,-2.7304,-2.6443,-2.5409,-2.2105,-1.9516,-1.8488,-1.5873,-1.4299,-1.4299,-1.4428,-1.4509,-1.4509,-1.4801,-1.5031,-1.5174,-1.5174,-1.3852,-1.0645,-1.0645,-0.8599,-0.4641,-0.4596,-0.2872,0.0,0.0,0.1156,0.2943,0.1964,0.158,0.1796,0.2846,0.4117,0.5604,1.0036,1.1806,1.2319,1.571,1.6978,1.6978,-2.6925,-2.8039,-2.9077,-2.9867,-2.9405,-2.9067,-2.94,-2.9106,-2.8473,0.0,0.0,0.0,-2.6052,-2.6731,-2.715,-2.678,-2.8009,-2.8574,-2.7928,-2.8443,-2.8657,-2.8363,-2.8736,-2.8895,-2.8736,-2.9568,-3.0394,-3.1044,-3.2426,-3.4175,-3.6298,-3.704,-3.9103,-4.2011,-4.1184,-4.1376,-4.2275,-4.0402,-4.0827,-4.2582,-4.1499,-4.3265,-4.6586,-4.676,-4.7797,-4.9106,-4.9541,-4.8448,-4.6545,-4.4248,-4.075,-3.6282,-3.0493,-2.7033,-2.4968,-2.4667,-2.5021,-2.5593,-2.6295,0.0,0.0,0.0,0.0,0.0,-2.5114,-2.4739,-2.4093,-2.4449,-2.5732,-2.6635,-2.6066,-2.6033,-2.6236,-2.6452,-2.6825,-2.7461,-2.8136,-2.6783,-2.5227,-2.4006,-2.0905,-1.8313,-1.7096,-1.5352,-1.4299,-1.4299,-1.434,-1.4407,-1.4509,-1.4699,-1.4875,-1.5025,-1.6124,-1.4679,-1.0645,-1.1768,-0.9694,-0.4594,-0.3052,-0.1526,0.0,0.1537,0.2133,0.1964,0.1582,0.1995,0.282,0.3284,0.5172,0.8297,1.0944,1.2716,1.4013,1.6131,1.6978,1.6978,-2.7434,-2.8768,-3.0038,-3.0813,-3.0816,-3.0865,-3.1225,-3.0653,-2.9969,0.0,0.0,0.0,-2.6431,-2.7127,-2.745,-2.6594,-2.7787,-2.8356,-2.7741,-2.7951,-2.8155,-2.8283,-2.8554,-2.8809,-2.9212,-2.9899,-3.0753,-3.1889,-3.2481,-3.3384,-3.4625,-3.5552,-3.7056,-3.8946,-3.9279,-4.038,-4.2032,-4.1009,-4.1984,-4.4507,-4.4984,-4.6982,-4.9648,-5.017,-5.1116,-5.2215,-5.2359,-5.1038,-4.8745,-4.6163,-4.1258,-3.5106,-2.89,-2.6476,-2.5828,-2.4841,-2.6027,-2.7603,-2.7345,-2.7716,-2.8106,-2.7669,0.0,0.0,-2.4623,-2.3634,-2.2848,-2.3536,-2.4429,-2.5072,-2.4882,-2.4591,-2.4862,-2.5969,-2.5828,-2.6351,-2.7755,-2.6525,-2.4838,-2.3347,-2.0337,-1.7972,-1.6577,-1.5175,-1.4299,-1.4299,-1.4299,-1.436,-1.4502,-1.4597,-1.4713,-1.4869,-1.639,-1.497,-1.0578,-1.1731,-0.9479,-0.4002,-0.1905,-0.0191,0.1342,0.2507,0.2728,0.2173,0.2185,0.2602,0.3235,0.4528,0.6836,0.9331,1.1186,1.2958,1.4651,1.6341,1.6978,1.6978,0.0,-2.9553,-3.1117,-3.1352,-3.2197,-3.2794,-3.2595,-3.1689,-3.0861,0.0,-2.848,-2.6967,-2.6578,-2.7243,-2.7441,-2.6711,-2.7236,-2.7654,-2.7606,-2.7273,-2.7325,-2.7962,-2.8203,-2.8635,-2.9229,-3.0238,-3.1267,-3.2315,-3.2417,-3.2597,-3.3028,-3.4524,-3.5583,-3.6344,-3.7575,-3.9331,-4.1442,-4.169,-4.3329,-4.5994,-4.8375,-5.0528,-5.2472,-5.385,-5.4957,-5.5742,-5.5052,-5.3196,-5.0585,-4.6703,-4.0538,-3.3612,-2.8569,-2.7253,-2.7085,-2.5156,-2.7399,-3.0095,-2.8442,-2.935,-3.0603,-2.9185,-2.6287,0.0,-2.477,-2.2752,-2.0989,-2.1802,-2.2374,-2.2916,-2.3186,-2.2922,-2.3194,-2.5046,-2.4715,-2.5163,-2.7397,-2.6205,-2.4585,-2.2807,-2.0086,-1.7797,-1.6225,-1.4999,-1.4299,-1.4299,-1.4299,-1.4353,-1.4482,-1.4489,-1.4557,-1.4888,-1.6308,-1.5101,-1.0669,-1.1121,-0.8527,-0.2858,-0.0762,0.1148,0.3089,0.3096,0.3129,0.2982,0.2987,0.3005,0.3436,0.6373,0.828,0.9744,1.1396,1.3169,1.4862,1.6348,1.6978,1.6978,-2.9806,-3.0765,-3.1816,-3.3118,-3.374,-3.434,-3.5251,-3.4607,-3.35,-3.2156,-2.8543,-2.6396,-2.6816,-2.6884,-2.7073,-2.7373,-2.8174,-2.8623,-2.843,-2.8521,-2.8578,-2.8363,-2.9469,-2.9782,-2.912,-3.0567,-3.1421,-3.1702,-3.2144,-3.2627,-3.3202,-3.3521,-3.4466,-3.5815,-3.5956,-3.7744,-4.0747,-4.2654,-4.5119,-4.7793,-4.8423,-5.1319,-5.5184,-5.4965,-5.5776,-5.6972,-5.6143,-5.4266,-5.1052,-4.3873,-3.8566,-3.4316,-3.0917,-2.9381,-2.8793,-2.8837,-3.0285,-3.1792,-3.2262,-3.2187,-3.1622,-3.0389,-2.7694,0.0,-2.4738,-2.3122,-2.1867,-2.2351,-2.2227,-2.1932,-2.1346,-2.1618,-2.2384,-2.3625,-2.4252,-2.5289,-2.7065,-2.507,-2.2829,-2.1408,-1.853,-1.6225,-1.4822,-1.4476,-1.4299,-1.4299,-1.4299,-1.4312,-1.434,-1.434,-1.4935,-1.6152,-1.6687,-1.554,-1.2135,-1.1486,-0.8145,-0.1714,0.019,0.1907,0.3059,0.3108,0.2549,0.1773,0.18,0.2418,0.3436,0.6373,0.9105,1.1395,1.3284,1.5072,1.6558,1.6768,1.6978,1.6978,-3.0044,-3.107,-3.2299,-3.3492,-3.4622,-3.5764,-3.6968,-3.5683,-3.4124,-3.292,-2.9084,-2.6415,-2.6218,-2.6851,-2.7282,-2.7207,-2.812,-2.8321,-2.7671,-2.7326,-2.7162,-2.7348,-2.815,-2.906,-3.0053,-3.0726,-3.1648,-3.2874,-3.2573,-3.2718,-3.3219,-3.3844,-3.4343,-3.4995,-3.6114,-3.7712,-3.9768,-4.2173,-4.5223,-4.8517,-5.0762,-5.3307,-5.5766,-5.6775,-5.7172,-5.7134,-5.6447,-5.3396,-4.8624,-4.1725,-3.7714,-3.5066,-3.1692,-3.0988,-3.1328,-3.1146,-3.2752,-3.455,-3.4104,-3.4307,-3.4122,-3.2137,-2.9425,0.0,0.0,-2.3067,-2.1327,-2.1049,-2.04,-1.9887,-1.9495,-1.9843,-2.065,-2.1894,-2.2643,-2.3581,-2.5063,-2.3877,-2.2094,-2.0229,-1.7871,-1.5783,-1.4469,-1.4299,-1.4299,-1.4299,-1.4299,-1.4299,-1.4299,-1.4999,-1.5734,-1.6518,-1.6674,-1.5195,-1.1657,-1.0092,-0.6412,-0.0762,0.1333,0.2674,0.3073,0.3118,0.2558,0.1584,0.2207,0.2624,0.3436,0.7809,1.0548,1.1807,1.3703,1.5493,1.6978,1.6978,1.6978,1.6978,-2.9752,-3.1019,-3.2425,-3.3318,-3.5059,-3.6619,-3.7601,-3.5702,-3.3692,-3.2203,-2.9095,-2.674,-2.6149,-2.731,-2.8107,-2.8208,-2.8386,-2.8274,-2.763,-2.6628,-2.6187,-2.6662,-2.7227,-2.8515,-3.0823,-3.1061,-3.1982,-3.3669,-3.2946,-3.2828,-3.3219,-3.4297,-3.4769,-3.4811,-3.6777,-3.8317,-3.9718,-4.1821,-4.5123,-4.9272,-5.3237,-5.4904,-5.5391,-5.7868,-5.7997,-5.6649,-5.5597,-5.1406,-4.5622,-4.0491,-3.7665,-3.5645,-3.2293,-3.2552,-3.384,-3.3153,-3.5198,-3.7444,-3.6092,-3.6854,-3.733,-3.408,-3.1634,-2.9125,0.0,0.0,0.0,-1.9505,-1.8711,-1.8159,-1.7981,-1.8496,-1.9166,-2.0195,-2.0974,-2.1726,-2.2447,-2.213,-2.1126,-1.9275,-1.7145,-1.5292,-1.4414,-1.4231,-1.4238,-1.4292,-1.4245,-1.4238,-1.4299,-1.5352,-1.6049,-1.6042,-1.5816,-1.3977,-1.0465,-0.7795,-0.4132,0.0381,0.2477,0.3253,0.3086,0.3123,0.2365,0.1391,0.2612,0.323,0.3638,0.9034,1.1372,1.1807,1.4127,1.571,1.6978,1.6978,1.6978,1.6978,-3.0086,-3.0654,-3.1632,-3.3267,-3.4844,-3.6091,-3.639,-3.5298,-3.276,-2.8354,-2.7201,-2.7209,-2.814,-2.8528,-2.9779,-3.259,-3.0947,-3.0171,-3.1134,-2.9782,-2.8757,-2.8291,-3.0098,-3.0758,-3.0112,-3.1993,-3.2635,-3.1776,-3.2698,-3.3063,-3.2969,-3.424,-3.5468,-3.6675,-3.6892,-3.9009,-4.2417,-4.3047,-4.6327,-5.135,-5.3544,-5.4326,-5.4391,-5.667,-5.679,-5.5504,-5.2599,-4.8478,-4.3935,-4.0522,-3.7976,-3.5997,-3.4221,-3.4552,-3.5519,-3.5785,-3.7889,-4.0022,-4.0217,-4.0877,-4.0388,-3.6523,-3.4246,-3.1407,-2.5978,0.0,-2.2076,-1.9756,0.0,-1.8368,-1.7816,0.0,0.0,-1.9385,-2.0718,-2.1306,-1.9761,-1.8808,-1.8375,-1.8463,-1.5869,-1.4098,-1.4082,-1.3973,-1.4007,-1.4278,-1.4048,-1.4014,-1.4285,-1.4476,-1.4462,-1.4604,-1.2604,-1.0735,-0.8824,-0.4834,-0.1506,0.1333,0.3431,0.4004,0.3055,0.3114,0.1963,0.0197,0.2404,0.323,0.3437,0.7809,1.0347,1.2014,1.5388,1.6768,1.6978,1.6978,1.6978,1.6978,-2.9377,-3.0492,-3.184,-3.2803,-3.4097,-3.5404,-3.6552,-3.4984,-3.2298,-2.8814,-2.8197,-2.8615,-3.018,-3.0554,-3.1381,-3.3155,-3.2178,-3.109,-3.0354,-2.9642,-2.923,-2.9093,-3.0367,-3.1559,-3.2646,-3.3306,-3.3696,-3.368,-3.3816,-3.3974,-3.4052,-3.5139,-3.6346,-3.7666,-3.8631,-4.0751,-4.3585,-4.5065,-4.768,-5.1014,-5.2974,-5.338,-5.3225,-5.7161,-5.7084,-5.4512,-5.0972,-4.7052,-4.3145,-4.0412,-3.7779,-3.5719,-3.5014,-3.5638,-3.6645,-3.736,-3.9059,-4.0632,-4.0791,-4.1499,-4.118,-3.753,-3.5599,-3.3096,-2.7435,-2.4844,-2.303,-2.0605,0.0,0.0,0.0,0.0,0.0,0.0,-1.9244,-1.9094,-1.8259,-1.6642,-1.5795,-1.6419,-1.4609,-1.3424,-1.3661,-1.362,-1.3709,-1.4007,-1.3838,-1.3851,-1.415,-1.4949,-1.5337,-1.4794,-1.2171,-0.9918,-0.8197,-0.3322,0.0187,0.2457,0.3231,0.3431,0.3051,0.2334,0.1374,0.0197,0.2203,0.323,0.3437,0.7607,1.014,1.2014,1.4546,1.6131,1.6978,1.6978,1.7032,1.7093,-2.8881,-3.0303,-3.1795,-3.246,-3.3383,-3.4396,-3.5421,-3.3596,-3.1331,-2.9283,-2.9106,-2.9912,-3.2202,-3.273,-3.3526,-3.5027,-3.4385,-3.3197,-3.1479,-3.0926,-3.0667,-3.0931,-3.1472,-3.2826,-3.5073,-3.4613,-3.4517,-3.4871,-3.488,-3.4975,-3.4982,-3.6328,-3.7718,-3.9056,-4.0811,-4.2723,-4.492,-4.691,-4.9241,-5.1688,-5.3065,-5.3597,-5.3751,-5.6546,-5.6131,-5.348,-4.9908,-4.6105,-4.2267,-4.01,-3.7743,-3.5586,-3.5703,-3.6466,-3.7485,-3.8136,-3.9605,-4.0932,-4.1034,-4.1661,-4.1383,-3.7838,-3.5975,-3.3572,-2.8001,-2.5469,-2.3565,-2.125,-2.0141,0.0,0.0,0.0,-1.8763,-1.823,0.0,-1.7342,-1.6245,-1.4634,-1.3925,-1.4735,-1.3742,-1.3057,-1.3315,-1.3268,-1.3356,-1.3695,-1.3512,-1.3566,-1.3987,-1.4799,-1.4892,-1.3912,-1.0879,-0.8425,-0.6341,-0.1469,0.1859,0.3569,0.3793,0.381,0.3432,0.2334,0.1374,0.059,0.2403,0.323,0.3437,0.7607,1.014,1.1807,1.3703,1.5493,1.6985,1.7026,1.7107,1.7175,-2.9098,-2.9958,-3.1032,-3.2315,-3.2876,-3.2793,-3.1662,-3.0548,-2.9466,-2.8676,-2.8985,-3.0687,-3.3957,-3.4809,-3.6478,-3.991,-3.8361,-3.7095,-3.7071,-3.5244,-3.4299,-3.471,-3.4415,-3.4967,-3.64,-3.5923,-3.5079,-3.3952,-3.5483,-3.6014,-3.548,-3.7653,-3.9634,-4.1456,-4.2984,-4.4715,-4.6779,-4.8134,-5.0916,-5.4336,-5.446,-5.5729,-5.7145,-5.3809,-5.2738,-5.256,-4.918,-4.5036,-4.1075,-3.9649,-3.7709,-3.6074,-3.6504,-3.7408,-3.8187,-3.8228,-3.9698,-4.1439,-4.1685,-4.1948,-4.1437,-3.7601,-3.51,-3.2235,-2.6804,-2.5186,-2.3887,-2.0897,-2.1333,-2.152,-1.9644,-1.9929,-1.9597,-1.713,-1.7304,0.0,0.0,-1.2974,-1.334,-1.4034,-1.3468,-1.3017,-1.3166,-1.2922,-1.2935,-1.3383,-1.301,-1.3078,-1.381,-1.2993,-1.2073,-1.09,-0.7691,-0.4677,-0.2365,0.1288,0.3534,0.4508,0.55,0.5527,0.4577,0.3501,0.2355,0.1573,0.2603,0.323,0.3437,0.7607,1.014,1.1807,1.3703,1.5493,1.6998,1.7134,1.7188,1.7195,-3.0719,-3.1358,-3.1907,-3.1907,-3.1825,-3.165,-3.1559,-3.1137,-3.1246,-3.2052,-3.1794,-3.3093,-3.7362,-3.7426,-3.8476,-4.1629,-4.0902,-4.0058,-3.9483,-3.8799,-3.8459,-3.8605,-3.8339,-3.8484,-3.8929,-3.8161,-3.7069,-3.573,-3.6587,-3.6916,-3.6707,-3.792,-3.9978,-4.2667,-4.3615,-4.5547,-4.8069,-4.9791,-5.1214,-5.2482,-5.404,-5.6336,-5.8309,-5.5132,-5.3188,-5.1824,-4.8577,-4.4695,-4.1035,-4.027,-3.8221,-3.6191,-3.7187,-3.7788,-3.8466,-3.9437,-4.0404,-4.1366,-4.2125,-4.2245,-4.1001,-3.643,-3.4391,-3.1858,-2.5056,-2.3913,-2.3306,-2.0262,-2.0769,-2.1574,-2.1032,-2.049,-1.9555,-1.7984,-1.683,-1.5432,0.0,-1.2263,-1.2066,-1.2386,-1.263,-1.2637,-1.2596,-1.2501,-1.2583,-1.2929,-1.2246,-1.2064,-1.2675,-1.2027,-1.1161,-1.0268,-0.6589,-0.412,-0.2699,0.1832,0.4261,0.4463,0.4916,0.4956,0.4577,0.2723,0.1767,0.1573,0.2803,0.3242,0.367,0.7626,1.0174,1.1909,1.3736,1.5549,1.7127,1.7175,1.7256,1.7344,-3.1503,-3.1593,-3.1754,-3.2193,-3.1674,-3.1182,-3.1141,-3.1209,-3.1973,-3.3767,-3.3637,-3.4994,-3.9391,-3.9825,-4.0901,-4.3899,-4.3924,-4.3359,-4.237,-4.2571,-4.2598,-4.2498,-4.1715,-4.1573,-4.2264,-4.0499,-3.8764,-3.725,-3.7929,-3.8191,-3.8015,-3.8648,-4.0364,-4.3074,-4.4589,-4.6054,-4.7741,-5.0681,-5.188,-5.2226,-5.5059,-5.6854,-5.7737,-5.6056,-5.4137,-5.1759,-4.8337,-4.4744,-4.1678,-4.0976,-3.9364,-3.7859,-3.8728,-3.9552,-4.0339,-4.0901,-4.1389,-4.1792,-4.2011,-4.0946,-3.8817,-3.4815,-3.2611,-2.9841,-2.4077,-2.3171,-2.3062,-2.0939,-2.1448,-2.2226,-2.2125,-2.1102,-1.9539,-1.7812,-1.6079,-1.4344,0.0,-1.1399,-1.114,-1.1525,-1.1965,-1.2099,-1.1756,-1.1965,-1.2025,-1.2004,-1.1434,-1.1305,-1.1891,-1.1003,-1.0027,-0.9158,-0.6071,-0.3412,-0.1611,0.2204,0.4271,0.4997,0.5098,0.4956,0.4577,0.2918,0.1767,0.1573,0.2814,0.3257,0.3688,0.828,1.0847,1.1958,1.4388,1.6003,1.7202,1.7256,1.7372,1.7494,-3.1438,-3.0793,-3.0825,-3.2872,-3.2282,-3.1229,-3.028,-3.0559,-3.1577,-3.3765,-3.4527,-3.6341,-4.0194,-4.1903,-4.3863,-4.679,-4.7433,-4.7094,-4.5884,-4.6674,-4.6931,-4.6573,-4.4667,-4.4461,-4.6126,-4.2848,-4.0194,-3.8423,-3.9354,-3.9677,-3.9324,-3.9665,-4.0828,-4.2788,-4.5656,-4.6443,-4.5877,-5.0671,-5.2994,-5.3658,-5.7105,-5.7432,-5.5966,-5.6361,-5.4994,-5.2321,-4.8495,-4.5231,-4.2523,-4.17,-4.1017,-4.0678,-4.1188,-4.2495,-4.3687,-4.2591,-4.2513,-4.2564,-4.1253,-3.8406,-3.5308,-3.2697,-2.9575,-2.6503,-2.3593,-2.3162,-2.3164,-2.2649,-2.315,-2.3681,-2.2959,-2.1467,-1.9521,-1.6885,-1.5122,-1.3343,-1.1145,-1.0512,-1.0536,-1.1261,-1.1496,-1.143,-1.0983,-1.1345,-1.1299,-1.0828,-1.0583,-1.0793,-1.1438,-0.9932,-0.8683,-0.7731,-0.5396,-0.2536,0.0717,0.2405,0.4114,0.5929,0.6044,0.5527,0.4577,0.3501,0.2551,0.1573,0.2832,0.3276,0.3896,0.9577,1.1953,1.2176,1.566,1.708,1.7236,1.7378,1.7528,1.7629,-3.1367,-3.1474,-3.1442,-3.0676,-3.0335,-3.0147,-3.0202,-3.0202,-3.123,-3.4388,-3.5313,-3.7357,-4.1938,-4.3805,-4.5885,-4.9108,-4.9882,-5.0698,-5.1832,-5.1665,-5.1809,-5.2568,-5.1072,-4.9647,-4.8306,-4.5897,-4.3287,-4.04,-4.003,-3.9653,-3.9492,-3.9363,-4.0216,-4.2058,-4.4723,-4.568,-4.5573,-4.9809,-5.2573,-5.4175,-5.6087,-5.6884,-5.6837,-5.5551,-5.3809,-5.1626,-4.87,-4.5544,-4.2593,-4.2102,-4.1433,-4.0921,-4.2635,-4.3578,-4.4242,-4.5568,-4.4804,-4.3321,-4.3047,-3.9338,-3.4801,-3.206,-2.8805,-2.5542,-2.1882,-2.1941,-2.2429,-2.0485,-2.149,-2.2525,-2.1673,-2.0206,-1.8433,-1.6471,-1.3866,-1.1776,-1.0588,-1.078,-1.1005,-1.0824,-1.0662,-1.0693,-1.0547,-1.0643,-1.0486,-0.9831,-0.9302,-0.9065,-0.9463,-0.7665,-0.6714,-0.6537,-0.3391,-0.0908,0.0725,0.2969,0.4689,0.5992,0.5306,0.4766,0.4577,0.2725,0.1767,0.1573,0.2832,0.4106,0.5574,1.0016,1.2624,1.3979,1.6227,1.7297,1.7534,1.7575,1.7684,1.7772,-3.1416,-3.1616,-3.1309,-2.9618,-2.9502,-3.0117,-3.1089,-3.0979,-3.205,-3.5898,-3.713,-3.9405,-4.3702,-4.6439,-4.9027,-5.1722,-5.2978,-5.3961,-5.4875,-5.493,-5.5058,-5.5418,-5.3994,-5.2363,-5.069,-4.8169,-4.5288,-4.1971,-4.0958,-4.0139,-3.9482,-3.8903,-3.9412,-4.0995,-4.399,-4.5,-4.4667,-4.895,-5.2092,-5.4354,-5.5455,-5.6085,0.0,-5.531,-5.3424,-5.0986,-4.9258,-4.6547,-4.3679,-4.2889,-4.2704,-4.3107,-4.4548,-4.5851,-4.6843,-4.7796,-4.6555,-4.457,-4.2844,-3.8494,-3.3694,-3.0246,-2.7277,-2.4423,-2.1785,-2.1741,-2.2201,-2.1253,-2.1794,-2.2282,-2.2099,-2.0419,-1.8168,-1.5507,-1.279,-1.0825,-1.0684,-1.0825,-1.0851,-1.0934,-1.0921,-1.0637,-0.9935,-0.9883,-0.957,-0.8865,-0.8479,-0.8398,-0.8626,-0.6805,-0.5549,-0.5156,-0.2689,-0.0367,0.1833,0.3181,0.4338,0.5261,0.4744,0.4204,0.3263,0.195,0.1578,0.1593,0.2853,0.4137,0.5838,1.0085,1.2475,1.3607,1.635,1.7439,1.765,1.7717,1.7758,1.7738,-3.1334,-3.1266,-3.0817,-2.9075,-2.9653,-3.082,-3.2476,-3.2342,-3.351,-3.7594,-3.9651,-4.2125,-4.5582,-4.9408,-5.2492,-5.4374,-5.5865,-5.6684,-5.6594,-5.7066,-5.7216,-5.6929,-5.5322,-5.3954,-5.3085,-5.0074,-4.6812,-4.35,-4.1982,-4.0641,-3.9419,-3.8479,-3.8695,-3.9993,-4.3331,-4.4516,-4.4349,-4.8416,-5.1693,-5.4232,-5.4901,-5.5145,-5.5179,-5.522,-5.3384,-5.0656,-4.9925,-4.7682,-4.4912,-4.3881,-4.458,-4.5997,-4.6697,-4.8498,-5.0098,-4.9411,-4.8085,-4.5954,-4.1436,-3.6746,-3.232,-2.8224,-2.5568,-2.3778,-2.2327,-2.2072,-2.2251,-2.3067,-2.286,-2.2644,-2.2973,-2.108,-1.8177,-1.4326,-1.2072,-1.0909,-1.1389,-1.0928,-1.0766,-1.1362,-1.1319,0.0,-0.9303,-0.9052,-0.8563,-0.7855,-0.7972,-0.8039,-0.8022,-0.6452,-0.5071,-0.3642,-0.2531,-0.037,0.2781,0.2836,0.3421,0.4336,0.4191,0.3268,0.1552,0.1373,0.1392,0.1818,0.2886,0.4176,0.5678,1.0167,1.2127,1.302,1.6239,1.7528,1.7684,1.7792,1.7738,1.7602,-3.0125,-3.0078,-2.9816,-2.8098,-3.0117,-3.2491,-3.4039,-3.3592,-3.4405,-3.8194,-4.159,-4.5012,-4.8603,-5.1736,-5.4446,-5.6611,-5.7086,-5.7958,-5.969,-5.9011,-5.912,-6.0367,-5.8942,-5.7339,-5.5797,-5.2541,-4.9165,-4.5788,-4.2952,-4.0766,-3.9151,-3.8957,-3.9237,-3.9887,-4.2677,-4.555,-4.8264,-4.9611,-5.1421,-5.3497,-5.4074,-5.468,-5.5078,-5.423,-5.288,-5.1261,-4.9558,-4.7395,-4.5134,-4.5844,-4.6167,-4.6697,-4.8888,-5.0161,-5.0936,-5.1198,-4.9201,-4.591,-4.1297,-3.6676,-3.214,-2.7356,-2.5215,-2.3869,-2.275,-2.2557,-2.2557,-2.2729,-2.2512,-2.2164,-2.1655,-1.9782,-1.7493,-1.4485,-1.3675,-1.2904,-1.1511,-1.1645,-1.1689,-1.1202,-1.0542,-0.9803,-0.9441,-0.9253,-0.8627,-0.7119,-0.7229,-0.6817,-0.5979,-0.4591,-0.3464,-0.2254,-0.1078,0.0368,0.1686,0.172,0.2314,0.3272,0.2527,0.176,0.1568,0.0598,0.0805,0.1819,0.2904,0.4826,0.7564,1.0589,1.3705,1.6479,1.7183,1.7589,1.7812,1.7717,1.7589,1.746,-3.0403,-3.0519,-3.0477,-2.9393,-3.1247,-3.356,-3.5101,-3.6287,-3.8003,-4.0946,-4.3669,-4.6509,-4.9814,-5.2681,-5.4992,-5.6647,-5.7603,-5.8719,-6.0175,-5.9762,-5.9728,-6.0613,-5.9607,-5.8144,-5.6315,-5.3296,-5.0317,-4.7384,-4.3731,-4.104,-3.9312,-3.8804,-3.8667,-3.8783,-4.1863,-4.5647,-4.977,-5.0033,-5.1361,-5.3314,-5.3946,-5.438,-5.4641,-5.3815,-5.2335,-5.0617,-5.002,-4.8217,-4.6027,-4.6544,-4.7016,-4.7859,-4.9352,-5.0124,-5.0455,-4.971,-4.762,-4.4315,-3.907,-3.4874,-3.1046,-2.6633,-2.4696,-2.3562,-2.2826,-2.2686,-2.2686,-2.2686,-2.2589,-2.2299,-2.1588,-1.9912,-1.7979,-1.5906,-1.4718,-1.3725,-1.2278,-1.2273,-1.198,-1.1207,-1.0756,-1.0028,-0.8982,-0.8274,-0.7465,-0.6089,-0.6083,-0.5651,-0.4421,-0.3319,-0.2482,-0.1923,-0.072,0.0554,0.1514,0.1529,0.1729,0.2304,0.1746,0.1172,0.0786,0.0801,0.1421,0.2665,0.3756,0.5479,0.7408,1.0657,1.3567,1.6124,1.7074,1.767,1.7846,1.7704,1.7555,1.7412,-3.1308,-3.1529,-3.1595,-3.0979,-3.2663,-3.4612,-3.6254,-3.9038,-4.1738,-4.3676,-4.5602,-4.7871,-5.0725,-5.307,-5.5038,-5.6447,-5.7515,-5.8645,-5.9728,-5.9481,-5.9438,-5.9726,-5.9017,-5.801,-5.6624,-5.3864,-5.1262,-4.8773,-4.498,-4.2105,-4.006,-3.9302,-3.883,-3.8822,-4.2158,-4.6001,-4.9885,-5.0302,-5.1545,-5.3314,-5.3946,-5.4369,-5.4406,-5.353,-5.2065,-5.0465,-5.0392,-4.9148,-4.7474,-4.7353,-4.7971,-4.8748,-4.9479,-4.9865,-4.9742,-4.7724,-4.539,-4.2287,-3.6272,-3.2742,-2.991,-2.5774,-2.4566,-2.3982,-2.3159,-2.3031,-2.2859,-2.2686,-2.2643,-2.2428,-2.1814,-2.0569,-1.9091,-1.719,-1.5814,-1.4438,-1.2965,-1.2718,-1.2265,-1.1164,-1.1083,-1.0207,-0.8183,-0.7029,-0.5914,-0.439,-0.4794,-0.4476,-0.3199,-0.2366,-0.1819,-0.1581,-0.0538,0.0551,0.1515,0.1335,0.1339,0.153,0.1355,0.0978,0.0395,0.1208,0.2458,0.3748,0.4622,0.5926,0.7671,1.0704,1.3165,1.5038,1.6896,1.7684,1.7806,1.7219,1.685,1.67,-3.2364,-3.237,-3.2274,-3.2007,-3.4238,-3.6409,-3.7489,-4.0942,-4.381,-4.505,-4.7453,-4.9939,-5.2137,-5.3586,-5.5069,-5.697,-5.6861,-5.7324,-5.8852,-5.8016,-5.7701,-5.8495,-5.7867,-5.7581,-5.7735,-5.519,-5.2748,-5.0253,-4.7593,-4.4843,-4.1997,-4.1549,-4.162,-4.2342,-4.5505,-4.7507,-4.86,-5.0384,-5.188,-5.3221,-5.3946,-5.4637,-5.5024,-5.298,-5.224,-5.2025,-5.0123,-4.9439,-4.9311,-4.9361,-4.9346,-4.9421,-5.0131,-5.0265,-4.9718,-4.7098,-4.4177,-4.0276,-3.3626,-3.1487,-2.9891,-2.4987,-2.5204,-2.6078,-2.4395,-2.3892,-2.372,-2.2859,-2.2514,-2.2288,-2.2008,-2.1755,-2.0673,-1.7593,-1.7144,-1.6203,-1.3471,-1.3119,-1.2681,-1.1615,-1.0803,-0.9366,-0.6849,-0.5937,-0.4577,-0.218,-0.3059,-0.3129,-0.1872,-0.171,-0.1286,-0.0174,0.0,0.054,0.1484,0.0572,0.058,0.1546,0.0591,0.0599,0.1612,0.1642,0.2913,0.5043,0.5088,0.6597,0.936,1.1059,1.3098,1.5032,1.6785,1.7534,1.7425,1.5753,1.4961,1.4833,-3.3479,-3.3669,-3.3926,-3.4165,-3.5306,-3.7169,-3.9685,-4.2208,-4.4565,-4.6888,-4.8594,-5.0184,-5.1747,-5.2979,-5.4215,-5.5378,-5.6135,-5.6899,-5.7837,-5.7773,-5.7965,-5.8351,-5.8127,-5.7984,-5.7881,-5.6333,-5.4426,-5.2152,-4.9875,-4.7405,-4.4713,-4.324,-4.3441,-4.4931,-4.5961,-4.7768,-5.0197,-5.1817,-5.2763,-5.332,-5.477,-5.5175,-5.4643,-5.3223,-5.2237,-5.1216,-4.9316,-4.8661,-4.8496,-4.8818,-4.8936,-4.8977,-4.924,-4.8391,-4.6772,-4.3512,-4.0242,-3.6659,-3.0981,-2.9224,-2.8122,-2.5053,-2.4975,-2.5398,-2.4372,-2.372,-2.3204,-2.2859,-2.2611,-2.2471,-2.2245,-2.14,-2.0071,-1.8094,-1.6943,-1.5695,-1.3902,-1.3085,-1.2213,-1.0976,-0.9376,-0.7778,-0.6019,-0.4325,-0.2817,-0.177,-0.2196,-0.1924,-0.0767,-0.062,-0.0802,-0.1191,-0.0351,0.018,0.037,0.019,0.0577,0.1548,0.1178,0.1194,0.1818,0.3085,0.4599,0.6147,0.6169,0.6818,0.7881,0.9839,1.1648,1.3517,1.5337,1.6057,1.6094,1.5295,1.4084,1.3327,-3.5016,-3.5599,-3.6307,-3.6614,-3.7416,-3.8948,-4.1923,-4.3847,-4.587,-4.8581,-5.0019,-5.1066,-5.1635,-5.2785,-5.3836,-5.4549,-5.5583,-5.6483,-5.7,-5.746,-5.7813,-5.8093,-5.8211,-5.8275,-5.8099,-5.7261,-5.5894,-5.3995,-5.2124,-4.9752,-4.7051,-4.5495,-4.5616,-4.7077,-4.7528,-4.9157,-5.1695,-5.304,-5.3516,-5.3653,-5.5448,-5.5529,-5.4504,-5.3326,-5.2108,-5.0801,-4.8807,-4.8004,-4.7905,-4.8118,-4.8264,-4.8109,-4.8084,-4.657,-4.4102,-3.9902,-3.6644,-3.328,-2.8446,-2.7132,-2.6488,-2.4826,-2.5106,-2.5687,-2.436,-2.3709,-2.3365,-2.2848,-2.2686,-2.246,-2.1947,-2.0918,-1.9458,-1.7776,-1.6406,-1.5086,-1.3546,-1.2694,-1.1623,-1.0196,-0.8216,-0.648,-0.5127,-0.3136,-0.1638,-0.1196,-0.119,-0.0898,0.0,-0.031,-0.0801,-0.1351,-0.0876,-0.0361,0.0,0.0379,0.0961,0.1935,0.1965,0.2396,0.2636,0.4556,0.5895,0.6818,0.6818,0.6818,0.7033,0.8786,1.0582,1.2432,1.3819,1.4517,1.4937,1.3755,1.2766,1.2219,-3.7072,-3.8405,-3.9488,-3.9588,-4.0856,-4.2362,-4.3842,-4.613,-4.8212,-4.9868,-5.209,-5.3223,-5.2367,-5.3315,-5.4232,-5.4902,-5.5393,-5.5876,-5.668,-5.6713,-5.6944,-5.7289,-5.7848,-5.828,-5.8702,-5.7947,-5.7021,-5.5928,-5.4171,-5.181,-4.8871,-4.8419,-4.8429,-4.8769,-5.118,-5.2255,-5.2367,-5.365,-5.4147,-5.4311,-5.5658,-5.5795,-5.5111,-5.3191,-5.2106,-5.1164,-4.8657,-4.8059,-4.8371,-4.7762,-4.7497,-4.7473,-4.6979,-4.5298,-4.2462,-3.7295,-3.3926,-3.0729,-2.6147,-2.5364,-2.5665,-2.41,-2.588,-2.7461,-2.4749,-2.4738,-2.4897,-2.302,-2.2686,-2.233,-2.0935,-2.0578,-1.9568,-1.6438,-1.6019,-1.5272,-1.2464,-1.2241,-1.1423,-0.9287,-0.7808,-0.6097,-0.3871,-0.2526,-0.1195,-0.0151,0.0,0.0,0.0,-0.1241,-0.1434,0.0,-0.1223,-0.0897,0.1479,0.1525,0.2128,0.3095,0.3186,0.3853,0.4915,0.6313,0.6818,0.6818,0.6818,0.6818,0.703,0.8727,1.0524,1.2206,1.2206,1.3295,1.4377,1.1121,1.0574,1.1916,-4.0271,-4.0841,-4.1357,-4.1667,-4.2471,-4.3992,-4.6606,-4.8281,-5.0351,-5.3528,-5.5059,-5.6002,-5.6626,-5.6369,-5.6376,-5.6723,-5.6995,-5.7177,-5.7256,-5.7256,-5.7594,-5.8353,-5.9044,-5.9633,-6.008,-6.0357,-5.953,-5.746,-5.6617,-5.4303,-5.0596,-4.9984,-5.0195,-5.1211,-5.1518,-5.261,-5.4291,-5.5206,-5.5607,-5.5658,-5.6555,-5.6151,-5.4798,-5.2729,-5.1443,-5.0155,-4.8004,-4.7377,-4.7762,-4.763,-4.6674,-4.5391,-4.3911,-4.2548,-4.0717,-3.6091,-3.234,-2.8939,-2.5397,-2.4244,-2.4021,-2.3775,-2.5047,-2.5921,-2.4407,-2.388,-2.3365,-2.2859,-2.1984,-2.1108,-2.0761,-1.9012,-1.7405,-1.6419,-1.4966,-1.3422,-1.2415,-1.1214,-0.9692,-0.7831,-0.5932,-0.4144,-0.2591,-0.1219,-0.0761,-0.1061,-0.1225,-0.1235,-0.124,-0.0797,-0.1308,-0.2673,-0.1406,-0.0364,0.0185,0.1144,0.2135,0.3126,0.3994,0.5104,0.6257,0.656,0.6818,0.6818,0.6818,0.6818,0.6818,0.7453,0.8783,1.0383,1.0383,1.0814,1.1245,0.9952,0.9917,1.0524,-4.2916,-4.3451,-4.3868,-4.3707,-4.513,-4.6926,-4.9289,-5.1001,-5.3247,-5.6559,-5.7686,-5.8806,-6.0449,-5.981,-5.8951,-5.8217,-5.8639,-5.8875,-5.8869,-5.9145,-5.9633,-6.0314,-6.0936,-6.1348,-6.1581,-6.1739,-6.1051,-5.9526,-5.7756,-5.5501,-5.2845,-5.1663,-5.1956,-5.3475,-5.2757,-5.3498,-5.5267,-5.5918,-5.6154,-5.6286,-5.6936,-5.6177,-5.4657,-5.2986,-5.1233,-4.9414,-4.8021,-4.7442,-4.7497,-4.7232,-4.6248,-4.4687,-4.215,-4.0126,-3.7778,-3.3747,-3.0346,-2.7127,-2.4613,-2.3584,-2.3492,-2.3755,-2.4949,-2.575,-2.4738,-2.388,-2.3204,-2.2859,-2.1811,-2.0935,-1.9892,-1.7972,-1.6049,-1.5168,-1.376,-1.2342,-1.1447,-0.9667,-0.8144,-0.6709,-0.4547,-0.2791,-0.1861,-0.0783,-0.0471,-0.1713,-0.1903,-0.2241,-0.2551,-0.2448,-0.2667,-0.3218,-0.2142,-0.1109,-0.0376,0.1346,0.2546,0.3174,0.4868,0.6006,0.6763,0.6801,0.6818,0.6818,0.6818,0.6818,0.6818,0.6818,0.7918,0.9487,0.8842,0.9057,0.9487,0.8842,0.9483,1.078,-4.5194,-4.6214,-4.6627,-4.5832,-4.829,-5.0789,-5.1693,-5.4058,-5.6591,-5.8957,-6.0066,-6.1534,-6.3643,-6.3197,-6.1866,-5.9677,-6.0255,-6.0901,-6.1295,-6.1858,-6.244,-6.2825,-6.312,-6.3191,-6.3128,-6.2357,-6.1849,-6.1675,-5.7763,-5.575,-5.5457,-5.3534,-5.3601,-5.5328,-5.4638,-5.4687,-5.5323,-5.5992,-5.6256,-5.6302,-5.6917,-5.6123,-5.4569,-5.3571,-5.1465,-4.8973,-4.8583,-4.8133,-4.7545,-4.6697,-4.5978,-4.5005,-4.163,-3.7778,-3.403,-3.0898,-2.8075,-2.5537,-2.3715,-2.3481,-2.3732,-2.3995,-2.5421,-2.6443,-2.575,-2.4738,-2.3892,-2.2859,-2.2147,-2.1098,-1.8837,-1.7096,-1.5513,-1.3217,-1.2637,-1.1727,-0.9719,-0.8119,-0.663,-0.5434,-0.3324,-0.189,-0.1575,-0.0644,-0.0653,-0.1956,-0.2182,-0.2893,-0.4046,-0.5346,-0.4915,-0.2118,-0.3282,-0.2632,0.0,0.2149,0.3372,0.3642,0.5607,0.6758,0.6818,0.6818,0.6818,0.6818,0.6818,0.6818,0.6818,0.6818,0.7915,0.9261,0.7548,0.7978,0.9272,0.7548,0.9054,1.2082,-4.8499,-4.812,-4.8038,-4.909,-5.0301,-5.1727,-5.3745,-5.5907,-5.8311,-6.1152,-6.2108,-6.3105,-6.4847,-6.4336,-6.3545,-6.2783,-6.1571,-6.1328,-6.2584,-6.204,-6.2301,-6.3549,-6.4255,-6.4331,-6.3665,-6.3518,-6.2272,-5.9871,-5.8035,-5.686,-5.6112,-5.5165,-5.4943,-5.5191,-5.4546,-5.4909,-5.6053,-5.6629,-5.6974,-5.6947,-5.6358,-5.5159,-5.3599,-5.1092,-4.952,-4.8558,-4.8059,-4.8322,-4.8694,-4.6634,-4.5188,-4.3543,-3.9714,-3.5627,-3.1863,-3.0469,-2.7588,-2.4889,-2.355,-2.3481,-2.3732,-2.3995,-2.4909,-2.5921,-2.6443,-2.575,-2.4555,-2.2492,-2.1262,-1.969,-1.7271,-1.5168,-1.3545,-1.291,-1.1535,-0.9787,-0.8182,-0.6941,-0.5389,-0.3042,-0.2267,-0.1471,-0.0491,-0.0167,-0.1011,-0.334,-0.3555,-0.4109,-0.551,-0.5937,-0.4948,-0.1965,-0.13,-0.0763,0.0,0.2164,0.4019,0.5771,0.6476,0.6758,0.6818,0.6818,0.6818,0.6818,0.6818,0.6818,0.6818,0.6818,0.7039,0.7476,0.7053,0.7081,0.7548,0.707,0.9075,1.2277,-4.9739,-4.9074,-4.8653,-4.9816,-5.1243,-5.2834,-5.4791,-5.7222,-5.9737,-6.2174,-6.3222,-6.4251,-6.5462,-6.4918,-6.4539,-6.4675,-6.3053,-6.2415,-6.3403,-6.3244,-6.3484,-6.4243,-6.4911,-6.4863,-6.4175,-6.3583,-6.1961,-5.9296,-5.8365,-5.757,-5.6836,-5.553,-5.5191,-5.5664,-5.4939,-5.5209,-5.6226,-5.7184,-5.7464,-5.7063,-5.6165,-5.4623,-5.2795,-5.0805,-4.9439,-4.845,-4.8837,-4.9018,-4.8961,-4.6876,-4.4886,-4.2422,-3.8389,-3.4238,-3.0577,-2.8689,-2.6547,-2.4608,-2.4223,-2.399,-2.4051,-2.5044,-2.5763,-2.6103,-2.6613,-2.6103,-2.4714,-2.2481,-2.0549,-1.8453,-1.621,-1.3748,-1.2125,-1.1467,-1.0432,-0.9036,-0.7128,-0.5757,-0.4252,-0.2111,-0.132,-0.0839,0.0,-0.0693,-0.1915,-0.3958,-0.473,-0.5306,-0.511,-0.5416,-0.4393,-0.2016,-0.1322,-0.0773,0.0,0.2207,0.4507,0.6679,0.6739,0.6785,0.6818,0.6818,0.6818,0.6818,0.6818,0.6818,0.6818,0.6818,0.6818,0.6818,0.6818,0.6839,0.6864,0.6828,0.9061,1.2277,-4.9811,-4.9254,-4.8931,-4.971,-5.1727,-5.3679,-5.5118,-5.7958,-6.0601,-6.2314,-6.3605,-6.4769,-6.576,-6.5303,-6.5136,-6.5704,-6.4448,-6.375,-6.4255,-6.4578,-6.4777,-6.4813,-6.5077,-6.4972,-6.4323,-6.3015,-6.1341,-5.9206,-5.8626,-5.8012,-5.7295,-5.541,-5.5114,-5.6115,-5.5571,-5.5718,-5.6376,-5.7603,-5.7606,-5.6961,-5.5966,-5.4121,-5.1936,-5.1016,-4.9761,-4.856,-4.9892,-4.9889,-4.9109,-4.698,-4.4642,-4.1689,-3.722,-3.3229,-2.9754,-2.7176,-2.5464,-2.4555,-2.4783,-2.4573,-2.4808,-2.6506,-2.6847,-2.6847,-2.6796,-2.6103,-2.4885,-2.2471,-2.0009,-1.7563,-1.5147,-1.2686,-1.0874,-1.0044,-0.9511,-0.8298,-0.5967,-0.4431,-0.3114,-0.1822,-0.0673,0.0,0.0,-0.1252,-0.2511,-0.3743,-0.5285,-0.5325,-0.3984,-0.408,-0.3391,-0.1702,-0.1922,-0.1174,0.04,0.246,0.4586,0.6728,0.6788,0.6818,0.6818,0.6818,0.6818,0.6818,0.6818,0.6818,0.6818,0.6818,0.6818,0.6818,0.6818,0.6823,0.6831,0.6831,0.905,1.223,-4.9422,-4.8854,-4.9026,-5.09,-5.2273,-5.3656,-5.487,-5.753,-5.9935,-6.1603,-6.2717,-6.4064,-6.6002,-6.5536,-6.5305,-6.5732,-6.4947,-6.4822,-6.5873,-6.4226,-6.3858,-6.5255,-6.4937,-6.4148,-6.2939,-6.177,-6.0417,-5.869,-5.8895,-5.8142,-5.6419,-5.6133,-5.5736,-5.5411,-5.5879,-5.6376,-5.7004,-5.7782,-5.7298,-5.5936,-5.4948,-5.2944,-5.0257,-4.9257,-4.8977,-4.9229,-4.9495,-5.0001,-5.0052,-4.5997,-4.3637,-4.131,-3.6047,-3.2171,-2.9254,-2.818,-2.6402,-2.4795,-2.4158,-2.4702,-2.5759,-2.6795,-2.7126,-2.7076,-2.6847,-2.6613,-2.5568,-2.2094,-1.9826,-1.7389,-1.3925,-1.1632,-1.0146,-0.9942,-0.8089,-0.6268,-0.4477,-0.3163,-0.1843,-0.0504,-0.0172,0.0,0.0,-0.0181,-0.0915,-0.2414,-0.278,-0.2791,-0.2641,-0.2654,-0.1916,-0.039,-0.0391,0.0595,0.2853,0.3094,0.4586,0.6728,0.6788,0.6818,0.6818,0.6818,0.6818,0.6818,0.6818,0.6818,0.6818,0.6818,0.6818,0.6818,0.6818,0.685,0.6894,0.6894,0.9136,1.2339,-4.7959,-4.8076,-4.8942,-5.1079,-5.1574,-5.2457,-5.5165,-5.747,-5.9641,-6.1742,-6.3199,-6.4592,-6.5887,-6.5699,-6.5565,-6.5768,-6.5581,-6.5592,-6.618,-6.445,-6.3448,-6.3625,-6.3117,-6.2232,-6.0804,-6.0736,-6.0173,-5.9152,-5.8546,-5.7777,-5.6862,-5.6115,-5.5762,-5.5748,-5.6376,-5.7034,-5.7693,-5.8029,-5.7207,-5.5704,-5.4002,-5.1812,-4.9411,-4.9109,-4.9022,-4.9401,-5.0528,-5.0441,-4.9275,-4.5899,-4.2627,-3.9165,-3.4569,-3.1091,-2.8437,-2.6926,-2.5949,-2.5095,-2.4897,-2.5294,-2.5856,-2.6524,-2.7071,-2.7207,-2.6574,-2.5832,-2.4418,-2.1419,-1.8134,-1.5247,-1.2794,-1.0605,-0.9273,-0.9127,-0.8113,-0.6623,-0.4345,-0.3519,-0.2192,-0.017,0.0,0.0,0.0,-0.0733,-0.1479,-0.2251,-0.3006,-0.3201,-0.2269,-0.2292,-0.1547,0.0,0.0598,0.2026,0.4123,0.4369,0.5037,0.6777,0.6804,0.6818,0.6818,0.6818,0.6818,0.6818,0.6818,0.6818,0.6818,0.6818,0.6818,0.6818,0.6818,0.6834,0.6864,0.6897,0.9097,1.2211,-4.7033,-4.7701,-4.8951,-5.0981,-5.0981,-5.1755,-5.5134,-5.7299,-5.9388,-6.1693,-6.345,-6.4799,-6.5832,-6.5689,-6.559,-6.5895,-6.6155,-6.6105,-6.5653,-6.4704,-6.3659,-6.2501,-6.1627,-6.0687,-5.9499,-6.0087,-6.0033,-5.9419,-5.8338,-5.7558,-5.7149,-5.6152,-5.5837,-5.6196,-5.6974,-5.7633,-5.8065,-5.8326,-5.7278,-5.5355,-5.3552,-5.1249,-4.8854,-4.9313,-4.9523,-4.9721,-5.1297,-5.0659,-4.8621,-4.5684,-4.1676,-3.7174,-3.3432,-3.0351,-2.7596,-2.5949,-2.5301,-2.5235,-2.5916,-2.5838,-2.5711,-2.5901,-2.6656,-2.7172,-2.6054,-2.496,-2.3332,-2.0846,-1.6939,-1.3443,-1.1989,-0.9936,-0.8599,-0.8489,-0.8161,-0.7007,-0.4574,-0.3726,-0.2552,-0.0344,0.0,0.0,0.0,-0.1113,-0.1679,-0.1696,-0.2846,-0.3039,-0.1698,-0.1728,-0.0977,0.0793,0.1417,0.2675,0.4994,0.5029,0.5703,0.6818,0.6818,0.6818,0.6818,0.6818,0.6818,0.6818,0.6818,0.6818,0.6818,0.6818,0.6818,0.6818,0.6818,0.6818,0.6826,0.6886,0.9064,1.2111,-4.7709,-4.8563,-4.9386,-5.0375,-5.1479,-5.2547,-5.3985,-5.6292,-5.8734,-6.1005,-6.23,-6.3896,-6.6012,-6.5314,-6.5109,-6.6172,-6.6646,-6.6164,-6.4392,-6.4844,-6.4719,-6.3587,-6.1567,-6.0463,-6.0292,-6.0378,-5.9859,-5.8701,-5.8873,-5.809,-5.6439,-5.6787,-5.6675,-5.6226,-5.7483,-5.8082,-5.8095,-5.88,-5.7312,-5.4497,-5.41,-5.1665,-4.8377,-4.9609,-5.0328,-5.062,-5.1019,-5.0479,-4.9006,-4.4849,-4.1045,-3.7264,-3.3385,-2.9884,-2.7227,-2.6745,-2.5578,-2.4847,-2.6234,-2.5842,-2.5137,-2.5339,-2.6056,-2.6342,-2.5229,-2.4429,-2.3332,-2.0846,-1.6861,-1.3375,-1.2001,-0.9992,-0.8668,-0.8497,-0.7516,-0.6067,-0.4502,-0.3118,-0.174,-0.0176,0.0,0.0,0.0,-0.0187,-0.0189,-0.0191,-0.0191,-0.0382,-0.0191,-0.0194,0.0794,0.3058,0.2249,0.2889,0.5041,0.5046,0.5703,0.6818,0.6818,0.6818,0.6818,0.6818,0.6818,0.6818,0.6818,0.6818,0.6818,0.6818,0.6818,0.6818,0.6818,0.6818,0.6826,0.6886,0.91,1.2211,-4.6897,-4.9088,-5.0922,-5.1479,-5.2547,-5.4088,-5.6131,-5.7756,-5.9766,-6.2751,-6.3865,-6.4822,-6.5859,-6.577,-6.5699,-6.5958,-6.6845,-6.6666,-6.4913,-6.5169,-6.4186,-6.1434,-6.0732,-6.0022,-5.9182,-5.9255,-5.9174,-5.9096,-5.8332,-5.7845,-5.7564,-5.7269,-5.7184,-5.7393,-5.7902,-5.8137,-5.809,-5.739,-5.5524,-5.3093,-5.1895,-5.0074,-4.8411,-4.9866,-5.0871,-5.1425,-5.2196,-5.041,-4.7381,-4.4757,-3.9907,-3.4825,-3.2975,-2.9564,-2.6241,-2.5898,-2.536,-2.5155,-2.657,-2.5658,-2.4507,-2.5196,-2.5785,-2.575,-2.4585,-2.3252,-2.1777,-2.0144,-1.6015,-1.2633,-1.2041,-1.0142,-0.8779,-0.8652,-0.8203,-0.6908,-0.4604,-0.3719,-0.2669,-0.036,0.0,0.0,0.0,0.0,0.0,0.0,0.0,0.0,0.0,0.0,0.1009,0.3302,0.2905,0.3757,0.6095,0.613,0.6372,0.6818,0.6818,0.6818,0.6818,0.6818,0.6818,0.6818,0.6818,0.6818,0.6818,0.6818,0.6818,0.682,0.6858,0.6875,0.7101,0.8284,1.0272,1.2447,-4.8075,-5.0253,-5.188,-5.1941,-5.3059,-5.4804,-5.7282,-5.8897,-6.087,-6.4072,-6.5095,-6.5661,-6.6021,-6.6048,-6.6021,-6.5994,-6.655,-6.6321,-6.4946,-6.4359,-6.2973,-6.0365,-6.0173,-5.9709,-5.8813,-5.8873,-5.9096,-5.9363,-5.8454,-5.8084,-5.8329,-5.7932,-5.7962,-5.8441,-5.8226,-5.8208,-5.8195,-5.6503,-5.443,-5.2292,-5.0921,-4.9767,-4.9181,-5.06,-5.1677,-5.2181,-5.2308,-4.9799,-4.6095,-4.3957,-3.8823,-3.3439,-3.2723,-2.9473,-2.5886,-2.5519,-2.5251,-2.56,-2.7123,-2.5966,-2.4618,-2.5332,-2.5742,-2.556,-2.373,-2.2228,-2.0538,-1.8888,-1.5079,-1.2036,-1.1626,-1.0069,-0.8885,-0.8791,-0.873,-0.7602,-0.4706,-0.4346,-0.3268,-0.0366,0.0,0.0,0.0,0.0,0.0,0.0,0.0,0.0,0.0,0.0,0.1015,0.332,0.334,0.4408,0.6755,0.6796,0.6818,0.6818,0.6818,0.6818,0.6818,0.6818,0.6818,0.6818,0.6818,0.6818,0.6818,0.6818,0.6818,0.6823,0.6886,0.6908,0.7137,0.8978,1.0766,1.25,-5.1729,-5.2215,-5.2124,-5.1323,-5.2765,-5.4743,-5.6737,-5.9285,-6.1834,-6.4474,-6.5474,-6.61,-6.6655,-6.5914,-6.5633,-6.6207,-6.5649,-6.4946,-6.418,-6.2167,-6.0986,-6.0986,-6.0206,-5.9685,-5.9627,-5.9566,-5.9507,-5.9394,-5.9307,-5.8899,-5.8359,-5.8897,-5.9099,-5.9099,-5.8415,-5.8282,-5.8344,-5.6399,-5.4386,-5.2385,-5.1911,-5.1317,-5.0744,-5.1802,-5.2548,-5.2784,-5.1029,-4.853,-4.5666,-4.2309,-3.7827,-3.3588,-3.28,-2.9611,-2.615,-2.5774,-2.5388,-2.5611,-2.7858,-2.7027,-2.556,-2.556,-2.6276,-2.6083,-2.2616,-2.1481,-2.0168,-1.6644,-1.3852,-1.1757,-1.0703,-0.9755,-0.8979,-0.8885,-0.8873,-0.7763,-0.4808,-0.4438,-0.3329,-0.037,0.0,0.0,0.0,0.0,0.0,0.0,0.0,0.0,0.0,0.0,0.1009,0.3318,0.3321,0.4605,0.6818,0.6818,0.6818,0.6818,0.6818,0.6818,0.6818,0.6818,0.6818,0.6818,0.6818,0.6818,0.6818,0.6818,0.6818,0.6826,0.6886,0.691,0.7131,0.8926,1.0963,1.2602,-5.1515,-5.2785,-5.359,-5.2826,-5.4971,-5.7582,-5.9939,-6.2193,-6.4393,-6.6592,-6.7104,-6.712,-6.678,-6.6186,-6.5497,-6.4905,-6.4917,-6.4606,-6.3708,-6.2771,-6.1832,-6.0946,-6.0096,-5.9566,-5.9439,-5.8985,-5.8877,-5.9213,-5.8655,-5.858,-5.8821,-5.9027,-5.9338,-5.9757,-5.7898,-5.7168,-5.6949,-5.4056,-5.1845,-5.0259,-5.0194,-5.0342,-5.0792,-5.2235,-5.3302,-5.3619,-5.1977,-4.8984,-4.5188,-4.1733,-3.7273,-3.2814,-2.9433,-2.7611,-2.6798,-2.6592,-2.6592,-2.6906,-2.8989,-2.8655,-2.7377,-2.6821,-2.5742,-2.4463,-2.2432,-2.0945,-1.9259,-1.6464,-1.3852,-1.1972,-1.0805,-0.9857,-0.9073,-0.8983,-0.8032,-0.6721,-0.467,-0.3552,-0.2063,-0.0189,0.0,0.0,0.0,-0.0962,-0.1156,0.0,0.0,0.0,0.0,0.0807,0.184,0.332,0.4176,0.5266,0.6818,0.6818,0.6818,0.6818,0.6818,0.6818,0.6818,0.6818,0.6818,0.6818,0.6818,0.6818,0.6818,0.6818,0.6842,0.6888,0.6948,0.7,0.7483,1.0624,1.2048,1.3029,-5.1667,-5.2931,-5.3821,-5.3737,-5.6464,-5.9553,-6.209,-6.4108,-6.5996,-6.776,-6.77,-6.736,-6.6816,-6.594,-6.5105,-6.4358,-6.388,-6.3494,-6.3222,-6.2814,-6.2212,-6.1401,-6.0604,-5.9946,-5.9402,-5.8929,-5.8863,-5.9099,-5.871,-5.871,-5.9099,-5.9368,-5.9737,-6.0001,-5.8031,-5.6823,-5.6014,-5.2932,-5.0836,-4.9719,-5.0055,-5.0673,-5.173,-5.2884,-5.3317,-5.2995,-5.0956,-4.7576,-4.3698,-4.0272,-3.6137,-3.1815,-2.7915,-2.7062,-2.7558,-2.7184,-2.7365,-2.792,-2.9554,-2.9002,-2.7739,-2.7184,-2.5366,-2.3352,-2.15,-1.9454,-1.7398,-1.4973,-1.2916,-1.1227,-1.028,-0.9522,-0.9126,-0.9069,-0.7736,-0.6227,-0.4717,-0.3221,-0.1715,-0.0192,0.0,0.0,0.0,-0.1362,-0.1948,-0.0978,-0.0394,0.0,0.0,0.1015,0.2261,0.332,0.4396,0.5701,0.6818,0.6818,0.6818,0.6818,0.6818,0.6818,0.6818,0.6818,0.6818,0.6818,0.6818,0.6818,0.682,0.6845,0.6875,0.6918,0.7,0.7498,0.8417,1.1372,1.3039,1.4258,-5.2124,-5.2754,-5.3528,-5.4411,-5.7621,-6.0976,-6.3574,-6.5455,-6.7008,-6.8111,-6.7684,-6.7061,-6.6677,-6.5403,-6.4463,-6.4148,-6.2787,-6.2173,-6.2829,-6.2532,-6.2146,-6.1995,-6.1503,-6.0584,-5.9448,-5.9283,-5.9243,-5.9099,-5.9159,-5.9189,-5.9189,-5.9877,-6.0172,-6.0085,-5.8312,-5.6817,-5.5577,-5.2472,-5.0877,-5.0186,-5.0896,-5.1834,-5.3077,-5.3606,-5.302,-5.1401,-4.8531,-4.5229,-4.172,-3.7875,-3.433,-3.0937,-2.8,-2.7739,-2.8294,-2.7365,-2.7739,-2.8655,-2.9734,-2.8462,-2.7003,-2.6821,-2.4796,-2.2402,-2.0196,-1.7771,-1.5153,-1.2733,-1.1416,-1.028,-0.9332,-0.9142,-0.9142,-0.8952,-0.7619,-0.6093,-0.4569,-0.3071,-0.1545,-0.0193,0.0,0.0,-0.0196,-0.1571,-0.2367,-0.239,-0.0996,0.0,0.0202,0.1222,0.2466,0.3527,0.4605,0.5701,0.6818,0.6818,0.6818,0.6818,0.6818,0.6818,0.6818,0.6818,0.6818,0.6818,0.6818,0.682,0.6831,0.6886,0.6916,0.6935,0.7049,0.8196,0.9966,1.1825,1.3709,1.5641,-5.2332,-5.3221,-5.4767,-5.7477,-6.0529,-6.3506,-6.608,-6.7274,-6.8087,-6.8651,-6.8111,-6.7268,-6.6235,-6.5202,-6.4148,-6.309,-6.2421,-6.2448,-6.3337,-6.3053,-6.2613,-6.1974,-6.1397,-6.0671,-5.9964,-5.9375,-5.9165,-5.9099,-5.9608,-5.9877,-5.9877,-6.0565,-6.0886,-6.0733,-5.7768,-5.5943,-5.4918,-5.1966,-5.027,-4.9476,-5.117,-5.1915,-5.2206,-5.333,-5.2565,-5.0675,-4.8216,-4.4724,-4.0377,-3.4989,-3.1734,-2.9998,-2.8629,-2.8294,-2.8474,-2.8294,-2.8294,-2.8655,-2.9734,-2.8462,-2.6809,-2.5514,-2.276,-2.0196,-1.9648,-1.7771,-1.5153,-1.2733,-1.1416,-1.028,-0.9332,-0.9142,-0.8763,-0.7616,-0.6093,-0.4569,-0.3047,-0.1528,-0.0383,0.0,0.0,-0.058,-0.1763,-0.2173,-0.2391,-0.2413,-0.1,0.04,0.1211,0.224,0.3495,0.4564,0.5859,0.6544,0.6818,0.6818,0.6818,0.6818,0.6818,0.6818,0.6818,0.6818,0.6818,0.6818,0.6818,0.6845,0.6891,0.6902,0.6965,0.7055,0.7085,0.8227,1.0047,1.1848,1.3761,1.5793,-5.2007,-5.3682,-5.6018,-5.9365,-6.2367,-6.5068,-6.7442,-6.8025,-6.8357,-6.8548,-6.7573,-6.6627,-6.5992,-6.5039,-6.4072,-6.3222,-6.2546,-6.2698,-6.4151,-6.354,-6.289,-6.2428,-6.1508,-6.0739,-6.0057,-5.9757,-5.9727,-6.0057,-6.0416,-6.0565,-6.0595,-6.0916,-6.0644,-5.9735,-5.7162,-5.5176,-5.3385,-5.1265,-5.0045,-4.9548,-5.1255,-5.2,-5.2236,-5.2319,-5.0985,-4.8733,-4.614,-4.199,-3.6969,-3.3219,-3.0794,-2.9195,-2.8655,-2.8474,-2.8474,-2.8474,-2.8835,-2.9195,-2.9195,-2.8101,-2.6446,-2.4591,-2.184,-1.9462,-1.8719,-1.6284,-1.3852,-1.2544,-1.1037,-0.9711,-0.9142,-0.9142,-0.8573,-0.7046,-0.5522,-0.3998,-0.2477,-0.0957,0.0,0.0,-0.0579,-0.175,-0.3353,-0.2789,-0.2414,-0.2437,-0.081,0.0405,0.1635,0.2682,0.3948,0.5011,0.6108,0.6785,0.6818,0.6818,0.6818,0.6818,0.6848,0.6861,0.6861,0.6861,0.6861,0.6858,0.6831,0.6853,0.691,0.694,0.7006,0.709,0.8005,0.9598,1.1416,1.3252,1.5219,1.7073,-5.1995,-5.4386,-5.7427,-6.0852,-6.3796,-6.6281,-6.8171,-6.8468,-6.8346,-6.8097,-6.6946,-6.6057,-6.5788,-6.4775,-6.4019,-6.3801,-6.3097,-6.3382,-6.489,-6.3711,-6.2995,-6.2876,-6.152,-6.0638,-6.0236,-6.0356,-6.0655,-6.1104,-6.1224,-6.1171,-6.1058,-6.1082,-6.0027,-5.8306,-5.6455,-5.4381,-5.2124,-5.089,-5.0289,-5.0076,-5.1489,-5.2084,-5.1977,-5.0853,-4.8912,-4.6462,-4.3739,-3.9055,-3.3777,-3.2203,-3.0258,-2.8474,-2.8655,-2.8655,-2.8474,-2.8655,-2.9414,-2.9814,-2.8732,-2.7657,-2.62,-2.362,-2.103,-1.8624,-1.7124,-1.4474,-1.2199,-1.201,-1.0493,-0.9163,-0.9146,-0.9142,-0.8573,-0.6856,-0.5522,-0.3998,-0.2096,-0.0768,-0.0193,-0.0386,-0.1754,-0.3148,-0.4165,-0.3208,-0.2229,-0.2046,-0.0614,0.0823,0.1867,0.3138,0.4203,0.5258,0.6361,0.6818,0.6818,0.6818,0.6818,0.6818,0.688,0.6902,0.6894,0.6894,0.6894,0.6891,0.6839,0.6858,0.6929,0.6978,0.7041,0.7334,0.9156,1.0966,1.2762,1.5134,1.6922,1.8552,-5.3584,-5.5993,-5.9172,-6.3161,-6.5714,-6.7677,-6.8966,-6.9286,-6.8888,-6.756,-6.7316,-6.6674,-6.518,-6.4595,-6.4229,-6.4256,-6.445,-6.4738,-6.4991,-6.3404,-6.2358,-6.2355,-6.1046,-6.0456,-6.0954,-6.1523,-6.1583,-6.1104,-6.1672,-6.1714,-6.1111,-6.0702,-5.9484,-5.7514,-5.5472,-5.3503,-5.1819,-5.1147,-5.0802,-5.0582,-5.1979,-5.1447,-4.9942,-4.954,-4.7443,-4.4435,-4.2436,-3.8545,-3.3777,-3.1151,-2.9375,-2.8655,-2.9375,-2.9195,-2.8655,-2.9554,-3.01,-3.0119,-2.9013,-2.7313,-2.5021,-2.2576,-1.9361,-1.6316,-1.479,-1.3351,-1.2122,-1.1171,-1.0025,-0.9236,-0.9158,-0.9142,-0.8189,-0.5332,-0.4759,-0.3619,-0.0763,-0.0191,-0.0573,-0.1909,-0.349,-0.3924,-0.2751,-0.2397,-0.1824,-0.0409,0.0819,0.185,0.3112,0.4185,0.5466,0.6518,0.6785,0.6818,0.6818,0.6818,0.6818,0.6818,0.688,0.688,0.6831,0.6831,0.6831,0.6828,0.682,0.6883,0.6987,0.7,0.7063,0.7384,0.9174,1.0966,1.299,1.659,1.8155,1.8552,-5.6423,-5.8938,-6.1826,-6.513,-6.6774,-6.7986,-6.887,-6.9256,-6.8934,-6.7414,-6.7246,-6.686,-6.5982,-6.5652,-6.5803,-6.6551,-6.6186,-6.5963,-6.612,-6.3942,-6.271,-6.2825,-6.1035,-6.0565,-6.1642,-6.1942,-6.2121,-6.2211,-6.2136,-6.1644,-6.0732,-5.9484,-5.7696,-5.5656,-5.3691,-5.2214,-5.1009,-5.0834,-5.0723,-5.0673,-5.0848,-4.992,-4.864,-4.7006,-4.4885,-4.2269,-3.8715,-3.5462,-3.2543,-2.99,-2.8474,-2.792,-2.8835,-2.8576,-2.8145,-2.9792,-3.0003,-2.9492,-2.8556,-2.6386,-2.3999,-2.1536,-1.8488,-1.5828,-1.378,-1.2385,-1.1548,-1.0906,-1.0122,-0.9338,-0.9297,-0.8518,-0.7163,-0.5034,-0.3871,-0.2518,-0.0388,-0.0776,-0.2325,-0.4647,-0.49,-0.4547,-0.3757,-0.2803,-0.1828,-0.0206,0.1032,0.2282,0.3367,0.4439,0.5508,0.6777,0.6804,0.6818,0.6818,0.6818,0.6818,0.6818,0.6845,0.6861,0.6869,0.6869,0.6869,0.6867,0.6831,0.6886,0.7,0.7,0.7727,0.8734,1.0516,1.3039,1.5884,1.7673,1.8531,1.8674]}]]